[[{"header":{"parameterUnit":"m.s-1","parameterCategory":1,"la1":31.0,"la2":29.5877,"lo1":-88.7671,"lo2":-86.6584,"dy":0.0162,"dx":0.0185,"nx":115,"ny":88,"refTime":"2023-03-28T06:00:00:Z","depth":0,"parameterNumber":2,"parameterNumberName":"U-component_of_WINDS"},"data":[0.0,0.0,0.0,0.0,0.0,0.0,0.0,0.0,0.0,0.0,0.0,0.0,0.0,0.0,0.0,0.0,0.0,0.0,0.0,0.0,0.0,0.0,0.0,0.0,0.0,0.0,0.0,0.0,0.0,0.0,0.0,0.0,0.0,0.0,0.0,0.0,0.0,0.0,0.0,0.0,0.0,0.0,0.0,0.0,0.0,0.0,0.0,0.0,0.0,0.0,0.0,0.0,0.0,0.0,0.0,0.0,0.0,0.0,0.0,0.0,0.0,0.0,0.0,0.0,0.0,0.0,0.0,0.0,0.0,0.0,0.0,0.0,0.0,0.0,0.0,0.0,0.0,0.0,0.0,0.0,0.0,0.0,0.0,0.0,0.0,0.0,0.0,0.0,0.0,0.0,0.0,0.0,0.0,0.0,0.0,0.0,0.0,0.0,0.0,0.0,0.0,0.0,0.0,0.0,0.0,0.0,0.0,0.0,0.0,0.0,0.0,0.0,0.0,0.0,0.0,0.0,0.0,0.0,0.0,0.0,0.0,0.0,0.0,0.0,0.0,0.0,0.0,0.0,0.0,0.0,0.0,0.0,0.0,0.0,0.0,0.0,0.0,0.0,0.0,0.0,0.0,0.0,0.0,0.0,0.0,0.0,0.0,0.0,0.0,0.0,0.0,0.0,0.0,0.0,0.0,0.0,0.0,0.0,0.0,0.0,0.0,0.0,0.0,0.0,0.0,0.0,0.0,0.0,0.0,0.0,0.0,0.0,0.0,0.0,0.0,0.0,0.0,0.0,0.0,0.0,0.0,0.0,0.0,0.0,0.0,0.0,0.0,0.0,0.0,0.0,0.0,0.0,0.0,0.0,0.0,0.0,0.0,0.0,0.0,0.0,0.0,0.0,0.0,0.0,0.0,0.0,0.0,0.0,0.0,0.0,0.0,0.0,0.0,0.0,0.0,0.0,0.0,0.0,0.0,0.0,0.0,0.0,0.0,0.0,0.0,0.0,0.0,0.0,0.0,0.0,0.0,0.0,0.0,0.0,0.0,0.0,0.0,0.0,0.0,0.0,0.0,0.0,0.0,0.0,0.0,0.0,0.0,0.0,0.0,0.0,0.0,0.0,0.0,0.0,0.0,0.0,0.0,0.0,0.0,0.0,0.0,0.0,0.0,0.0,0.0,0.0,0.0,0.0,0.0,0.0,0.0,0.0,0.0,0.0,0.0,0.0,0.0,0.0,0.0,0.0,0.0,0.0,0.0,0.0,0.0,0.0,0.0,0.0,0.0,0.0,0.0,0.0,0.0,0.0,0.0,0.0,0.0,0.0,0.0,0.0,0.0,0.0,0.0,0.0,0.0,0.0,0.0,0.0,0.0,0.0,0.0,0.0,0.0,0.0,0.0,0.0,0.0,0.0,0.0,0.0,0.0,0.0,0.0,0.0,0.0,0.0,0.0,0.0,0.0,0.0,0.0,0.0,0.0,0.0,0.0,0.0,0.0,0.0,0.0,0.0,0.0,0.0,0.0,0.0,0.0,0.0,0.0,0.0,0.0,0.0,0.0,0.0,0.0,0.0,0.0,0.0,0.0,0.0,0.0,0.0,0.0,0.0,0.0,0.0,0.0,0.0,0.0,0.0,0.0,0.0,0.0,0.0,0.0,0.0,0.0,0.0,0.0,0.0,0.0,0.0,0.0,0.0,0.0,0.0,0.0,0.0,0.0,0.0,0.0,0.0,0.0,0.0,0.0,0.0,0.0,0.0,0.0,0.0,0.0,0.0,0.0,0.0,0.0,0.0,0.0,0.0,0.0,0.0,0.0,0.0,0.0,0.0,0.0,0.0,0.0,0.0,0.0,0.0,0.0,0.0,0.0,0.0,0.0,0.0,0.0,0.0,0.0,0.0,0.0,0.0,0.0,0.0,0.0,0.0,0.0,0.0,0.0,0.0,0.0,0.0,0.0,0.0,0.0,0.0,0.0,0.0,0.0,0.0,0.0,0.0,0.0,0.0,0.0,0.0,0.0,0.0,0.0,0.0,0.0,0.0,0.0,0.0,0.0,0.0,0.0,0.0,0.0,0.0,0.0,0.0,0.0,0.0,0.0,0.0,0.0,0.0,0.0,0.0,0.0,0.0,0.0,0.0,0.0,0.0,0.0,0.0,0.0,0.0,0.0,0.0,0.0,0.0,0.0,0.0,0.0,0.0,0.0,0.0,0.0,0.0,0.0,0.0,0.0,0.0,0.0,0.0,0.0,0.0,0.0,0.0,0.0,0.0,0.0,0.0,0.0,0.0,0.0,0.0,0.0,0.0,0.0,0.0,0.0,0.0,0.0,0.0,0.0,0.0,0.0,0.0,0.0,0.0,0.0,0.0,0.0,0.0,0.0,0.0,0.0,0.0,0.0,0.0,0.0,0.0,0.0,0.0,0.0,0.0,0.0,0.0,0.0,0.0,0.0,0.0,0.0,0.0,0.0,0.0,0.0,0.0,0.0,0.0,0.0,0.0,0.0,0.0,0.0,0.0,0.0,0.0,0.0,0.0,0.0,0.0,0.0,0.0,0.0,0.0,0.0,0.0,0.0,0.0,0.0,0.0,0.0,0.0,0.0,0.0,0.0,0.0,0.0,0.0,0.0,0.0,0.0,0.0,0.0,0.0,0.0,0.0,0.0,0.0,0.0,0.0,0.0,0.0,0.0,0.0,0.0,0.0,0.0,0.0,0.0,0.0,0.0,0.0,0.0,0.0,0.0,0.0,0.0,0.0,0.0,0.0,0.0,0.0,0.0,0.0,0.0,0.0,0.0,0.0,0.0,0.0,0.0,0.0,0.0,0.0,0.0,0.0,0.0,0.0,0.0,0.0,0.0,0.0,0.0,0.0,0.0,0.0,0.0,0.0,0.0,0.0,0.0,0.0,0.0,0.0,0.0,0.0,0.0,0.0,0.0,0.0,0.0,0.0,0.0,0.0,0.0,0.0,0.0,0.0,0.0,0.0,0.0,0.0,0.0,0.0,0.0,0.0,0.0,0.0,0.0,0.0,0.0,0.0,0.0,0.0,0.0,0.0,0.0,0.0,0.0,0.0,0.0,0.0,0.0,0.0,0.0,0.0,0.0,0.0,0.0,0.0,0.0,0.0,0.0,0.0,0.0,0.0,0.0,0.0,0.0,0.0,0.0,0.0,0.0,0.0,0.0,0.0,0.0,0.0,0.0,0.0,0.0,0.0,0.0,0.0,0.0,0.0,0.0,0.0,0.0,0.0,0.0,0.0,0.0,0.0,0.0,0.0,0.0,0.0,0.0,0.0,0.0,0.0,0.0,0.0,0.0,0.0,0.0,0.0,0.0,0.0,0.0,0.0,0.0,0.0,0.0,0.0,0.0,0.0,0.0,0.0,0.0,0.0,0.0,0.0,0.0,0.0,0.0,0.0,0.0,0.0,0.0,0.0,0.0,0.0,0.0,0.0,0.0,0.0,0.0,0.0,0.0,0.0,0.0,0.0,0.0,0.0,0.0,0.0,0.0,0.0,0.0,0.0,0.0,0.0,0.0,0.0,0.0,0.0,0.0,0.0,0.0,0.0,0.0,0.0,0.0,0.0,0.0,0.0,0.0,0.0,0.0,0.0,0.0,0.0,0.0,0.0,0.0,0.0,0.0,0.0,0.0,0.0,0.0,0.0,0.0,0.0,0.0,0.0,0.0,0.0,0.0,0.0,0.0,0.0,0.0,0.0,0.0,0.0,0.0,0.0,0.0,0.0,0.0,0.0,0.0,0.0,0.0,0.0,0.0,0.0,0.0,0.0,0.0,0.0,0.0,0.0,0.0,0.0,0.0,0.0,0.0,0.0,0.0,0.0,0.0,0.0,0.0,0.0,0.0,0.0,0.0,0.0,0.0,0.0,0.0,0.0,0.0,0.0,0.0,0.0,0.0,0.0,0.0,0.0,0.0,0.0,0.0,0.0,0.0,0.0,0.0,0.0,0.0,0.0,0.0,0.0,0.0,0.0,0.0,0.0,0.0,0.0,0.0,0.0,0.0,0.0,0.0,0.0,0.0,0.0,0.0,0.0,0.0,0.0,0.0,0.0,0.0,0.0,0.0,0.0,0.0,0.0,0.0,0.0,0.0,0.0,0.0,0.0,0.0,0.0,0.0,0.0,0.0,0.0,0.0,0.0,0.0,0.0,0.0,0.0,0.0,0.0,0.0,0.0,0.0,0.0,0.0,0.0,0.0,0.0,0.0,0.0,0.0,0.0,0.0,0.0,0.0,0.0,0.0,0.0,0.0,0.0,-2.6692,0.0,0.0,0.0,0.0,0.0,0.0,0.0,0.0,0.0,0.0,0.0,0.0,0.0,0.0,0.0,0.0,0.0,0.0,0.0,0.0,0.0,0.0,0.0,0.0,0.0,0.0,0.0,0.0,0.0,0.0,0.0,0.0,0.0,0.0,0.0,0.0,0.0,0.0,0.0,0.0,0.0,0.0,0.0,0.0,0.0,0.0,0.0,0.0,0.0,0.0,0.0,0.0,0.0,0.0,0.0,0.0,0.0,0.0,0.0,0.0,0.0,0.0,0.0,0.0,0.0,0.0,0.0,0.0,0.0,0.0,0.0,0.0,0.0,0.0,0.0,0.0,0.0,0.0,0.0,0.0,0.0,0.0,0.0,0.0,0.0,0.0,0.0,0.0,0.0,0.0,0.0,0.0,0.0,0.0,0.0,0.0,0.0,0.0,0.0,0.0,0.0,0.0,0.0,0.0,0.0,0.0,0.0,0.0,0.0,0.0,-2.6459,-2.6499,-2.6487,-2.6555,-2.6705,0.0,0.0,0.0,0.0,0.0,0.0,0.0,0.0,0.0,0.0,0.0,0.0,0.0,0.0,0.0,0.0,0.0,0.0,0.0,0.0,0.0,0.0,0.0,0.0,0.0,0.0,0.0,0.0,0.0,0.0,0.0,0.0,0.0,0.0,0.0,0.0,0.0,0.0,0.0,0.0,0.0,0.0,0.0,0.0,0.0,0.0,0.0,0.0,0.0,0.0,0.0,0.0,0.0,0.0,0.0,0.0,0.0,0.0,0.0,0.0,0.0,0.0,0.0,0.0,0.0,0.0,0.0,0.0,0.0,0.0,0.0,0.0,0.0,0.0,0.0,0.0,0.0,0.0,0.0,0.0,0.0,0.0,0.0,0.0,0.0,0.0,0.0,0.0,0.0,0.0,0.0,0.0,0.0,0.0,0.0,0.0,0.0,0.0,0.0,0.0,0.0,0.0,0.0,0.0,0.0,0.0,0.0,0.0,0.0,0.0,0.0,0.0,-2.6841,-2.6961,-2.7192,0.0,0.0,0.0,0.0,0.0,0.0,0.0,0.0,0.0,0.0,0.0,0.0,0.0,0.0,0.0,0.0,0.0,0.0,0.0,0.0,0.0,0.0,0.0,0.0,0.0,0.0,0.0,0.0,0.0,0.0,0.0,0.0,0.0,0.0,0.0,0.0,0.0,0.0,0.0,0.0,0.0,0.0,0.0,0.0,0.0,0.0,0.0,0.0,0.0,0.0,0.0,0.0,0.0,0.0,0.0,0.0,0.0,0.0,0.0,0.0,0.0,0.0,0.0,0.0,0.0,0.0,0.0,0.0,0.0,0.0,0.0,0.0,0.0,0.0,0.0,0.0,0.0,0.0,0.0,0.0,0.0,0.0,0.0,0.0,0.0,0.0,0.0,0.0,0.0,0.0,0.0,0.0,0.0,0.0,0.0,0.0,0.0,0.0,0.0,0.0,0.0,0.0,0.0,0.0,0.0,0.0,0.0,0.0,0.0,0.0,-2.7225,-2.741,-2.7764,0.0,-2.8662,0.0,0.0,0.0,0.0,0.0,0.0,0.0,0.0,0.0,0.0,0.0,0.0,0.0,0.0,0.0,0.0,0.0,0.0,0.0,0.0,0.0,0.0,0.0,0.0,0.0,0.0,0.0,0.0,0.0,0.0,0.0,0.0,0.0,0.0,0.0,0.0,0.0,0.0,0.0,0.0,0.0,0.0,0.0,0.0,0.0,0.0,0.0,0.0,0.0,0.0,0.0,0.0,0.0,0.0,0.0,0.0,0.0,0.0,0.0,0.0,0.0,0.0,0.0,0.0,0.0,0.0,0.0,0.0,0.0,0.0,0.0,0.0,0.0,0.0,0.0,0.0,0.0,0.0,0.0,0.0,0.0,0.0,0.0,0.0,0.0,0.0,0.0,0.0,0.0,0.0,0.0,0.0,0.0,0.0,0.0,0.0,0.0,0.0,0.0,0.0,0.0,0.0,0.0,0.0,0.0,0.0,0.0,0.0,0.0,0.0,-2.7754,-2.7853,-2.8133,-2.8532,0.0,0.0,0.0,0.0,0.0,0.0,0.0,0.0,0.0,0.0,0.0,0.0,0.0,0.0,0.0,0.0,0.0,0.0,0.0,0.0,0.0,0.0,0.0,0.0,0.0,0.0,0.0,0.0,0.0,0.0,0.0,0.0,0.0,0.0,0.0,0.0,0.0,0.0,0.0,0.0,0.0,0.0,0.0,0.0,0.0,0.0,0.0,0.0,0.0,0.0,0.0,0.0,0.0,0.0,0.0,0.0,0.0,0.0,0.0,0.0,0.0,0.0,0.0,0.0,0.0,0.0,0.0,0.0,0.0,0.0,0.0,0.0,0.0,0.0,0.0,0.0,0.0,0.0,0.0,0.0,0.0,0.0,0.0,0.0,0.0,0.0,0.0,0.0,0.0,0.0,0.0,0.0,0.0,0.0,0.0,0.0,0.0,0.0,0.0,0.0,0.0,0.0,0.0,0.0,0.0,0.0,0.0,0.0,0.0,0.0,-2.7988,-2.8574,-2.8574,-2.8783,-2.9035,-2.9428,0.0,0.0,0.0,0.0,0.0,0.0,0.0,0.0,0.0,0.0,0.0,0.0,0.0,0.0,0.0,0.0,0.0,0.0,0.0,0.0,0.0,0.0,0.0,0.0,0.0,0.0,0.0,0.0,0.0,0.0,0.0,0.0,0.0,0.0,0.0,0.0,0.0,0.0,0.0,0.0,0.0,0.0,0.0,0.0,0.0,0.0,0.0,0.0,0.0,0.0,0.0,0.0,0.0,0.0,0.0,0.0,0.0,0.0,0.0,0.0,0.0,0.0,0.0,0.0,0.0,0.0,0.0,0.0,0.0,0.0,0.0,0.0,0.0,0.0,0.0,0.0,0.0,0.0,0.0,0.0,0.0,0.0,0.0,0.0,0.0,0.0,0.0,0.0,0.0,0.0,0.0,0.0,0.0,0.0,0.0,0.0,0.0,0.0,0.0,0.0,0.0,0.0,0.0,0.0,0.0,0.0,0.0,0.0,-2.7879,-2.9069,-2.9704,-2.9679,-2.9922,-3.0063,0.0,0.0,0.0,0.0,0.0,0.0,0.0,0.0,0.0,0.0,0.0,0.0,0.0,0.0,0.0,0.0,0.0,0.0,0.0,0.0,0.0,0.0,0.0,0.0,0.0,0.0,0.0,0.0,0.0,0.0,0.0,0.0,0.0,0.0,0.0,0.0,0.0,0.0,0.0,0.0,0.0,0.0,0.0,0.0,0.0,0.0,0.0,0.0,0.0,0.0,0.0,0.0,0.0,0.0,0.0,0.0,0.0,0.0,0.0,0.0,0.0,0.0,0.0,0.0,0.0,0.0,0.0,0.0,0.0,0.0,0.0,0.0,0.0,0.0,0.0,0.0,0.0,0.0,0.0,0.0,0.0,0.0,0.0,0.0,0.0,0.0,0.0,0.0,0.0,0.0,0.0,0.0,0.0,0.0,0.0,0.0,0.0,0.0,0.0,0.0,0.0,0.0,0.0,0.0,0.0,0.0,0.0,0.0,0.0,-2.8323,-2.9285,-2.9869,-2.9972,-3.0037,-3.0228,0.0,0.0,0.0,0.0,0.0,0.0,0.0,0.0,0.0,0.0,0.0,0.0,0.0,0.0,0.0,0.0,0.0,0.0,0.0,0.0,0.0,0.0,0.0,0.0,0.0,0.0,0.0,0.0,0.0,0.0,0.0,0.0,0.0,0.0,0.0,0.0,0.0,0.0,0.0,0.0,0.0,0.0,0.0,0.0,0.0,0.0,0.0,0.0,0.0,0.0,0.0,0.0,0.0,0.0,0.0,0.0,0.0,0.0,0.0,0.0,0.0,0.0,0.0,0.0,0.0,0.0,0.0,0.0,0.0,0.0,0.0,0.0,0.0,0.0,0.0,0.0,0.0,0.0,0.0,0.0,0.0,0.0,0.0,0.0,0.0,0.0,0.0,0.0,0.0,0.0,0.0,0.0,0.0,0.0,0.0,0.0,0.0,0.0,0.0,0.0,0.0,0.0,0.0,0.0,0.0,0.0,0.0,0.0,0.0,-2.8907,0.0,-2.9668,-3.0011,-3.0049,-3.0267,0.0,0.0,0.0,0.0,0.0,0.0,0.0,0.0,0.0,0.0,0.0,0.0,0.0,0.0,0.0,0.0,0.0,0.0,0.0,0.0,0.0,0.0,0.0,0.0,0.0,0.0,0.0,0.0,0.0,0.0,0.0,0.0,0.0,0.0,0.0,0.0,0.0,0.0,0.0,0.0,0.0,0.0,0.0,0.0,0.0,0.0,0.0,0.0,0.0,0.0,0.0,0.0,0.0,0.0,0.0,0.0,0.0,0.0,0.0,0.0,0.0,0.0,0.0,0.0,0.0,0.0,0.0,0.0,0.0,0.0,0.0,0.0,0.0,0.0,0.0,0.0,0.0,0.0,0.0,0.0,0.0,0.0,0.0,0.0,0.0,0.0,0.0,0.0,0.0,0.0,0.0,0.0,0.0,0.0,0.0,0.0,0.0,0.0,0.0,0.0,0.0,0.0,0.0,0.0,0.0,0.0,0.0,0.0,-2.8645,-2.9689,-2.9176,-2.9176,-2.9767,-2.9972,-3.0177,0.0,0.0,0.0,0.0,0.0,0.0,0.0,0.0,0.0,0.0,0.0,0.0,0.0,0.0,0.0,0.0,0.0,0.0,0.0,0.0,0.0,0.0,0.0,0.0,0.0,0.0,0.0,0.0,0.0,0.0,0.0,0.0,0.0,0.0,0.0,0.0,0.0,0.0,0.0,0.0,0.0,0.0,0.0,0.0,0.0,0.0,0.0,0.0,0.0,0.0,0.0,0.0,0.0,0.0,0.0,0.0,0.0,0.0,0.0,0.0,0.0,0.0,0.0,0.0,0.0,0.0,0.0,0.0,0.0,0.0,0.0,0.0,0.0,0.0,0.0,0.0,0.0,0.0,0.0,0.0,0.0,0.0,0.0,0.0,0.0,0.0,0.0,0.0,0.0,0.0,0.0,0.0,0.0,0.0,0.0,0.0,0.0,0.0,0.0,0.0,0.0,0.0,0.0,0.0,0.0,0.0,0.0,0.0,0.0,-2.8459,-2.8591,-2.8763,-2.9118,-2.9431,-2.978,0.0,0.0,0.0,0.0,0.0,0.0,0.0,0.0,0.0,0.0,0.0,0.0,0.0,0.0,0.0,0.0,0.0,0.0,0.0,0.0,0.0,0.0,0.0,0.0,0.0,0.0,0.0,0.0,0.0,0.0,0.0,0.0,0.0,0.0,0.0,0.0,0.0,0.0,0.0,0.0,0.0,0.0,0.0,0.0,0.0,0.0,0.0,0.0,0.0,0.0,0.0,0.0,0.0,0.0,0.0,0.0,0.0,0.0,0.0,0.0,0.0,0.0,0.0,0.0,0.0,0.0,0.0,0.0,0.0,0.0,0.0,0.0,0.0,0.0,0.0,0.0,0.0,0.0,0.0,0.0,0.0,0.0,0.0,0.0,0.0,0.0,0.0,0.0,0.0,0.0,0.0,0.0,0.0,0.0,0.0,0.0,0.0,0.0,0.0,0.0,0.0,0.0,0.0,0.0,0.0,0.0,0.0,0.0,0.0,-2.7772,-2.8125,-2.8463,-2.8827,-2.9294,-2.9656,-2.9883,0.0,0.0,0.0,0.0,0.0,0.0,0.0,0.0,0.0,0.0,0.0,0.0,0.0,0.0,0.0,0.0,0.0,0.0,0.0,0.0,0.0,0.0,0.0,0.0,0.0,0.0,0.0,0.0,0.0,0.0,0.0,0.0,0.0,0.0,0.0,0.0,0.0,0.0,0.0,0.0,0.0,0.0,0.0,0.0,0.0,0.0,0.0,0.0,0.0,0.0,0.0,0.0,0.0,0.0,0.0,0.0,0.0,0.0,0.0,0.0,0.0,0.0,0.0,0.0,0.0,0.0,0.0,0.0,0.0,0.0,0.0,0.0,0.0,0.0,0.0,0.0,0.0,0.0,0.0,0.0,0.0,0.0,0.0,0.0,0.0,0.0,0.0,0.0,0.0,0.0,0.0,0.0,0.0,0.0,0.0,0.0,0.0,0.0,0.0,0.0,0.0,0.0,0.0,0.0,0.0,0.0,0.0,0.0,-2.7601,-2.7894,-2.828,-2.8822,-2.939,-2.9687,0.0,0.0,0.0,0.0,0.0,0.0,0.0,0.0,0.0,0.0,0.0,0.0,0.0,0.0,0.0,0.0,0.0,0.0,0.0,0.0,0.0,0.0,0.0,0.0,0.0,0.0,0.0,0.0,0.0,0.0,0.0,0.0,0.0,0.0,0.0,0.0,0.0,0.0,0.0,0.0,0.0,0.0,0.0,0.0,0.0,0.0,0.0,0.0,0.0,0.0,0.0,0.0,0.0,0.0,0.0,0.0,0.0,0.0,0.0,0.0,0.0,0.0,0.0,0.0,0.0,0.0,0.0,0.0,0.0,0.0,0.0,0.0,0.0,0.0,0.0,0.0,0.0,0.0,0.0,0.0,0.0,0.0,0.0,0.0,0.0,0.0,0.0,0.0,0.0,0.0,0.0,0.0,0.0,0.0,0.0,0.0,0.0,0.0,0.0,0.0,0.0,0.0,0.0,0.0,0.0,0.0,0.0,0.0,0.0,-2.7882,-2.8161,-2.826,-2.8239,-2.8631,-2.8845,0.0,0.0,0.0,0.0,0.0,0.0,0.0,0.0,0.0,0.0,0.0,0.0,0.0,0.0,0.0,0.0,0.0,0.0,0.0,0.0,0.0,0.0,0.0,0.0,0.0,0.0,0.0,0.0,0.0,0.0,0.0,0.0,0.0,0.0,0.0,0.0,0.0,0.0,0.0,0.0,0.0,0.0,0.0,0.0,0.0,0.0,0.0,0.0,0.0,0.0,0.0,0.0,0.0,0.0,0.0,0.0,0.0,0.0,0.0,0.0,0.0,0.0,0.0,0.0,0.0,0.0,0.0,0.0,0.0,0.0,0.0,0.0,0.0,0.0,0.0,0.0,0.0,0.0,0.0,0.0,0.0,0.0,0.0,0.0,0.0,0.0,0.0,0.0,0.0,0.0,0.0,0.0,0.0,0.0,0.0,0.0,0.0,0.0,0.0,0.0,0.0,0.0,0.0,0.0,0.0,0.0,0.0,0.0,-2.763,-2.8019,-2.8575,-2.8815,-2.8619,-2.866,-2.8736,0.0,0.0,0.0,0.0,0.0,0.0,0.0,0.0,0.0,0.0,0.0,0.0,0.0,0.0,0.0,0.0,0.0,0.0,0.0,0.0,0.0,0.0,0.0,0.0,0.0,0.0,0.0,0.0,0.0,0.0,0.0,0.0,0.0,0.0,0.0,0.0,0.0,0.0,0.0,0.0,0.0,0.0,0.0,0.0,0.0,0.0,0.0,0.0,0.0,0.0,0.0,0.0,0.0,0.0,0.0,0.0,0.0,0.0,0.0,0.0,0.0,0.0,0.0,0.0,0.0,0.0,0.0,0.0,0.0,0.0,0.0,0.0,0.0,0.0,0.0,0.0,0.0,0.0,0.0,0.0,0.0,0.0,0.0,0.0,0.0,0.0,0.0,0.0,0.0,0.0,0.0,0.0,0.0,0.0,0.0,0.0,0.0,0.0,0.0,0.0,0.0,0.0,0.0,0.0,0.0,0.0,0.0,0.0,-2.7833,-2.8131,-2.9033,-2.9558,-2.9558,-2.9172,-2.9097,0.0,0.0,0.0,0.0,0.0,0.0,0.0,0.0,0.0,0.0,0.0,0.0,0.0,0.0,0.0,0.0,0.0,0.0,0.0,0.0,0.0,0.0,0.0,0.0,0.0,0.0,0.0,0.0,0.0,0.0,0.0,0.0,0.0,0.0,0.0,0.0,0.0,0.0,0.0,0.0,0.0,0.0,0.0,0.0,0.0,0.0,0.0,0.0,0.0,0.0,0.0,0.0,0.0,0.0,0.0,0.0,0.0,0.0,0.0,0.0,0.0,0.0,0.0,0.0,0.0,0.0,0.0,0.0,0.0,0.0,0.0,0.0,0.0,0.0,0.0,0.0,0.0,0.0,0.0,0.0,0.0,0.0,0.0,0.0,0.0,0.0,0.0,0.0,0.0,0.0,0.0,0.0,0.0,0.0,0.0,0.0,0.0,0.0,0.0,0.0,0.0,0.0,0.0,0.0,0.0,0.0,0.0,0.0,-2.8066,-2.8853,-2.9269,-2.9674,-3.0035,-2.9637,-2.9387,0.0,0.0,0.0,0.0,0.0,0.0,0.0,0.0,0.0,0.0,0.0,0.0,0.0,0.0,0.0,0.0,0.0,0.0,0.0,0.0,0.0,0.0,0.0,0.0,0.0,0.0,0.0,0.0,0.0,0.0,0.0,0.0,0.0,0.0,0.0,0.0,0.0,0.0,0.0,0.0,0.0,0.0,0.0,0.0,0.0,0.0,0.0,0.0,-3.5239,0.0,0.0,0.0,0.0,0.0,0.0,0.0,0.0,0.0,0.0,0.0,0.0,0.0,0.0,0.0,0.0,0.0,0.0,0.0,0.0,0.0,0.0,0.0,0.0,0.0,0.0,0.0,0.0,0.0,0.0,0.0,0.0,0.0,0.0,0.0,0.0,0.0,0.0,0.0,0.0,0.0,0.0,0.0,0.0,0.0,0.0,0.0,0.0,0.0,0.0,0.0,0.0,0.0,0.0,0.0,0.0,0.0,0.0,0.0,-2.8477,-2.9071,-2.9807,-3.0264,-3.0493,-3.0396,-3.0195,0.0,0.0,0.0,0.0,0.0,0.0,0.0,0.0,0.0,0.0,0.0,0.0,0.0,0.0,0.0,0.0,0.0,0.0,0.0,0.0,0.0,0.0,0.0,0.0,0.0,0.0,0.0,0.0,0.0,0.0,0.0,0.0,0.0,0.0,0.0,0.0,0.0,0.0,0.0,0.0,0.0,0.0,0.0,0.0,0.0,0.0,0.0,0.0,0.0,0.0,0.0,0.0,0.0,0.0,0.0,0.0,0.0,0.0,0.0,0.0,0.0,0.0,0.0,0.0,0.0,0.0,0.0,0.0,0.0,0.0,0.0,0.0,0.0,0.0,0.0,0.0,0.0,0.0,0.0,0.0,0.0,0.0,0.0,0.0,0.0,0.0,0.0,0.0,0.0,0.0,0.0,0.0,0.0,0.0,0.0,0.0,0.0,0.0,0.0,0.0,0.0,0.0,0.0,0.0,0.0,0.0,0.0,-2.8376,-2.8923,-2.9366,-3.0362,-3.093,-3.0996,-3.1136,-3.0918,-3.0323,0.0,0.0,0.0,0.0,0.0,0.0,0.0,0.0,0.0,0.0,0.0,0.0,0.0,0.0,0.0,0.0,0.0,0.0,0.0,0.0,0.0,0.0,0.0,0.0,0.0,0.0,0.0,0.0,0.0,0.0,0.0,0.0,0.0,0.0,0.0,0.0,0.0,0.0,-3.4557,-3.4491,0.0,0.0,0.0,0.0,0.0,0.0,0.0,0.0,-3.5105,0.0,0.0,0.0,0.0,0.0,0.0,0.0,0.0,0.0,0.0,0.0,0.0,0.0,0.0,0.0,0.0,0.0,0.0,0.0,0.0,0.0,0.0,0.0,0.0,0.0,0.0,0.0,0.0,0.0,0.0,0.0,0.0,0.0,0.0,0.0,0.0,0.0,0.0,0.0,0.0,0.0,0.0,0.0,0.0,0.0,0.0,0.0,0.0,0.0,0.0,0.0,0.0,0.0,0.0,0.0,0.0,-2.85,-2.8634,-2.9309,-3.0592,-3.0777,-3.1083,-3.1465,-3.0932,-3.0692,-3.0734,0.0,0.0,0.0,0.0,0.0,0.0,0.0,0.0,0.0,0.0,0.0,0.0,0.0,0.0,0.0,0.0,0.0,0.0,0.0,0.0,0.0,0.0,0.0,0.0,0.0,0.0,0.0,0.0,0.0,0.0,0.0,0.0,0.0,0.0,0.0,0.0,0.0,0.0,0.0,-3.4824,-3.469,0.0,0.0,0.0,0.0,0.0,0.0,0.0,0.0,-3.5682,0.0,0.0,0.0,0.0,0.0,0.0,0.0,0.0,0.0,0.0,0.0,0.0,0.0,0.0,0.0,0.0,0.0,0.0,0.0,0.0,0.0,0.0,0.0,0.0,0.0,0.0,0.0,0.0,0.0,0.0,0.0,0.0,0.0,0.0,0.0,0.0,0.0,0.0,0.0,0.0,0.0,0.0,0.0,0.0,0.0,0.0,0.0,0.0,0.0,0.0,0.0,0.0,0.0,0.0,0.0,-2.869,-2.9289,-3.0017,-3.0854,-3.1138,-3.1378,-3.1597,-3.1152,-3.0914,0.0,0.0,0.0,0.0,0.0,0.0,0.0,0.0,0.0,0.0,0.0,0.0,0.0,0.0,0.0,0.0,0.0,0.0,0.0,0.0,0.0,0.0,0.0,0.0,0.0,0.0,0.0,0.0,0.0,0.0,0.0,0.0,0.0,0.0,0.0,0.0,0.0,0.0,0.0,0.0,-3.5265,-3.5334,-3.6154,0.0,0.0,0.0,0.0,0.0,0.0,-3.6096,-3.5947,0.0,0.0,0.0,0.0,0.0,0.0,0.0,0.0,0.0,0.0,0.0,0.0,0.0,0.0,0.0,0.0,0.0,0.0,0.0,0.0,0.0,0.0,0.0,0.0,0.0,0.0,0.0,0.0,0.0,0.0,0.0,0.0,0.0,0.0,0.0,0.0,0.0,0.0,0.0,0.0,0.0,0.0,0.0,0.0,0.0,0.0,0.0,0.0,0.0,0.0,0.0,0.0,0.0,0.0,0.0,-2.8835,-2.9939,-3.0679,-3.1029,-3.1422,-3.1567,-3.1556,-3.1285,-3.1034,0.0,0.0,0.0,0.0,0.0,0.0,0.0,0.0,0.0,0.0,0.0,0.0,0.0,0.0,0.0,0.0,0.0,0.0,0.0,0.0,0.0,0.0,0.0,0.0,0.0,0.0,0.0,0.0,0.0,0.0,0.0,0.0,0.0,0.0,0.0,0.0,0.0,0.0,0.0,0.0,0.0,-3.5966,-3.6924,-3.622,0.0,0.0,0.0,0.0,-3.6614,-3.6905,0.0,0.0,0.0,0.0,0.0,0.0,0.0,0.0,0.0,0.0,0.0,0.0,0.0,0.0,0.0,0.0,0.0,0.0,0.0,0.0,0.0,0.0,0.0,0.0,0.0,0.0,0.0,0.0,0.0,0.0,0.0,0.0,0.0,0.0,0.0,0.0,0.0,0.0,0.0,0.0,0.0,0.0,0.0,0.0,0.0,0.0,0.0,0.0,0.0,0.0,0.0,0.0,0.0,0.0,0.0,0.0,-2.9315,-3.0127,-3.0833,-3.1487,-3.1534,-3.1567,-3.1556,-3.0781,-3.0536,0.0,0.0,0.0,0.0,0.0,0.0,0.0,0.0,0.0,0.0,0.0,0.0,0.0,0.0,0.0,0.0,0.0,0.0,0.0,0.0,0.0,0.0,0.0,0.0,0.0,0.0,0.0,0.0,0.0,0.0,0.0,0.0,0.0,0.0,0.0,0.0,0.0,0.0,0.0,0.0,0.0,-3.6111,-3.7514,-3.6472,-3.5999,0.0,0.0,-3.8355,-3.8898,-4.0002,0.0,0.0,0.0,0.0,0.0,0.0,0.0,0.0,0.0,0.0,0.0,0.0,0.0,0.0,0.0,0.0,0.0,0.0,0.0,0.0,0.0,0.0,0.0,0.0,0.0,0.0,0.0,0.0,0.0,0.0,0.0,0.0,0.0,0.0,0.0,0.0,0.0,0.0,0.0,0.0,0.0,0.0,0.0,0.0,0.0,0.0,0.0,0.0,0.0,0.0,0.0,0.0,0.0,0.0,0.0,-2.9262,-2.984,-3.0689,-3.1265,-3.1607,-3.1567,-3.1567,-3.1567,-3.0936,-3.0715,0.0,0.0,0.0,0.0,0.0,0.0,0.0,0.0,0.0,0.0,0.0,0.0,0.0,0.0,0.0,0.0,0.0,0.0,0.0,0.0,0.0,0.0,0.0,0.0,0.0,0.0,0.0,0.0,0.0,0.0,0.0,0.0,0.0,0.0,0.0,0.0,0.0,0.0,0.0,0.0,0.0,0.0,-3.8553,-3.7658,0.0,0.0,0.0,-3.8637,-3.8983,0.0,0.0,0.0,0.0,0.0,0.0,0.0,0.0,0.0,0.0,0.0,0.0,0.0,0.0,0.0,0.0,0.0,0.0,0.0,0.0,0.0,0.0,0.0,0.0,0.0,0.0,0.0,0.0,0.0,0.0,0.0,0.0,0.0,0.0,0.0,0.0,0.0,0.0,0.0,0.0,0.0,0.0,0.0,0.0,0.0,0.0,0.0,0.0,0.0,0.0,0.0,0.0,0.0,0.0,0.0,0.0,0.0,-3.02,-3.1147,-3.1567,-3.1567,-3.1567,-3.1567,-3.1607,-3.1219,0.0,0.0,0.0,0.0,0.0,0.0,0.0,0.0,0.0,0.0,0.0,0.0,0.0,0.0,0.0,0.0,0.0,0.0,0.0,0.0,0.0,0.0,0.0,0.0,0.0,0.0,0.0,-3.3764,0.0,0.0,0.0,0.0,0.0,0.0,0.0,0.0,0.0,0.0,0.0,0.0,0.0,0.0,-3.8318,-3.9104,-3.8528,-3.8643,0.0,0.0,-3.9335,-3.9956,-4.1587,-4.1846,0.0,0.0,0.0,0.0,0.0,0.0,0.0,0.0,0.0,0.0,0.0,0.0,0.0,0.0,0.0,0.0,0.0,0.0,0.0,0.0,0.0,0.0,0.0,0.0,0.0,0.0,0.0,0.0,0.0,0.0,0.0,0.0,0.0,0.0,0.0,0.0,0.0,0.0,0.0,0.0,0.0,0.0,0.0,0.0,0.0,0.0,0.0,0.0,0.0,0.0,0.0,0.0,0.0,0.0,0.0,-3.0234,-3.1136,-3.1567,-3.1567,-3.1567,-3.1567,-3.1567,-3.1389,-3.1162,0.0,0.0,0.0,0.0,0.0,0.0,0.0,0.0,0.0,0.0,0.0,0.0,0.0,0.0,0.0,0.0,0.0,0.0,0.0,0.0,0.0,0.0,0.0,0.0,0.0,0.0,0.0,0.0,0.0,0.0,0.0,0.0,0.0,0.0,0.0,0.0,0.0,0.0,0.0,0.0,0.0,-3.8612,-3.8724,-3.8626,-3.9459,0.0,0.0,-4.1441,-4.3232,-4.4707,-4.4669,-4.1903,0.0,0.0,0.0,0.0,0.0,0.0,0.0,0.0,0.0,0.0,0.0,0.0,0.0,0.0,0.0,0.0,0.0,0.0,0.0,0.0,0.0,0.0,0.0,0.0,0.0,0.0,0.0,0.0,0.0,0.0,0.0,0.0,0.0,0.0,0.0,0.0,0.0,0.0,0.0,0.0,0.0,0.0,0.0,0.0,0.0,0.0,0.0,0.0,0.0,0.0,0.0,0.0,0.0,-3.0334,-3.0659,-3.124,-3.1567,-3.1567,-3.1567,-3.1567,-3.1567,-3.1372,-3.1184,0.0,0.0,0.0,0.0,0.0,0.0,0.0,0.0,0.0,0.0,0.0,0.0,0.0,0.0,0.0,0.0,0.0,0.0,0.0,0.0,0.0,0.0,0.0,0.0,0.0,0.0,0.0,0.0,-3.6052,-3.6167,-3.5656,0.0,0.0,0.0,0.0,0.0,0.0,0.0,0.0,0.0,0.0,-3.9696,-4.1192,-4.0836,0.0,0.0,-4.2787,-4.2437,-4.3034,-4.4093,-4.391,-4.1173,-4.0691,0.0,0.0,0.0,0.0,0.0,0.0,0.0,0.0,0.0,0.0,0.0,0.0,0.0,0.0,0.0,0.0,0.0,0.0,0.0,0.0,0.0,0.0,0.0,0.0,0.0,0.0,0.0,0.0,0.0,0.0,0.0,0.0,0.0,0.0,0.0,0.0,0.0,0.0,0.0,0.0,0.0,0.0,0.0,0.0,0.0,0.0,0.0,0.0,0.0,0.0,0.0,0.0,-3.058,-3.089,-3.1339,-3.1567,-3.1567,-3.1567,-3.1567,-3.1567,-3.1453,-3.1257,0.0,0.0,0.0,0.0,0.0,0.0,0.0,0.0,0.0,0.0,0.0,0.0,0.0,0.0,0.0,0.0,0.0,0.0,0.0,0.0,0.0,0.0,0.0,0.0,0.0,0.0,0.0,0.0,-3.6316,-3.6654,-3.5947,0.0,0.0,0.0,0.0,0.0,0.0,0.0,0.0,0.0,0.0,-4.08,-4.1943,-4.176,-4.1957,-4.3299,-4.2806,-4.2334,-4.2575,-4.3208,-4.3053,-4.1153,0.0,0.0,0.0,0.0,0.0,0.0,0.0,0.0,0.0,0.0,0.0,0.0,0.0,0.0,0.0,0.0,0.0,0.0,0.0,0.0,0.0,0.0,0.0,0.0,0.0,0.0,0.0,0.0,0.0,0.0,-2.5895,0.0,0.0,0.0,0.0,0.0,0.0,0.0,0.0,0.0,0.0,0.0,0.0,0.0,0.0,0.0,0.0,0.0,0.0,0.0,0.0,0.0,0.0,-3.0868,-3.089,-3.1339,-3.1567,-3.1567,-3.1567,-3.1567,-3.1567,-3.1607,-3.149,-3.1268,0.0,0.0,0.0,0.0,0.0,0.0,0.0,0.0,0.0,0.0,0.0,0.0,0.0,0.0,0.0,0.0,0.0,0.0,0.0,0.0,0.0,0.0,0.0,0.0,0.0,0.0,-3.4007,-3.5641,-3.6771,0.0,0.0,0.0,0.0,0.0,0.0,0.0,0.0,0.0,0.0,-4.0626,-4.1723,-4.0235,-4.084,-4.1622,-4.1906,-4.1245,-4.1128,-4.2399,-4.2632,-4.2618,0.0,0.0,0.0,0.0,0.0,0.0,0.0,0.0,0.0,0.0,0.0,0.0,0.0,0.0,0.0,0.0,0.0,0.0,0.0,0.0,0.0,0.0,0.0,0.0,0.0,0.0,0.0,-2.6344,-2.6387,0.0,0.0,0.0,0.0,0.0,0.0,0.0,0.0,0.0,0.0,0.0,-2.8743,-2.9035,0.0,0.0,0.0,0.0,0.0,0.0,0.0,0.0,0.0,0.0,0.0,0.0,-3.089,-3.0935,-3.1339,-3.1567,-3.1567,-3.1567,-3.1567,-3.1567,-3.1567,-3.1501,-3.1291,0.0,0.0,0.0,0.0,0.0,0.0,0.0,0.0,0.0,0.0,0.0,0.0,0.0,0.0,0.0,0.0,0.0,0.0,0.0,0.0,0.0,0.0,0.0,0.0,0.0,-3.5581,0.0,0.0,0.0,0.0,0.0,0.0,0.0,0.0,0.0,0.0,0.0,-3.9488,-3.9874,-4.0339,-4.077,-4.1092,-4.1498,-4.208,0.0,0.0,0.0,0.0,0.0,0.0,0.0,0.0,0.0,0.0,0.0,0.0,0.0,0.0,-4.1102,-3.9885,-4.0154,-4.0801,-4.1502,0.0,0.0,0.0,0.0,0.0,0.0,0.0,0.0,0.0,0.0,0.0,0.0,0.0,0.0,0.0,0.0,-2.6802,0.0,0.0,0.0,0.0,0.0,0.0,0.0,0.0,-2.8732,-2.9194,-2.959,-2.9908,-3.0164,0.0,-3.044,-3.0047,0.0,0.0,0.0,0.0,0.0,0.0,0.0,0.0,-3.089,-3.0923,-3.14,-3.1567,-3.1567,-3.1567,-3.1567,-3.1567,-3.1567,-3.1527,-3.1433,-3.1157,-3.099,0.0,0.0,0.0,0.0,0.0,0.0,0.0,0.0,0.0,0.0,0.0,0.0,0.0,0.0,0.0,0.0,0.0,0.0,0.0,0.0,0.0,0.0,0.0,-3.6288,0.0,0.0,0.0,0.0,0.0,0.0,0.0,0.0,0.0,-3.9514,-3.9734,-4.0094,-4.0596,-4.092,-4.1105,-4.1228,0.0,0.0,0.0,0.0,0.0,0.0,0.0,-4.088,-4.0481,-4.0976,-4.164,-4.2628,-4.3062,-4.3392,-4.3786,0.0,0.0,-4.2113,-4.2259,-4.2831,-4.3285,-4.3031,-4.3048,-4.405,-4.3984,-4.4018,0.0,0.0,0.0,0.0,0.0,0.0,0.0,0.0,-2.7392,-2.725,0.0,-2.7305,0.0,0.0,0.0,0.0,0.0,-2.7634,0.0,0.0,-3.0119,-3.0734,-3.0541,-3.1059,-3.1291,-3.1268,-3.1023,-3.0923,-3.0901,-3.0912,0.0,0.0,0.0,0.0,0.0,0.0,-3.0901,-3.0946,-3.135,-3.1567,-3.1578,-3.1651,-3.1611,-3.1644,-3.1684,-3.1684,-3.1651,-3.146,-3.1346,-3.1313,-3.09,0.0,0.0,0.0,0.0,0.0,0.0,0.0,0.0,0.0,0.0,0.0,0.0,0.0,0.0,0.0,0.0,0.0,0.0,0.0,0.0,-3.618,0.0,0.0,0.0,0.0,0.0,0.0,0.0,0.0,0.0,0.0,-3.966,-4.0227,-4.0683,-4.0669,0.0,0.0,0.0,0.0,-4.1781,-3.9799,-3.9417,-3.9489,-3.9601,-4.0422,-4.1449,-4.25,0.0,0.0,-4.5985,-4.5273,-4.4672,-4.4654,-4.5552,-4.5938,-4.5196,-4.4812,-4.469,-4.4918,-4.484,-4.4747,-4.4975,-4.5256,-4.5303,-2.738,0.0,0.0,0.0,0.0,-2.7445,-2.7905,-2.841,-2.8713,-2.8825,-2.8751,-2.8847,0.0,0.0,0.0,0.0,0.0,0.0,-2.8453,-2.9261,-2.9881,-3.051,-3.1265,-3.1407,-3.1534,-3.1512,-3.1431,-3.1366,-3.1427,-3.1416,-3.1118,-3.0612,0.0,0.0,0.0,0.0,-3.1009,-3.118,-3.1475,-3.1567,-3.1578,-3.1979,-3.2328,-3.2634,-3.2645,-3.2645,-3.2656,-3.263,-3.2493,-3.2307,-3.2183,0.0,0.0,0.0,0.0,0.0,0.0,0.0,0.0,0.0,0.0,0.0,0.0,0.0,0.0,0.0,0.0,0.0,0.0,0.0,-3.6109,-3.7671,-3.8487,0.0,0.0,0.0,0.0,0.0,0.0,0.0,0.0,0.0,-4.1087,-4.0502,-3.9999,0.0,0.0,-4.0006,-3.9339,-4.0501,-4.148,-4.1639,-4.1639,0.0,0.0,-4.309,-4.3041,-4.3828,-4.5022,-4.5899,-4.6071,-4.6516,-4.6987,-4.7419,-4.7759,-4.8009,-4.8254,-4.7495,-4.6947,-4.698,-4.7264,-4.7505,-4.7596,-4.7961,-4.8326,-2.844,-2.8145,-2.7763,-2.7719,-2.7927,-2.8407,-2.8888,-2.9394,-2.9652,-2.9711,-2.9643,-2.9744,-2.9496,-2.9024,-2.8635,0.0,0.0,0.0,-2.8848,-2.9773,-2.9917,-3.0428,-3.1313,-3.148,-3.1567,-3.1567,-3.1567,-3.1567,-3.1567,-3.1545,-3.1257,-3.0889,0.0,0.0,-3.0728,-3.0935,-3.1129,-3.1291,-3.1688,-3.1924,-3.1935,-3.2405,-3.284,-3.3113,-3.3124,-3.3124,-3.3124,-3.3124,-3.3035,-3.2845,-3.2752,-3.2563,0.0,0.0,0.0,0.0,0.0,0.0,0.0,0.0,0.0,0.0,0.0,-3.3481,-3.2926,0.0,0.0,0.0,-3.7144,-3.7678,-3.8116,-3.9004,0.0,0.0,0.0,0.0,0.0,0.0,0.0,-3.8724,-4.0155,-4.1374,-4.1608,-4.1155,-4.0836,-4.1036,-4.1054,-4.0873,-4.0415,0.0,-4.2455,-4.291,-4.2953,-4.3412,-4.4723,-4.4688,-4.4886,-4.5987,-4.668,-4.7242,-4.7549,-4.8133,-4.8653,-4.8986,-4.9103,-4.9219,-4.9659,-4.9078,-4.8522,-4.8537,-4.8841,-4.9088,-4.9103,-4.9407,-4.9732,-2.9543,-2.9467,-2.8626,-2.8506,-2.8957,-2.939,-2.9849,-3.0264,-3.0308,-3.0176,-2.9936,-3.0171,-3.0046,-2.9537,-2.9305,0.0,-2.9521,-2.9121,-2.9416,-3.0264,-3.0264,-3.0515,-3.0963,-3.1422,-3.1567,-3.1567,-3.1567,-3.1567,-3.1607,-3.1405,-3.1302,-3.1329,-3.1324,-3.1207,-3.0935,-3.1173,-3.1351,-3.1396,-3.2068,-3.2468,-3.2503,-3.2907,-3.3201,-3.3191,-3.318,-3.3245,-3.3234,-3.3245,-3.3234,-3.3287,-3.3071,-3.3161,-3.3669,0.0,0.0,0.0,0.0,0.0,0.0,0.0,0.0,0.0,0.0,0.0,0.0,0.0,0.0,0.0,-3.9261,0.0,-4.0629,-4.0061,0.0,0.0,0.0,-4.0026,-4.0422,-4.0717,-4.0844,-4.0803,0.0,0.0,-4.1737,-4.2074,-4.2705,-4.3578,-4.3896,-4.3686,-4.2772,-4.3525,-4.4146,-4.3895,-4.3864,-4.4089,-4.5052,-4.5859,-4.6932,-4.8335,-4.875,-4.8909,-4.9422,-4.9582,-4.9688,-4.9688,-4.9732,-4.9732,-4.9732,-4.9625,-4.9732,-4.9674,-4.9688,-4.9669,-4.9688,-4.9669,-4.9732,-3.0035,-3.0046,-3.0166,-3.0078,-2.9904,-3.0362,-3.0624,-3.0766,-3.1127,-3.1214,-3.1177,-3.1236,-3.1002,-3.0531,-3.0482,-3.0302,-3.0035,-2.9915,-3.0188,-3.0723,-3.0734,-3.0985,-3.1444,-3.1564,-3.1567,-3.1567,-3.1567,-3.1567,-3.1567,-3.156,-3.1471,-3.1313,-3.1633,-3.1529,-3.0935,-3.137,-3.1656,-3.1832,-3.2428,-3.2944,-3.3442,-3.3562,-3.3792,-3.4174,-3.4174,-3.4174,-3.4174,-3.4174,-3.4384,-3.4812,-3.481,-3.4772,-3.4809,-3.412,0.0,0.0,0.0,0.0,0.0,0.0,0.0,0.0,0.0,-3.5368,-3.4931,0.0,-3.7455,0.0,-3.9827,-4.1031,-4.0816,-4.101,0.0,0.0,-4.0682,-4.0608,-4.091,-4.171,-4.2038,-4.1571,-4.2435,-4.3171,-4.3503,-4.3638,-4.4105,-4.5113,-4.3783,-4.2747,-4.3024,-4.4163,-4.5127,-4.5492,-4.6196,-4.6976,-4.7553,-4.8326,-4.8934,-4.9393,-4.9436,-4.9509,-4.9703,-4.9732,-4.9732,-4.9732,-4.9732,-4.9732,-4.9732,-4.9732,-4.9732,-4.9732,-4.9732,-4.9732,-4.9732,-4.9732,-4.9732,-3.0515,-3.0559,-3.1029,-3.1072,-3.0865,-3.1116,-3.1214,-3.1247,-3.1509,-3.1567,-3.1567,-3.1567,-3.1476,-3.1214,-3.1214,-3.1083,-3.0832,-3.0614,-3.0657,-3.0898,-3.0908,-3.104,-3.1302,-3.152,-3.1567,-3.1567,-3.1567,-3.1567,-3.1589,-3.1848,-3.1888,-3.1801,-3.224,-3.2251,-3.1734,-3.1956,-3.2135,-3.2263,-3.2808,-3.3426,-3.4087,-3.4119,-3.4196,-3.4362,-3.4362,-3.4318,-3.4218,-3.4382,-3.4468,-3.4728,-3.4741,-3.5001,-3.5465,-3.464,-3.4457,0.0,0.0,0.0,0.0,0.0,0.0,0.0,0.0,0.0,0.0,0.0,-3.8819,-3.8865,-4.0528,-4.1367,-4.0827,-4.1051,-4.1356,-4.177,-4.171,-4.1852,-4.2466,-4.311,-4.332,-4.3,-4.3698,-4.4322,-4.4564,-4.4791,-4.5261,-4.6169,-4.5106,-4.4368,-4.4798,-4.5705,-4.6555,-4.7189,-4.7782,-4.842,-4.9059,-4.9436,-4.9732,-4.9732,-4.9732,-4.9732,-4.9732,-4.9732,-4.9732,-4.9732,-4.9732,-4.9732,-4.9732,-4.9732,-4.9732,-4.9732,-4.9732,-4.9732,-4.9732,-4.9732,-4.9732,-3.0985,-3.1029,-3.1444,-3.1567,-3.1567,-3.1567,-3.1567,-3.1567,-3.1567,-3.1567,-3.1567,-3.1567,-3.1567,-3.1567,-3.1567,-3.1567,-3.1545,-3.1181,-3.0985,-3.0985,-3.0985,-3.0985,-3.1007,-3.1433,-3.1567,-3.1578,-3.1695,-3.1717,-3.1738,-3.223,-3.2501,-3.2457,-3.2895,-3.3032,-3.2756,-3.271,-3.2684,-3.2695,-3.3301,-3.3866,-3.4459,-3.4426,-3.4351,-3.4204,-3.4236,-3.4144,-3.4019,-3.4249,-3.4302,-3.4133,-3.4194,-3.4827,-3.6093,-3.5149,-3.5366,0.0,-3.6926,0.0,0.0,0.0,0.0,0.0,0.0,0.0,0.0,-3.984,-4.0468,-4.0535,-4.1179,-4.1443,-4.1012,-4.0985,-4.1456,-4.2651,-4.2799,-4.3221,-4.4247,-4.4457,-4.4504,-4.4504,-4.4894,-4.523,-4.533,-4.5724,-4.6243,-4.6824,-4.6966,-4.6874,-4.7068,-4.7474,-4.8025,-4.8754,-4.8841,-4.903,-4.9494,-4.9717,-4.9732,-4.9732,-4.9732,-4.9732,-4.9732,-4.9732,-4.9732,-4.9732,-4.9732,-4.9732,-4.9732,-4.9732,-4.9732,-4.9732,-4.9732,-4.9732,-4.9732,-4.9732,-4.9732,-3.1436,-3.1487,-3.1586,-3.1567,-3.1567,-3.1567,-3.1567,-3.1567,-3.1567,-3.1567,-3.1567,-3.1567,-3.1567,-3.1567,-3.1567,-3.1567,-3.1567,-3.1531,-3.1487,-3.1476,-3.1487,-3.1487,-3.1487,-3.1586,-3.1567,-3.1589,-3.2033,-3.2241,-3.2252,-3.2711,-3.2838,-3.2674,-3.316,-3.3318,-3.306,0.0,0.0,0.0,-3.3903,-3.4118,-3.4229,-3.4092,-3.4115,-3.4279,-3.4279,0.0,-3.4564,-3.4617,-3.4826,-3.5253,-3.5628,0.0,0.0,0.0,0.0,0.0,0.0,0.0,0.0,0.0,0.0,0.0,-3.9973,-3.996,-4.0066,-4.028,-4.0662,-4.1321,-4.1516,-4.1841,-4.2411,-4.25,-4.2705,-4.3312,-4.3421,-4.3679,-4.4303,-4.4723,-4.4986,-4.4986,-4.5413,-4.5933,-4.635,-4.6558,-4.6896,-4.7506,-4.8029,-4.8348,-4.8348,-4.8464,-4.8783,-4.9364,-4.9451,-4.9509,-4.9654,-4.9732,-4.9732,-4.9732,-4.9732,-4.9732,-4.9732,-4.9732,-4.9732,-4.9732,-4.9732,-4.9732,-4.9732,-4.9732,-4.9732,-4.9732,-4.9732,-4.9732,-4.9732,-4.9732,-4.9732,-3.1567,0.0,-3.1567,-3.1567,0.0,-3.1567,-3.1567,-3.1567,-3.1567,-3.1567,-3.1567,-3.1567,-3.1567,-3.1567,-3.1567,-3.1567,-3.1567,-3.1567,-3.1567,-3.1567,-3.1567,-3.1567,-3.1567,-3.1567,-3.1709,-3.2001,-3.2263,-3.2503,-3.2785,-3.3202,-3.3354,-3.322,-3.3779,-3.3943,-3.3798,-3.4041,-3.416,-3.4024,-3.4149,-3.4382,-3.4767,-3.4653,-3.4806,-3.5099,0.0,0.0,0.0,0.0,0.0,0.0,0.0,0.0,0.0,0.0,0.0,-3.9939,-3.9826,-3.9917,-4.0529,-4.0556,-4.088,-4.157,-4.1645,-4.1463,-4.1025,-4.1375,-4.1814,-4.2179,-4.222,-4.2486,-4.3156,-4.3245,-4.3533,-4.4228,-4.4369,-4.4555,-4.506,-4.5336,-4.5504,-4.5547,-4.602,-4.649,-4.6749,-4.7114,-4.755,-4.8145,-4.8508,-4.8841,-4.9117,-4.9204,-4.9335,-4.9674,-4.9732,-4.9732,-4.9732,-4.9732,-4.9732,-4.9732,-4.9732,-4.9732,-4.9732,-4.9732,-4.9732,-4.9732,-4.9732,-4.9732,-4.9732,-4.9732,-4.9732,-4.9732,-4.9732,-4.9732,-4.9732,-4.9732,-4.9732,-3.1567,-3.1567,-3.1567,-3.1567,-3.1567,-3.1567,-3.1567,-3.1567,0.0,0.0,0.0,-3.1567,-3.1567,-3.1567,-3.1567,-3.1567,-3.1567,-3.1567,-3.1567,-3.1567,-3.1567,-3.1662,-3.176,-3.176,-3.2022,-3.2503,-3.2601,-3.2831,-3.3267,-3.3683,-3.3934,-3.3967,-3.4327,-3.4468,-3.4468,-3.4468,-3.4493,-3.4415,-3.437,-3.4688,-3.5342,-3.5384,-3.558,-3.5911,-3.5911,-3.591,-3.5951,-3.6183,-3.6589,-3.7194,-3.7306,-3.8036,-3.9384,-3.9354,-3.9732,-4.0742,-4.083,-4.1152,-4.18,-4.1841,-4.2152,-4.286,-4.29,-4.2622,-4.1881,-4.2506,-4.29,-4.29,-4.29,-4.3053,-4.3553,-4.3614,-4.4026,-4.4972,-4.5124,-4.5307,-4.579,-4.588,-4.5938,-4.6084,-4.6473,-4.6894,-4.7155,-4.7651,-4.8188,-4.874,-4.8928,-4.9045,-4.9538,-4.964,-4.9688,-4.9732,-4.9732,-4.9732,-4.9732,-4.9732,-4.9732,-4.9732,-4.9732,-4.9732,-4.9732,-4.9732,-4.9732,-4.9732,-4.9732,-4.9732,-4.9732,-4.9732,-4.9732,-4.9732,-4.9732,-4.9732,-4.9732,-4.9815,-4.9863,-3.1567,-3.1567,-3.1567,-3.1567,-3.1567,-3.1567,-3.1567,-3.1567,-3.1567,-3.1567,-3.1567,-3.1567,-3.1567,-3.1567,-3.1567,-3.1567,-3.1567,-3.1567,-3.1567,0.0,-3.1567,-3.1859,-3.2263,-3.2285,-3.2525,-3.3026,-3.3388,-3.3628,-3.3737,-3.4185,-3.4425,-3.4425,-3.4435,-3.4524,-3.4468,-3.4468,-3.4758,-3.5222,-3.5091,-3.5018,-3.514,-3.5398,-3.5716,-3.5955,-3.6019,-3.6432,-3.7294,-3.7356,-3.7742,-3.8566,-3.8988,-3.9655,-4.0606,-4.0986,-4.1597,-4.2465,-4.2546,-4.2622,-4.2689,-4.2703,-4.2792,-4.2873,-4.29,-4.2846,-4.273,-4.2846,-4.29,-4.29,-4.29,-4.3067,-4.3519,-4.3614,-4.4026,-4.494,-4.5124,-4.5307,-4.585,-4.5909,-4.6113,-4.6592,-4.672,-4.7271,-4.8174,-4.8508,-4.8812,-4.9364,-4.9436,-4.9567,-4.9688,-4.9732,-4.9732,-4.9732,-4.9732,-4.9732,-4.9732,-4.9732,-4.9732,-4.9732,-4.9732,-4.9732,-4.9732,-4.9732,-4.9732,-4.9732,-4.9732,-4.9732,-4.9732,-4.9732,-4.9732,-4.9732,-4.9732,-4.9732,-4.9781,-5.0235,-5.0427,-3.1567,-3.1567,-3.1567,-3.1567,-3.1567,-3.1567,-3.1567,-3.1567,-3.1567,-3.1567,-3.1567,-3.1567,-3.1567,-3.1567,-3.1567,-3.1567,-3.1567,-3.1567,-3.1567,-3.1589,-3.1913,-3.2154,-3.2394,-3.2645,-3.3005,-3.3464,-3.3683,-3.3934,-3.4185,-3.4425,-3.468,-3.4947,-3.5002,-3.5002,-3.5002,-3.5002,-3.5279,-3.5872,-3.5493,-3.5543,-3.6179,-3.6343,-3.6637,-3.7056,-3.7108,-3.7512,-3.8424,-3.8475,-3.9083,-4.0353,-4.0648,-4.1121,-4.1922,-4.2178,-4.2479,-4.2873,-4.29,-4.29,-4.29,-4.29,-4.29,-4.29,-4.29,-4.29,-4.29,-4.29,-4.29,-4.29,-4.29,-4.3115,-4.3553,-4.3865,-4.4336,-4.5032,-4.5367,-4.5654,-4.5879,-4.6214,-4.6519,-4.6792,-4.7401,-4.8087,-4.8605,-4.903,-4.9306,-4.964,-4.9732,-4.9732,-4.9732,-4.9732,-4.9732,-4.9732,-4.9732,-4.9732,-4.9732,-4.9732,-4.9732,-4.9732,-4.9732,-4.9732,-4.9732,-4.9732,-4.9732,-4.9732,-4.9732,-4.9732,-4.9732,-4.9732,-4.9732,-4.9732,-4.9732,-4.9815,-5.0235,-5.0887,-5.1201,-3.1567,-3.1567,-3.1567,-3.1567,-3.1567,-3.1567,-3.1567,-3.1567,-3.1567,-3.1567,-3.1567,-3.1567,-3.1567,-3.1567,-3.1567,-3.1567,-3.1567,-3.1567,-3.1684,-3.1826,-3.2197,-3.2492,-3.2711,-3.3135,-3.3486,-3.3912,-3.3967,-3.4207,-3.4647,-3.4691,-3.5013,-3.5543,-3.5477,-3.5477,-3.5598,-3.5598,-3.5872,-3.6429,-3.6036,-3.62,-3.7078,-3.7239,-3.7601,-3.8238,-3.8238,-3.8764,-3.9686,-3.9789,-4.0453,-4.1845,-4.1993,-4.2239,-4.2852,-4.29,-4.29,-4.29,-4.29,-4.29,-4.29,-4.29,-4.29,-4.29,-4.29,-4.29,-4.29,-4.29,-4.29,-4.29,-4.29,-4.3115,-4.3709,-4.4115,-4.463,-4.5216,-4.564,-4.5967,-4.6127,-4.6488,-4.6937,-4.7227,-4.8145,-4.874,-4.8986,-4.9364,-4.964,-4.9717,-4.9732,-4.9732,-4.9732,-4.9732,-4.9732,-4.9732,-4.9732,-4.9732,-4.9732,-4.9732,-4.9732,-4.9732,-4.9732,-4.9732,-4.9732,-4.9732,-4.9732,-4.9732,-4.9732,-4.9732,-4.9732,-4.9732,-4.9732,-4.9732,-4.9732,-5.0009,-5.0887,-5.1619,-5.2124,-3.1567,-3.1567,-3.1567,-3.1567,-3.1567,-3.1567,-3.1567,-3.1567,-3.1567,-3.1567,-3.1567,-3.1567,-3.1567,-3.1567,-3.1567,-3.1567,-3.1578,-3.1578,-3.187,-3.2274,-3.2361,-3.2831,-3.3573,-3.3704,-3.3977,-3.4392,-3.4425,-3.4759,-3.5312,-3.5323,-3.5609,-3.6102,-3.5653,-3.5708,-3.6157,-3.6211,-3.6483,-3.7024,-3.697,-3.697,-3.712,-3.7613,-3.8291,-3.9052,-3.9065,-3.984,-4.1285,-4.1484,-4.1845,-4.2693,-4.279,-4.279,-4.2887,-4.29,-4.29,-4.29,-4.29,-4.29,-4.29,-4.29,-4.29,-4.29,-4.29,-4.29,-4.29,-4.29,-4.29,-4.2935,-4.2935,-4.3307,-4.4162,-4.4364,-4.4783,-4.5564,-4.5879,-4.6098,-4.6606,-4.6749,-4.7259,-4.8387,-4.859,-4.8943,-4.9422,-4.9674,-4.9732,-4.9732,-4.9732,-4.9732,-4.9732,-4.9732,-4.9732,-4.9732,-4.9732,-4.9732,-4.9732,-4.9732,-4.9732,-4.9732,-4.9732,-4.9732,-4.9732,-4.9732,-4.9732,-4.9732,-4.9732,-4.9732,-4.9732,-4.9732,-4.9732,-4.9781,-4.9863,-5.0172,-5.1419,-5.2396,-5.2831,-3.1567,-3.1567,-3.1567,-3.1567,-3.1567,-3.1567,-3.1567,-3.1567,-3.1567,-3.1567,-3.1567,-3.1567,-3.1567,-3.1567,-3.1567,-3.1567,-3.1589,-3.1946,-3.2175,-3.2437,-3.294,-3.342,-3.3781,-3.4109,-3.4493,-3.4991,-3.5058,-3.5334,-3.5884,-3.6254,-3.6363,-3.6332,-3.6375,-3.6538,-3.6754,-3.6754,-3.7066,-3.7601,-3.808,-3.8332,-3.8332,-3.8542,-3.8868,-3.9221,-3.9661,-4.044,-4.1534,-4.1696,-4.2092,-4.2838,-4.29,-4.29,-4.29,-4.29,-4.29,-4.29,-4.29,-4.29,-4.29,-4.29,-4.29,-4.29,-4.29,-4.29,-4.29,-4.29,-4.3018,-4.3245,-4.3067,-4.3307,-4.4223,-4.4411,-4.469,-4.5364,-4.6018,-4.6563,-4.6734,-4.7459,-4.8203,-4.8682,-4.9059,-4.9349,-4.9611,-4.9732,-4.9732,-4.9732,-4.9732,-4.9732,-4.9732,-4.9732,-4.9732,-4.9732,-4.9732,-4.9732,-4.9732,-4.9732,-4.9732,-4.9732,-4.9732,-4.9732,-4.9732,-4.9732,-4.9732,-4.9732,-4.9732,-4.9732,-4.9732,-4.9732,-4.9732,-4.9863,-5.0636,-5.1326,-5.2351,-5.3142,-5.3552,-3.1567,-3.1567,-3.1567,-3.1567,-3.1567,-3.1567,-3.1567,-3.1567,-3.1567,-3.1567,-3.1567,-3.1567,-3.1567,-3.1567,-3.1567,-3.1567,-3.1644,-3.2154,-3.2459,-3.2645,-3.342,-3.3978,-3.423,-3.4549,-3.5058,-3.5543,-3.5653,-3.5927,-3.6483,-3.6862,-3.697,-3.6808,-3.7024,-3.7185,-3.7346,-3.7334,-3.7655,-3.8344,-3.8908,-3.9324,-3.9519,-3.9789,-3.9891,-3.9943,-4.044,-4.1159,-4.1993,-4.2043,-4.2302,-4.29,-4.29,-4.29,-4.29,-4.29,-4.29,-4.29,-4.29,-4.29,-4.29,-4.29,-4.29,-4.29,-4.29,-4.2984,-4.3067,-4.3115,-4.3389,-4.3946,-4.3594,-4.3703,-4.4397,-4.4583,-4.4872,-4.5505,-4.6348,-4.6879,-4.7329,-4.8199,-4.8769,-4.8986,-4.9378,-4.9732,-4.9732,-4.9732,-4.9732,-4.9732,-4.9732,-4.9732,-4.9732,-4.9732,-4.9732,-4.9732,-4.9732,-4.9732,-4.9732,-4.9732,-4.9732,-4.9732,-4.9732,-4.9732,-4.9732,-4.9732,-4.9732,-4.9732,-4.9732,-4.9732,-4.9732,-4.9732,-4.996,-5.0283,-5.1107,-5.2215,-5.2771,-5.3596,-5.4001,-3.1567,-3.1567,-3.1567,-3.1567,-3.1567,-3.1567,-3.1567,-3.1567,-3.1567,-3.1567,-3.1567,-3.1567,-3.1567,-3.1618,-3.1618,-3.1618,-3.1684,-3.2227,-3.274,-3.3123,-3.3682,-3.4362,-3.5278,-3.5378,-3.5653,-3.6211,-3.6266,-3.6538,-3.7078,-3.7131,-3.74,-3.7868,-3.74,-3.7388,-3.7814,-3.7868,-3.8344,-3.9013,-3.9208,-3.9622,-4.0325,-4.1172,-4.1534,-4.1534,-4.1647,-4.198,-4.2693,-4.2838,-4.2887,-4.29,-4.29,-4.29,-4.29,-4.29,-4.29,-4.29,-4.29,-4.29,-4.29,-4.29,-4.29,-4.2887,-4.2935,-4.3067,-4.3375,-4.3519,-4.3946,-4.4879,-4.449,-4.449,-4.4986,-4.4986,-4.5473,-4.6451,-4.6763,-4.7329,-4.8449,-4.8624,-4.9016,-4.9436,-4.9688,-4.9732,-4.9732,-4.9732,-4.9732,-4.9732,-4.9732,-4.9732,-4.9732,-4.9732,-4.9732,-4.9732,-4.9732,-4.9732,-4.9732,-4.9732,-4.9732,-4.9732,-4.9732,-4.9732,-4.9732,-4.9732,-4.9732,-4.9732,-4.9732,-4.9732,-4.9732,-4.9912,-5.0331,-5.0887,-5.1911,-5.2786,-5.3186,-5.3683,-5.4087,-3.1567,-3.1567,-3.1567,-3.1567,-3.1567,-3.1567,-3.1567,-3.1567,-3.1567,-3.1567,-3.1567,-3.1567,-3.1567,-3.1618,-3.1964,-3.2117,-3.2205,-3.3023,-3.3701,-3.4264,-3.5009,-3.5604,-3.5916,-3.5982,-3.6266,-3.6754,-3.6796,-3.7131,-3.7613,-3.7655,-3.7773,-3.7933,-3.7773,-3.7826,-3.7974,-3.7974,-3.8396,-3.9169,-3.9673,-4.0389,-4.1209,-4.2029,-4.2449,-4.2484,-4.2484,-4.2595,-4.2887,-4.29,-4.29,-4.29,-4.29,-4.29,-4.29,-4.29,-4.29,-4.29,-4.29,-4.29,-4.29,-4.29,-4.29,-4.2935,-4.3197,-4.3245,-4.3293,-4.3723,-4.4303,-4.4569,-4.4847,-4.5032,-4.5413,-4.5307,-4.5565,-4.6584,-4.7201,-4.7767,-4.8551,-4.9059,-4.9422,-4.9625,-4.9732,-4.9732,-4.9732,-4.9732,-4.9732,-4.9732,-4.9732,-4.9732,-4.9732,-4.9732,-4.9732,-4.9732,-4.9732,-4.9732,-4.9732,-4.9732,-4.9732,-4.9732,-4.9732,-4.9732,-4.9732,-4.9732,-4.9732,-4.9732,-4.9732,-5.0057,-5.0202,-5.0887,-5.1201,-5.185,-5.2876,-5.3246,-5.3596,-5.4071,-5.437,-3.1567,-3.1567,-3.1567,-3.1567,-3.1618,-3.1772,-3.1772,-3.1629,-3.1772,-3.1772,-3.1618,-3.1772,-3.1863,-3.1975,-3.242,-3.2773,-3.2987,-3.3867,-3.4437,-3.4842,-3.5849,-3.6375,-3.6538,-3.6549,-3.6862,-3.7292,-3.7388,-3.7613,-3.7974,-3.7974,-3.7974,-3.7974,-3.7974,-3.7974,-3.8027,-3.8238,-3.8816,-3.957,-4.0376,-4.1209,-4.2029,-4.2595,-4.29,-4.29,-4.29,-4.29,-4.29,-4.29,-4.29,-4.29,-4.29,-4.29,-4.29,-4.29,-4.29,-4.29,-4.29,-4.29,-4.29,-4.29,-4.29,-4.2935,-4.3341,-4.3471,-4.3451,-4.4162,-4.463,-4.4908,-4.5138,-4.5564,-4.5788,-4.5737,-4.6065,-4.6978,-4.7709,-4.8333,-4.8943,-4.9407,-4.9674,-4.9732,-4.9732,-4.9732,-4.9732,-4.9732,-4.9732,-4.9732,-4.9732,-4.9732,-4.9732,-4.9732,-4.9732,-4.9732,-4.9732,-4.9732,-4.9732,-4.9732,-4.9732,-4.9732,-4.9732,-4.9732,-4.9732,-4.9732,-4.9732,-4.9732,-5.0009,-5.0427,-5.1028,-5.1758,-5.2366,-5.292,-5.3334,-5.3699,-5.4087,-5.4497,-5.4765,-3.1567,-3.1618,-3.1629,-3.1669,-3.1783,-3.2218,-3.2117,-3.1772,-3.2218,-3.2117,-3.1823,-3.2167,-3.2409,-3.2521,-3.2985,-3.3496,-3.3918,-3.4548,-3.4918,-3.5051,-3.5956,-3.6688,-3.7078,-3.7131,-3.74,-3.7868,-3.7986,-3.7974,-3.7974,-3.7974,-3.8027,-3.8027,-3.8133,-3.8238,-3.808,-3.8908,-3.9622,-4.0389,-4.1222,-4.1993,-4.279,-4.29,-4.29,-4.29,-4.29,-4.29,-4.29,-4.29,-4.29,-4.29,-4.29,-4.29,-4.29,-4.29,-4.29,-4.29,-4.29,-4.29,-4.29,-4.29,-4.29,-4.2984,-4.3341,-4.3818,-4.4115,-4.4723,-4.5276,-4.5549,-4.5745,-4.588,-4.5982,-4.6343,-4.6891,-4.768,-4.8246,-4.887,-4.9436,-4.9703,-4.9732,-4.9732,-4.9732,-4.9732,-4.9732,-4.9732,-4.9732,-4.9732,-4.9732,-4.9732,-4.9732,-4.9732,-4.9732,-4.9732,-4.9732,-4.9732,-4.9732,-4.9732,-4.9732,-4.9732,-4.9732,-4.9732,-4.9732,-4.9732,-4.9732,-4.9781,-5.057,-5.1028,-5.1758,-5.2457,-5.286,-5.3377,-5.3785,-5.413,-5.447,-5.4806,-5.5138,-3.1567,-3.1629,-3.2026,-3.2167,-3.2218,-3.2723,-3.2633,-3.2207,-3.2734,-3.2633,-3.2319,-3.2723,-3.2935,-3.3085,-3.3496,-3.3843,-3.4122,-3.5289,-3.5888,-3.6066,-3.6967,-3.7495,-3.7667,-3.7708,-3.7826,-3.7974,-3.7974,-3.7974,-3.7974,-3.8027,-3.8238,-3.8712,-3.8804,-3.9104,-3.9545,-3.9917,-4.0427,-4.1222,-4.1534,-4.2092,-4.2838,-4.29,-4.29,-4.29,-4.29,-4.29,-4.29,-4.29,-4.29,-4.29,-4.29,-4.29,-4.29,-4.29,-4.29,-4.29,-4.29,-4.29,-4.29,-4.29,-4.29,-4.308,-4.3689,-4.396,-4.404,-4.4986,-4.5518,-4.5504,-4.5654,-4.588,-4.5982,-4.6446,-4.7085,-4.7709,-4.8348,-4.8972,-4.9553,-4.9732,-4.9732,-4.9732,-4.9732,-4.9732,-4.9732,-4.9732,-4.9732,-4.9732,-4.9732,-4.9732,-4.9732,-4.9732,-4.9732,-4.9732,-4.9732,-4.9732,-4.9732,-4.9732,-4.9732,-4.9732,-4.9732,-4.9732,-4.9732,-4.9732,-4.9732,-5.025,-5.0981,-5.1758,-5.2502,-5.3038,-5.3465,-5.3813,-5.4215,-5.4513,-5.4806,-5.5138,-5.5507,-3.2026,-3.2179,-3.2319,-3.2521,-3.2734,-3.3296,-3.3197,-3.2835,-3.3296,-3.3185,-3.2885,-3.3235,-3.3496,-3.3595,-3.404,-3.4286,-3.4442,-3.5767,-3.6411,-3.6579,-3.7493,-3.7962,-3.7974,-3.7974,-3.7974,-3.7974,-3.7974,-3.7974,-3.8027,-3.8344,-3.8699,-3.9129,-3.948,-3.9866,-4.0427,-4.0743,-4.1209,-4.1696,-4.1993,-4.2387,-4.279,-4.29,-4.29,-4.29,-4.29,-4.29,-4.29,-4.29,-4.29,-4.29,-4.29,-4.29,-4.29,-4.29,-4.29,-4.29,-4.29,-4.29,-4.29,-4.29,-4.2984,-4.3259,-4.3926,-4.435,-4.4369,-4.5321,-4.57,-4.5549,-4.57,-4.588,-4.5967,-4.6461,-4.6998,-4.7361,-4.8203,-4.8943,-4.9524,-4.9732,-4.9732,-4.9732,-4.9732,-4.9732,-4.9732,-4.9732,-4.9732,-4.9732,-4.9732,-4.9732,-4.9732,-4.9732,-4.9732,-4.9732,-4.9732,-4.9732,-4.9732,-4.9732,-4.9732,-4.9732,-4.9732,-4.9732,-4.9732,-4.9717,-4.9766,-5.084,-5.1712,-5.2502,-5.3274,-5.3596,-5.3958,-5.4343,-5.4639,-5.4931,-5.5221,-5.5588,-5.595,-3.2723,-3.3097,-3.2723,-3.2823,-3.3296,-3.3793,-3.3732,-3.3396,-3.3793,-3.3744,-3.3457,-3.3793,-3.4028,-3.4139,-3.4531,-3.4726,-3.4955,-3.5759,-3.6338,-3.6639,-3.7372,-3.789,-3.7974,-3.7974,-3.7974,-3.7974,-3.7974,-3.7974,-3.8039,-3.8699,-3.9221,-3.9415,-4.0122,-4.0516,-4.0882,-4.1421,-4.1796,-4.1944,-4.2547,-4.2852,-4.29,-4.29,-4.29,-4.29,-4.29,-4.29,-4.29,-4.29,-4.29,-4.29,-4.29,-4.29,-4.29,-4.29,-4.29,-4.29,-4.29,-4.29,-4.29,-4.29,-4.3067,-4.3519,-4.4054,-4.4597,-4.4986,-4.5504,-4.588,-4.5835,-4.588,-4.588,-4.5996,-4.6345,-4.6676,-4.6969,-4.7883,-4.8783,-4.948,-4.9582,-4.9567,-4.9654,-4.9732,-4.9732,-4.9732,-4.9732,-4.9732,-4.9732,-4.9732,-4.9732,-4.9732,-4.9732,-4.9732,-4.9732,-4.9732,-4.9732,-4.9732,-4.9732,-4.9732,-4.9732,-4.9732,-4.9732,-4.9829,-4.9912,-5.0412,-5.1481,-5.2351,-5.3186,-5.3829,-5.413,-5.447,-5.4765,-5.5056,-5.5344,-5.5669,-5.599,-5.6267,-3.3085,-3.3197,-3.3484,-3.3683,-3.3843,-3.4384,-3.4286,-3.3892,-3.4335,-3.4225,-3.3991,-3.4335,-3.4519,-3.458,-3.4726,-3.4775,-3.4955,-3.5483,-3.6074,-3.6459,-3.706,-3.7625,-3.7914,-3.7974,-3.7974,-3.7974,-3.7974,-3.7974,-3.808,-3.8856,-3.9519,-4.0109,-4.0945,-4.167,-4.2213,-4.2435,-4.2547,-4.2595,-4.2741,-4.29,-4.29,-4.29,-4.29,-4.29,-4.29,-4.29,-4.29,-4.29,-4.29,-4.29,-4.29,-4.29,-4.29,-4.29,-4.29,-4.29,-4.29,-4.29,-4.29,-4.29,-4.3115,-4.3566,-4.4101,-4.4597,-4.5092,-4.5609,-4.5835,-4.588,-4.588,-4.588,-4.5909,-4.6055,-4.6345,-4.6838,-4.7506,-4.8246,-4.8812,-4.8986,-4.9146,-4.9567,-4.9703,-4.9688,-4.9732,-4.9732,-4.9732,-4.9732,-4.9732,-4.9732,-4.9732,-4.9732,-4.9732,-4.9732,-4.9732,-4.9732,-4.9732,-4.9732,-4.9732,-4.9732,-4.9732,-4.9766,-5.0009,-5.0283,-5.1201,-5.2366,-5.2845,-5.358,-5.4157,-5.4639,-5.4931,-5.518,-5.5507,-5.5806,-5.599,-5.6267,-5.6463,-3.3645,-3.3843,-3.3979,-3.4139,-3.4335,-3.4689,-3.4628,-3.4433,-3.4628,-3.4628,-3.4433,-3.4628,-3.4775,-3.4775,-3.4775,-3.4775,-3.4847,-3.5327,-3.5905,-3.6483,-3.7204,-3.7697,-3.7926,-3.7974,-3.7974,-3.7974,-3.7974,-3.8185,-3.8594,-3.9312,-4.0122,-4.0945,-4.1782,-4.2435,-4.279,-4.29,-4.29,-4.29,-4.29,-4.29,-4.29,-4.29,-4.29,-4.29,-4.29,-4.29,-4.29,-4.29,-4.29,-4.29,-4.29,-4.29,-4.29,-4.29,-4.29,-4.29,-4.29,-4.29,-4.29,-4.2887,-4.3211,-4.3818,-4.4256,-4.4723,-4.5336,-4.5745,-4.588,-4.588,-4.588,-4.588,-4.588,-4.588,-4.6055,-4.6359,-4.6766,-4.7361,-4.8203,-4.8333,-4.8624,-4.9059,-4.9277,-4.9407,-4.9659,-4.9717,-4.9732,-4.9732,-4.9732,-4.9732,-4.9732,-4.9732,-4.9732,-4.9732,-4.9732,-4.9732,-4.9732,-4.9781,-4.996,-4.9912,-5.0394,-5.0283,-5.0508,-5.0934,-5.185,-5.2815,-5.3346,-5.3884,-5.4454,-5.4973,-5.5303,-5.5588,-5.5927,-5.6165,-5.6346,-5.6424,-5.6619,-3.4396,-3.4775,-3.4286,-3.4335,-3.4726,-3.4775,-3.4775,-3.4775,-3.4775,-3.4775,-3.4775,-3.4775,-3.4775,-3.4775,-3.4775,-3.4775,-3.4799,-3.5268,-3.5845,-3.6543,-3.7348,-3.8056,-3.8226,-3.808,-3.8133,-3.8185,-3.808,-3.8554,-3.926,-4.0071,-4.0794,-4.1571,-4.2387,-4.2838,-4.29,-4.29,-4.29,-4.29,-4.29,-4.29,-4.29,-4.29,-4.29,-4.29,-4.29,-4.29,-4.29,-4.29,-4.29,-4.29,-4.29,-4.29,-4.29,-4.29,-4.29,-4.2935,-4.297,-4.3018,-4.3032,-4.3115,-4.3499,-4.4303,-4.449,-4.4876,-4.5609,-4.588,-4.588,-4.588,-4.588,-4.588,-4.588,-4.588,-4.5909,-4.5996,-4.5982,-4.6475,-4.7259,-4.7637,-4.7927,-4.8522,-4.8624,-4.8943,-4.9349,-4.9596,-4.9582,-4.9732,-4.9732,-4.9732,-4.9732,-4.9732,-4.9732,-4.9732,-4.9732,-4.9732,-4.9781,-4.9829,-5.0057,-5.0283,-5.1043,-5.1309,-5.1481,-5.1896,-5.2592,-5.3274,-5.384,-5.4311,-5.479,-5.5205,-5.5612,-5.5934,-5.6267,-5.6424,-5.6564,-5.658,-5.6697,-3.4677,-3.4775,-3.4677,-3.4677,-3.4775,-3.4775,-3.4775,-3.4775,-3.4775,-3.4775,-3.4775,-3.4775,-3.4775,-3.4775,-3.4775,-3.4775,-3.4787,-3.5027,-3.5485,-3.6495,-3.7493,-3.8348,-3.8659,-3.8344,-3.8396,-3.8659,-3.8291,-3.8792,-3.9917,-4.0427,-4.0844,-4.1733,-4.2484,-4.29,-4.29,-4.29,-4.29,-4.29,-4.29,-4.29,-4.29,-4.29,-4.29,-4.29,-4.29,-4.29,-4.29,-4.29,-4.29,-4.29,-4.2935,-4.2984,-4.2935,-4.2984,-4.3032,-4.308,-4.328,-4.3471,-4.3519,-4.3818,-4.4303,-4.4801,-4.4894,-4.5216,-4.579,-4.588,-4.588,-4.588,-4.588,-4.588,-4.588,-4.588,-4.588,-4.588,-4.5895,-4.5982,-4.6316,-4.6751,-4.7288,-4.7782,-4.7999,-4.8217,-4.8812,-4.8914,-4.9117,-4.9524,-4.9703,-4.9717,-4.9732,-4.9732,-4.9732,-4.9732,-4.9732,-4.9781,-5.0105,-5.0331,-5.0793,-5.1028,-5.1681,-5.2291,-5.2457,-5.2592,-5.3186,-5.377,-5.4327,-5.4765,-5.5122,-5.5612,-5.6053,-5.6346,-5.6541,-5.6619,-5.6641,-5.6697,-5.6697,-3.4775,-3.4775,-3.4775,-3.4775,-3.4775,-3.4775,-3.4775,-3.4775,-3.4775,-3.4775,-3.4775,-3.4775,-3.4775,-3.4775,-3.4775,-3.4775,-3.4919,-3.5376,-3.5857,-3.6591,-3.7509,-3.8425,-3.9013,-3.8908,-3.8948,-3.957,-3.9351,-3.9917,-4.0693,-4.1045,-4.1471,-4.219,-4.2741,-4.2887,-4.29,-4.29,-4.29,-4.29,-4.29,-4.29,-4.29,-4.29,-4.29,-4.29,-4.29,-4.29,-4.29,-4.29,-4.3032,-4.3149,-4.3245,-4.3245,-4.3293,-4.3451,-4.3594,-4.3689,-4.377,-4.396,-4.4068,-4.4256,-4.4597,-4.5078,-4.5124,-4.5413,-4.5745,-4.588,-4.588,-4.588,-4.588,-4.588,-4.588,-4.588,-4.588,-4.588,-4.588,-4.588,-4.5953,-4.62,-4.6635,-4.7143,-4.7332,-4.768,-4.8014,-4.8232,-4.8595,-4.8986,-4.9175,-4.9219,-4.9669,-4.9683,-4.9732,-4.9732,-4.9732,-4.9878,-5.0331,-5.0887,-5.1635,-5.2002,-5.2472,-5.2964,-5.3318,-5.3465,-5.3655,-5.4173,-5.4597,-5.4998,-5.5369,-5.5934,-5.633,-5.6541,-5.6658,-5.6697,-5.6697,-5.6697,-5.6697,-3.4775,-3.4775,-3.4775,-3.4775,-3.4775,-3.4775,-3.4775,-3.4775,-3.4775,-3.4775,-3.4775,-3.4775,-3.4775,-3.4775,-3.4775,-3.4775,-3.5051,-3.5833,-3.6362,-3.6531,-3.7493,-3.8428,-3.9013,-3.9364,-3.9815,-4.0516,-4.0262,-4.0844,-4.1571,-4.1809,-4.1993,-4.2741,-4.29,-4.29,-4.29,-4.29,-4.29,-4.29,-4.29,-4.29,-4.29,-4.29,-4.29,-4.29,-4.29,-4.29,-4.29,-4.2935,-4.3101,-4.3553,-4.3709,-4.3743,-4.3932,-4.4101,-4.4425,-4.4364,-4.4397,-4.449,-4.4537,-4.463,-4.4908,-4.5216,-4.5261,-4.5444,-4.579,-4.588,-4.588,-4.588,-4.588,-4.588,-4.588,-4.588,-4.588,-4.588,-4.588,-4.588,-4.588,-4.588,-4.6229,-4.6534,-4.6722,-4.6983,-4.7361,-4.7651,-4.8043,-4.8406,-4.858,-4.8841,-4.9325,-4.9752,-4.9786,-5.0009,-5.0105,-5.0793,-5.1294,-5.1573,-5.2321,-5.2786,-5.3201,-5.3552,-5.4001,-5.413,-5.4215,-5.4386,-5.4749,-5.5205,-5.5653,-5.6132,-5.6486,-5.6641,-5.6697,-5.6697,-5.6697,-5.6697,-5.6697,-3.4775,-3.4775,-3.4775,-3.4775,-3.4775,-3.4775,-3.4775,-3.4775,-3.4775,-3.4775,-3.4775,-3.4775,-3.4775,-3.4775,-3.4775,-3.4775,-3.5076,-3.5871,-3.6464,-3.6669,-3.7617,-3.8586,-3.9428,-4.0032,-4.068,-4.1058,-4.1008,-4.1358,-4.2177,-4.2141,-4.2239,-4.279,-4.29,-4.29,-4.29,-4.29,-4.29,-4.29,-4.29,-4.29,-4.29,-4.2984,-4.2984,-4.2984,-4.3032,-4.3032,-4.2984,-4.2984,-4.3101,-4.3553,-4.4007,-4.4429,-4.4662,-4.463,-4.4551,-4.4597,-4.483,-4.5,-4.5032,-4.5367,-4.5609,-4.5759,-4.5745,-4.573,-4.588,-4.588,-4.588,-4.588,-4.588,-4.588,-4.588,-4.588,-4.588,-4.588,-4.588,-4.588,-4.588,-4.5895,-4.5924,-4.6142,-4.6185,-4.6272,-4.6693,-4.7056,-4.7375,-4.7767,-4.8101,-4.8457,-4.8964,-4.9541,-4.9974,-5.0272,-5.0665,-5.1542,-5.2457,-5.2637,-5.3009,-5.3465,-5.3785,-5.3985,-5.4386,-5.4597,-5.4765,-5.4931,-5.5122,-5.5491,-5.5934,-5.6369,-5.6564,-5.6697,-5.6697,-5.6697,-5.6697,-5.6697,-5.6697,-3.4775,-3.4775,-3.4775,-3.4775,-3.4775,-3.4775,-3.4775,-3.4775,-3.4775,-3.4775,-3.4775,-3.4775,-3.4775,-3.4775,-3.4775,-3.4775,-3.5101,-3.6014,-3.67,-3.7166,-3.8248,-3.9447,-4.0313,-4.0908,-4.1558,-4.2029,-4.1967,-4.1967,-4.2776,-4.2533,-4.2533,-4.279,-4.29,-4.29,-4.29,-4.29,-4.29,-4.29,-4.29,-4.2887,-4.2935,-4.3101,-4.3245,-4.3307,-4.356,-4.3655,-4.3703,-4.3703,-4.3926,-4.4322,-4.4616,-4.4986,-4.5276,-4.5321,-4.5152,-4.5198,-4.5381,-4.5504,-4.5504,-4.579,-4.588,-4.588,-4.588,-4.588,-4.588,-4.588,-4.588,-4.588,-4.588,-4.588,-4.588,-4.588,-4.588,-4.588,-4.588,-4.588,-4.588,-4.588,-4.588,-4.588,-4.5967,-4.6084,-4.6156,-4.6475,-4.6708,-4.7085,-4.755,-4.8118,-4.8659,-4.9316,-5.0005,-5.0823,-5.1316,-5.2185,-5.3009,-5.3274,-5.3421,-5.3872,-5.4231,-5.4428,-5.4681,-5.489,-5.5221,-5.5507,-5.5709,-5.5854,-5.607,-5.6424,-5.658,-5.6697,-5.6697,-5.6697,-5.6697,-5.6697,-5.6697,-3.4775,-3.4775,-3.4775,-3.4775,-3.4775,-3.4775,-3.4775,-3.4775,-3.4775,-3.4775,-3.4775,-3.4775,-3.4775,-3.4775,-3.4823,-3.4896,-3.5114,-3.6283,-3.7059,-3.7978,-3.8955,-4.0227,-4.1091,-4.1696,-4.1944,-4.2239,-4.2693,-4.29,-4.2887,-4.2838,-4.2887,-4.29,-4.29,-4.29,-4.29,-4.29,-4.29,-4.29,-4.2887,-4.2935,-4.3115,-4.3389,-4.3662,-4.3757,-4.4162,-4.4364,-4.427,-4.427,-4.4537,-4.4847,-4.5078,-4.5307,-4.579,-4.588,-4.588,-4.588,-4.588,-4.588,-4.588,-4.588,-4.588,-4.588,-4.588,-4.588,-4.588,-4.588,-4.588,-4.588,-4.588,-4.588,-4.588,-4.588,-4.588,-4.588,-4.588,-4.588,-4.588,-4.588,-4.588,-4.588,-4.588,-4.5969,-4.6071,-4.61,-4.6407,-4.6973,-4.7427,-4.8086,-4.8699,-4.9341,-5.0139,-5.1242,-5.207,-5.2856,-5.3465,-5.3699,-5.3829,-5.3974,-5.4343,-5.4581,-5.4832,-5.5097,-5.5507,-5.599,-5.6149,-5.6267,-5.6362,-5.6441,-5.658,-5.6697,-5.6697,-5.6697,-5.6697,-5.6697,-5.6697,-3.4775,-3.4775,-3.4775,-3.4775,-3.4775,-3.4775,-3.4775,-3.4775,-3.4775,-3.4775,-3.4775,-3.4775,-3.4775,-3.4775,-3.4775,-3.5211,-3.5827,-3.6438,-3.7385,-3.8538,-3.9357,-4.0096,-4.0741,-4.1372,-4.1805,-4.2226,-4.2693,-4.2838,-4.29,-4.29,-4.29,-4.29,-4.29,-4.29,-4.29,-4.29,-4.29,-4.29,-4.29,-4.3067,-4.3375,-4.3553,-4.3899,-4.4148,-4.4411,-4.4551,-4.4597,-4.4597,-4.4783,-4.5092,-4.5124,-4.5398,-4.579,-4.588,-4.588,-4.588,-4.588,-4.588,-4.588,-4.588,-4.588,-4.588,-4.588,-4.588,-4.588,-4.588,-4.588,-4.588,-4.588,-4.588,-4.588,-4.588,-4.588,-4.588,-4.588,-4.588,-4.588,-4.588,-4.588,-4.588,-4.588,-4.597,-4.6059,-4.6044,-4.6118,-4.6771,-4.7348,-4.8058,-4.8799,-4.9517,-5.0359,-5.149,-5.2365,-5.3177,-5.3498,-5.3832,-5.413,-5.4189,-5.4428,-5.4749,-5.5164,-5.5548,-5.5974,-5.6346,-5.6502,-5.6541,-5.6541,-5.6619,-5.6697,-5.6697,-5.6697,-5.6697,-5.6697,-5.6697,-5.6697,-3.4775,-3.4775,-3.4775,-3.4775,-3.4775,-3.4775,-3.4775,-3.4775,-3.4775,-3.4775,-3.4775,-3.4775,-3.4775,-3.4775,-3.4775,-3.5247,-3.598,-3.6644,-3.7654,-3.889,-3.9667,-4.0372,-4.1227,-4.171,-4.1949,-4.2319,-4.2693,-4.2887,-4.29,-4.29,-4.29,-4.29,-4.29,-4.29,-4.29,-4.29,-4.29,-4.29,-4.2935,-4.297,-4.3293,-4.3723,-4.4148,-4.4397,-4.4908,-4.5138,-4.5198,-4.5244,-4.5336,-4.5549,-4.5564,-4.564,-4.5835,-4.588,-4.588,-4.588,-4.588,-4.588,-4.588,-4.588,-4.588,-4.588,-4.588,-4.588,-4.588,-4.588,-4.588,-4.588,-4.588,-4.588,-4.588,-4.588,-4.588,-4.588,-4.588,-4.588,-4.588,-4.588,-4.588,-4.588,-4.5925,-4.6046,-4.6225,-4.6491,-4.6609,-4.7049,-4.7589,-4.8198,-4.904,-4.9915,-5.0776,-5.1742,-5.2576,-5.3296,-5.3485,-5.3697,-5.4221,-5.437,-5.4555,-5.4973,-5.5588,-5.603,-5.6346,-5.6541,-5.6619,-5.6658,-5.6697,-5.6697,-5.6697,-5.6697,-5.6697,-5.6697,-5.6697,-5.6697,-5.6697,-3.4775,-3.4775,-3.4775,-3.4775,-3.4775,-3.4775,-3.4775,-3.4775,-3.4775,-3.4775,-3.4775,-3.4775,-3.4775,-3.4775,-3.4872,-3.5343,-3.6345,-3.6849,-3.8048,-3.913,-3.9976,-4.0713,-4.1369,-4.1863,-4.2215,-4.267,-4.2771,-4.2873,-4.29,-4.29,-4.29,-4.29,-4.29,-4.29,-4.29,-4.29,-4.29,-4.29,-4.29,-4.308,-4.3465,-4.4021,-4.449,-4.4922,-4.5427,-4.588,-4.588,-4.5835,-4.5835,-4.5835,-4.5835,-4.5835,-4.588,-4.588,-4.588,-4.588,-4.588,-4.588,-4.588,-4.588,-4.588,-4.588,-4.588,-4.588,-4.588,-4.588,-4.588,-4.588,-4.588,-4.588,-4.588,-4.588,-4.588,-4.588,-4.588,-4.588,-4.588,-4.588,-4.588,-4.588,-4.6015,-4.6314,-4.6565,-4.6945,-4.7249,-4.745,-4.7861,-4.8392,-4.9248,-5.0194,-5.0819,-5.1584,-5.2177,-5.2902,-5.3281,-5.3587,-5.4142,-5.4601,-5.4784,-5.5221,-5.583,-5.6188,-5.6447,-5.6564,-5.6697,-5.6697,-5.6697,-5.6697,-5.6697,-5.6697,-5.6697,-5.6697,-5.6697,-5.6697,-5.6697,-3.4775,-3.4775,-3.4775,-3.4775,-3.4775,-3.4775,-3.4775,-3.4775,-3.4775,-3.4775,-3.4775,-3.4775,-3.4775,-3.4823,-3.5005,-3.5667,-3.6964,-3.7057,-3.826,-3.9444,-4.0255,-4.048,-4.105,-4.1571,-4.1937,-4.2141,-4.2385,-4.2656,-4.2806,-4.2575,-4.2738,-4.2887,-4.2819,-4.286,-4.29,-4.29,-4.29,-4.29,-4.29,-4.3369,-4.3846,-4.4364,-4.4783,-4.5518,-4.579,-4.588,-4.588,-4.588,-4.588,-4.588,-4.588,-4.588,-4.588,-4.588,-4.588,-4.588,-4.588,-4.588,-4.588,-4.588,-4.588,-4.588,-4.588,-4.588,-4.588,-4.588,-4.588,-4.588,-4.588,-4.588,-4.588,-4.588,-4.588,-4.588,-4.588,-4.588,-4.588,-4.588,-4.588,-4.588,-4.6135,-4.6565,-4.7148,-4.7606,-4.7904,-4.8115,-4.849,-4.9025,-4.9465,-5.0238,-5.0578,-5.1139,-5.1644,-5.227,-5.2928,-5.3349,-5.3726,-5.4459,-5.4939,-5.5426,-5.6013,-5.633,-5.6564,-5.6603,-5.6697,-5.6697,-5.6697,-5.6697,-5.6697,-5.6697,-5.6697,-5.6697,-5.6697,-5.6697,-5.6697,-3.4775,-3.4775,-3.4775,-3.4775,-3.4775,-3.4775,-3.4775,-3.4775,-3.4775,-3.4775,-3.4823,-3.4775,-3.4775,-3.492,-3.544,-3.6083,-3.701,-3.7116,-3.8267,-3.8951,-3.9352,-3.9648,-4.0256,-4.0825,-4.1069,-4.1435,-4.1734,-4.1802,-4.1761,-4.1924,-4.1815,-4.1937,-4.2466,-4.2833,-4.29,-4.2916,-4.2957,-4.2935,-4.2984,-4.3321,-4.377,-4.4303,-4.4723,-4.5307,-4.579,-4.588,-4.588,-4.588,-4.588,-4.588,-4.588,-4.588,-4.588,-4.588,-4.588,-4.588,-4.588,-4.588,-4.588,-4.588,-4.588,-4.588,-4.588,-4.588,-4.588,-4.588,-4.588,-4.588,-4.588,-4.588,-4.588,-4.588,-4.588,-4.588,-4.588,-4.588,-4.5925,-4.597,-4.6135,-4.6269,-4.6653,-4.7076,-4.7734,-4.835,-4.8599,-4.8821,-4.9244,-4.9597,-4.9923,-5.0121,-5.039,-5.0659,-5.1134,-5.1604,-5.2272,-5.2786,-5.3325,-5.4221,-5.51,-5.5607,-5.6136,-5.6447,-5.6641,-5.6697,-5.6697,-5.6697,-5.6697,-5.6697,-5.6697,-5.6697,-5.6697,-5.6697,-5.6697,-5.6697,-5.6757,-3.4775,-3.4775,-3.4775,-3.4775,-3.4775,-3.4775,-3.4775,-3.4775,-3.4775,-3.4969,-3.5163,-3.515,-3.5295,-3.5631,-3.6048,-3.6756,-3.7302,-3.7592,-3.8277,-3.8782,-3.9056,-3.9159,-3.9713,-4.0187,-4.054,-4.0825,-4.1082,-4.1191,-4.1199,-4.115,-4.1218,-4.1489,-4.1869,-4.2243,-4.2603,-4.2931,-4.3115,-4.3328,-4.3417,-4.358,-4.4087,-4.4429,-4.4709,-4.5094,-4.5383,-4.5518,-4.5503,-4.5503,-4.5677,-4.5793,-4.588,-4.588,-4.588,-4.588,-4.588,-4.588,-4.588,-4.588,-4.588,-4.588,-4.588,-4.588,-4.588,-4.588,-4.588,-4.588,-4.588,-4.588,-4.588,-4.588,-4.588,-4.588,-4.588,-4.588,-4.588,-4.5925,-4.606,-4.6135,-4.6447,-4.6697,-4.7163,-4.7621,-4.824,-4.8903,-4.9147,-4.9325,-4.9486,-4.9741,-4.9828,-4.9995,-5.001,-5.0264,-5.0565,-5.1065,-5.155,-5.2244,-5.3061,-5.4379,-5.5182,-5.568,-5.6167,-5.6487,-5.6697,-5.6697,-5.6697,-5.6697,-5.6697,-5.6697,-5.6697,-5.6697,-5.6697,-5.6697,-5.6697,-5.6735,-5.6911,-3.4775,-3.4775,-3.4775,-3.4775,-3.4775,-3.4775,-3.4775,-3.4775,-3.4823,-3.5163,-3.5679,-3.5727,-3.6096,-3.6555,-3.6637,-3.7209,-3.773,-3.8018,-3.8517,-3.9024,-3.8993,-3.9212,-3.9522,-3.9834,-4.0078,-4.0323,-4.0553,-4.0798,-4.0947,-4.0811,-4.0892,-4.1031,-4.1278,-4.1616,-4.1915,-4.2855,-4.3626,-4.4177,-4.4116,-4.4279,-4.456,-4.4655,-4.4657,-4.4817,-4.4878,-4.4922,-4.4922,-4.4922,-4.5155,-4.559,-4.5692,-4.575,-4.5866,-4.588,-4.588,-4.588,-4.588,-4.588,-4.588,-4.588,-4.588,-4.588,-4.588,-4.588,-4.588,-4.588,-4.588,-4.588,-4.588,-4.588,-4.588,-4.588,-4.588,-4.588,-4.588,-4.5925,-4.6046,-4.6403,-4.6712,-4.7206,-4.7664,-4.8157,-4.878,-4.9365,-4.9661,-4.9821,-4.9876,-4.9916,-4.9916,-4.9916,-4.9916,-5.016,-5.046,-5.0932,-5.1501,-5.1968,-5.2815,-5.4228,-5.5236,-5.5765,-5.6195,-5.6575,-5.6697,-5.6697,-5.6697,-5.6697,-5.6697,-5.6697,-5.6697,-5.6697,-5.6697,-5.6697,-5.6697,-5.6834,-5.7139,-3.4775,-3.4775,-3.4775,-3.4775,-3.4775,-3.4775,-3.4775,-3.4775,-3.4823,-3.4969,-3.5163,-3.5211,-3.5295,-3.5763,-3.6696,-3.7256,-3.7487,-3.8109,-3.8575,-3.9158,-3.889,-3.898,-3.9208,-3.9509,-3.9644,-3.9658,-3.9888,-4.0011,-3.9861,-4.0083,-4.0181,-4.035,-4.0985,-4.1444,-4.1761,-4.2282,-4.2582,-4.3013,-4.3132,-4.3328,-4.382,-4.3924,-4.4046,-4.4313,-4.4284,-4.4284,-4.4284,-4.4284,-4.4603,-4.514,-4.5227,-4.5401,-4.5706,-4.5822,-4.5851,-4.5866,-4.588,-4.588,-4.588,-4.588,-4.588,-4.588,-4.588,-4.588,-4.588,-4.588,-4.588,-4.588,-4.588,-4.588,-4.588,-4.588,-4.588,-4.588,-4.588,-4.588,-4.606,-4.6535,-4.7004,-4.7606,-4.8141,-4.878,-4.9405,-4.9526,-4.9781,-4.9916,-4.9916,-4.9916,-4.9916,-4.9955,-4.9995,-5.0253,-5.0566,-5.1031,-5.1529,-5.214,-5.2937,-5.4245,-5.5188,-5.5853,-5.6244,-5.663,-5.6697,-5.6697,-5.6697,-5.6697,-5.6697,-5.6697,-5.6697,-5.6697,-5.6812,-5.6987,-5.7139,-5.731,-5.7571,-3.4775,-3.4775,-3.4775,-3.4775,-3.4775,-3.4775,-3.4775,-3.4775,-3.4823,-3.5078,-3.55,-3.5404,-3.5631,-3.6191,-3.6684,-3.7116,-3.7209,-3.7867,-3.8304,-3.889,-3.88,-3.8935,-3.9216,-3.9305,-3.9386,-3.9305,-3.9305,-3.9359,-3.9414,-3.951,-3.9859,-4.0411,-4.083,-4.1238,-4.1639,-4.2038,-4.2538,-4.2943,-4.3158,-4.3395,-4.3557,-4.3588,-4.3603,-4.3632,-4.3631,-4.3645,-4.3645,-4.3732,-4.3921,-4.4371,-4.4676,-4.4893,-4.5343,-4.5561,-4.5663,-4.5779,-4.588,-4.588,-4.588,-4.588,-4.588,-4.588,-4.588,-4.588,-4.588,-4.588,-4.588,-4.588,-4.588,-4.588,-4.588,-4.588,-4.588,-4.588,-4.588,-4.588,-4.6135,-4.6609,-4.7379,-4.7988,-4.8738,-4.9365,-4.9741,-4.9781,-4.9876,-4.9916,-4.9916,-4.9916,-4.9955,-5.0034,-5.0152,-5.0409,-5.081,-5.1323,-5.1904,-5.2487,-5.3371,-5.432,-5.5173,-5.5968,-5.6332,-5.6697,-5.6697,-5.6697,-5.6697,-5.6697,-5.6697,-5.6735,-5.6834,-5.6987,-5.7101,-5.7327,-5.7551,-5.7755,-5.7974,-3.4775,-3.4775,-3.4775,-3.4775,-3.4775,-3.4775,-3.4775,-3.4775,-3.4775,-3.5596,-3.6875,-3.6108,-3.6427,-3.7592,-3.7428,-3.7243,-3.7394,-3.8018,-3.8349,-3.8575,-3.8935,-3.9172,-3.9274,-3.9305,-3.9305,-3.9305,-3.9305,-3.9305,-3.9336,-3.9821,-4.0257,-4.0602,-4.0915,-4.1213,-4.171,-4.2181,-4.2682,-4.2912,-4.3099,-4.3257,-4.3329,-4.3559,-4.3284,-4.3137,-4.2977,-4.2977,-4.2977,-4.3021,-4.3369,-4.3718,-4.3979,-4.4371,-4.469,-4.4893,-4.5314,-4.5677,-4.5866,-4.588,-4.588,-4.588,-4.588,-4.588,-4.588,-4.588,-4.588,-4.588,-4.588,-4.588,-4.588,-4.588,-4.588,-4.588,-4.588,-4.588,-4.588,-4.6046,-4.6254,-4.6814,-4.7621,-4.8366,-4.9219,-4.9757,-4.9836,-4.9916,-4.9916,-4.9916,-4.9916,-5.0034,-5.0073,-5.0308,-5.0409,-5.0679,-5.1092,-5.168,-5.2302,-5.3012,-5.3795,-5.4787,-5.5405,-5.6117,-5.6448,-5.6697,-5.6697,-5.6697,-5.6697,-5.6757,-5.6949,-5.7025,-5.7101,-5.7252,-5.7571,-5.7828,-5.8118,-5.8082,-5.8297,-3.4775,-3.4775,-3.4775,-3.4775,-3.4775,-3.4775,-3.4775,-3.4775,-3.4823,-3.544,-3.6285,-3.6108,-3.6508,-3.7394,-3.773,-3.7763,-3.8096,-3.8562,-3.889,-3.9083,-3.9127,-3.9261,-3.9305,-3.9305,-3.9305,-3.9305,-3.9305,-3.9305,-3.9482,-4.0009,-4.0487,-4.0702,-4.1269,-4.148,-4.1677,-4.2058,-4.236,-4.2534,-4.2761,-4.2776,-4.2789,-4.2803,-4.2586,-4.2498,-4.244,-4.244,-4.244,-4.2426,-4.276,-4.3152,-4.3268,-4.3703,-4.4806,-4.4908,-4.5184,-4.5779,-4.588,-4.588,-4.588,-4.588,-4.588,-4.588,-4.588,-4.588,-4.588,-4.588,-4.588,-4.588,-4.588,-4.588,-4.588,-4.588,-4.588,-4.588,-4.597,-4.6225,-4.6565,-4.7278,-4.803,-4.878,-4.9597,-4.9797,-4.9876,-4.9916,-4.9916,-4.9916,-4.9955,-5.0073,-5.0253,-5.0448,-5.0755,-5.0984,-5.1571,-5.2183,-5.2963,-5.3671,-5.4436,-5.5185,-5.5786,-5.6249,-5.6514,-5.6697,-5.6697,-5.6735,-5.6796,-5.7063,-5.7364,-5.7439,-5.7534,-5.7884,-5.8173,-5.8457,-5.865,-5.8615,-5.8737,-3.4775,-3.4775,-3.4775,-3.4775,-3.4775,-3.4775,-3.4775,-3.4775,-3.4775,-3.5259,-3.5918,-3.5631,-3.5953,-3.6568,-3.6756,-3.6896,-3.7281,-3.7867,-3.8368,-3.8756,-3.9114,-3.9261,-3.9305,-3.9261,-3.9305,-3.9305,-3.9305,-3.9305,-3.9571,-4.017,-4.073,-4.1043,-4.1801,-4.1829,-4.1885,-4.1997,-4.208,-4.2123,-4.215,-4.2092,-4.2092,-4.2092,-4.2092,-4.2092,-4.2092,-4.2092,-4.2092,-4.2092,-4.2324,-4.2586,-4.2629,-4.3239,-4.4429,-4.4937,-4.5343,-4.5866,-4.588,-4.588,-4.588,-4.588,-4.588,-4.588,-4.588,-4.588,-4.588,-4.588,-4.588,-4.588,-4.588,-4.588,-4.588,-4.588,-4.588,-4.588,-4.618,-4.6491,-4.7119,-4.7792,-4.8506,-4.9163,-4.9582,-4.9797,-4.9916,-4.9916,-4.9916,-4.9916,-4.9955,-5.0097,-5.037,-5.0663,-5.1022,-5.1376,-5.2052,-5.2748,-5.3506,-5.4245,-5.492,-5.557,-5.6084,-5.6465,-5.6647,-5.6697,-5.6697,-5.6796,-5.6949,-5.7252,-5.7571,-5.7865,-5.8065,-5.8457,-5.8789,-5.9012,-5.9165,-5.9132,-5.9401,-3.4691,-3.4679,-3.4715,-3.4679,-3.4763,-3.4739,-3.4775,-3.4775,-3.4775,-3.5247,-3.5775,-3.5259,-3.5536,-3.6238,-3.6096,-3.6096,-3.6602,-3.7243,-3.7717,-3.8154,-3.8504,-3.8832,-3.9024,-3.9172,-3.9127,-3.9216,-3.9394,-3.9571,-3.9747,-4.0357,-4.1086,-4.1396,-4.187,-4.2009,-4.2009,-4.2051,-4.2092,-4.2092,-4.2092,-4.2092,-4.2092,-4.2092,-4.2092,-4.2092,-4.2092,-4.2092,-4.2092,-4.2092,-4.2092,-4.2107,-4.2281,-4.2818,-4.3964,-4.5155,-4.5677,-4.5866,-4.588,-4.588,-4.588,-4.588,-4.588,-4.588,-4.588,-4.588,-4.588,-4.588,-4.588,-4.588,-4.588,-4.588,-4.588,-4.5925,-4.5925,-4.6194,-4.6491,-4.6989,-4.7691,-4.8366,-4.9081,-4.9582,-4.9701,-4.9916,-4.9916,-4.9916,-4.9916,-4.9916,-4.9955,-5.0113,-5.0525,-5.0854,-5.1242,-5.17,-5.2437,-5.3155,-5.384,-5.456,-5.5338,-5.5951,-5.6398,-5.6581,-5.6663,-5.6697,-5.6697,-5.6834,-5.7025,-5.7422,-5.7792,-5.8173,-5.8632,-5.9114,-5.9434,-5.96,-5.965,-5.9584,-5.9716,-3.3657,-3.3705,-3.4066,-3.4186,-3.4234,-3.4619,-3.4751,-3.4775,-3.4775,-3.5235,-3.587,-3.581,-3.6048,-3.6508,-3.6414,-3.6508,-3.6824,-3.6824,-3.715,-3.7487,-3.7854,-3.8413,-3.8472,-3.8756,-3.8904,-3.9292,-3.9601,-3.9966,-4.027,-4.0787,-4.1255,-4.1438,-4.187,-4.2092,-4.2092,-4.2092,-4.2092,-4.2092,-4.2092,-4.2092,-4.2092,-4.2092,-4.2092,-4.2092,-4.2092,-4.2092,-4.2092,-4.2092,-4.2092,-4.2092,-4.2092,-4.2789,-4.3935,-4.5169,-4.5764,-4.588,-4.5808,-4.5808,-4.588,-4.588,-4.588,-4.588,-4.588,-4.588,-4.588,-4.588,-4.588,-4.588,-4.588,-4.588,-4.597,-4.6015,-4.615,-4.6491,-4.6916,-4.7578,-4.8282,-4.8959,-4.9661,-4.9797,-4.9876,-4.9916,-4.9916,-4.9916,-4.9916,-4.9916,-4.9916,-5.0097,-5.0717,-5.1135,-5.151,-5.1991,-5.2798,-5.3493,-5.4192,-5.4941,-5.5752,-5.6166,-5.6547,-5.6663,-5.6697,-5.6697,-5.6735,-5.6911,-5.7139,-5.7608,-5.8173,-5.8737,-5.9233,-5.9633,-5.9781,-5.9879,-5.9911,-5.9879,-5.9961,-3.3284,-3.3332,-3.3585,-3.3705,-3.3718,-3.403,-3.4258,-3.4402,-3.4426,-3.48,-3.5475,-3.5823,-3.6238,-3.6602,-3.6615,-3.7116,-3.7209,-3.6837,-3.7487,-3.7808,-3.7625,-3.8187,-3.8381,-3.8666,-3.8935,-3.938,-3.9777,-4.017,-4.0573,-4.1057,-4.1396,-4.148,-4.1829,-4.2092,-4.2092,-4.2092,-4.2092,-4.2092,-4.2092,-4.2092,-4.2092,-4.2092,-4.2092,-4.2092,-4.2092,-4.2092,-4.2092,-4.2092,-4.2092,-4.2223,-4.2353,-4.2687,-4.3573,-4.4385,-4.5068,-4.5329,-4.5445,-4.5576,-4.575,-4.5837,-4.5851,-4.5866,-4.588,-4.588,-4.588,-4.588,-4.588,-4.588,-4.588,-4.588,-4.6358,-4.6506,-4.6829,-4.7206,-4.7792,-4.8449,-4.8944,-4.9486,-4.9836,-4.9836,-4.9916,-4.9916,-4.9916,-4.9916,-4.9955,-5.0214,-5.0175,-5.0502,-5.1022,-5.1554,-5.1843,-5.2413,-5.33,-5.4125,-5.4887,-5.557,-5.62,-5.6531,-5.668,-5.6697,-5.6697,-5.6697,-5.6774,-5.6949,-5.7348,-5.7957,-5.8527,-5.9098,-5.9551,-5.9896,-5.9993,-6.0057,-6.0089,-6.0089,-6.0089,-3.3044,-3.308,-3.3164,-3.3188,-3.3212,-3.3284,-3.3561,-3.385,-3.3898,-3.4186,-3.4788,-3.5519,-3.5831,-3.587,-3.593,-3.6862,-3.7083,-3.6238,-3.7116,-3.8037,-3.7991,-3.8323,-3.8787,-3.9247,-3.9424,-3.9733,-4.0126,-4.0257,-4.0473,-4.1142,-4.162,-4.1606,-4.1787,-4.2092,-4.2092,-4.2092,-4.2092,-4.2092,-4.2092,-4.2092,-4.2092,-4.2092,-4.2092,-4.2092,-4.2092,-4.2092,-4.2092,-4.2092,-4.2092,-4.2295,-4.2571,-4.289,-4.3239,-4.3863,-4.4284,-4.4676,-4.4792,-4.5097,-4.5474,-4.5619,-4.5735,-4.5837,-4.5866,-4.588,-4.588,-4.5925,-4.5925,-4.606,-4.606,-4.6269,-4.6712,-4.7091,-4.745,-4.7961,-4.8573,-4.9107,-4.9526,-4.9876,-4.9876,-4.9916,-4.9916,-4.9916,-4.9916,-4.9916,-5.0136,-5.0409,-5.0755,-5.1151,-5.1564,-5.2055,-5.2433,-5.3181,-5.4101,-5.487,-5.5483,-5.6034,-5.6531,-5.6597,-5.6697,-5.6697,-5.6697,-5.6697,-5.6796,-5.7101,-5.7534,-5.8209,-5.8806,-5.9401,-5.9781,-6.0089,-6.0089,-6.0089,-6.0089,-6.0089,-6.0089,-3.2018,-3.2054,-3.2454,-3.2647,-3.2719,-3.3092,-3.3344,-3.3404,-3.344,-3.3717,-3.4244,-3.4934,-3.5236,-3.5005,-3.5017,-3.5775,-3.6709,-3.5727,-3.6143,-3.7163,-3.7276,-3.7919,-3.8715,-3.9278,-3.9851,-4.03,-4.0702,-4.1057,-4.0958,-4.1536,-4.1968,-4.1912,-4.1953,-4.2092,-4.2092,-4.2092,-4.2092,-4.2092,-4.2092,-4.2092,-4.2092,-4.2092,-4.2092,-4.2092,-4.2092,-4.2092,-4.2092,-4.2092,-4.2092,-4.2266,-4.2571,-4.2832,-4.3079,-4.3398,-4.3819,-4.4037,-4.4139,-4.4501,-4.4864,-4.5155,-4.5329,-4.5721,-4.5764,-4.588,-4.5925,-4.603,-4.6194,-4.6609,-4.6697,-4.6829,-4.7206,-4.7578,-4.7988,-4.8615,-4.9244,-4.9486,-4.9821,-4.9876,-4.9916,-4.9916,-4.9916,-4.9916,-4.9995,-5.0097,-5.037,-5.0679,-5.0946,-5.1355,-5.1807,-5.2376,-5.2996,-5.3874,-5.4754,-5.5185,-5.5599,-5.62,-5.663,-5.668,-5.6735,-5.6812,-5.6812,-5.6735,-5.6872,-5.7385,-5.7867,-5.851,-5.9114,-5.9567,-5.9846,-6.0089,-6.0089,-6.0089,-6.0089,-6.0089,-6.0089]},{"header":{"parameterUnit":"m.s-1","parameterCategory":1,"la1":31.0,"la2":29.5877,"lo1":-88.7671,"lo2":-86.6584,"dy":0.0162,"dx":0.0185,"nx":115,"ny":88,"refTime":"2023-03-28T06:00:00:Z","depth":0,"parameterNumber":3,"parameterNumberName":"V-component_of_WINDS"},"data":[0.0,0.0,0.0,0.0,0.0,0.0,0.0,0.0,0.0,0.0,0.0,0.0,0.0,0.0,0.0,0.0,0.0,0.0,0.0,0.0,0.0,0.0,0.0,0.0,0.0,0.0,0.0,0.0,0.0,0.0,0.0,0.0,0.0,0.0,0.0,0.0,0.0,0.0,0.0,0.0,0.0,0.0,0.0,0.0,0.0,0.0,0.0,0.0,0.0,0.0,0.0,0.0,0.0,0.0,0.0,0.0,0.0,0.0,0.0,0.0,0.0,0.0,0.0,0.0,0.0,0.0,0.0,0.0,0.0,0.0,0.0,0.0,0.0,0.0,0.0,0.0,0.0,0.0,0.0,0.0,0.0,0.0,0.0,0.0,0.0,0.0,0.0,0.0,0.0,0.0,0.0,0.0,0.0,0.0,0.0,0.0,0.0,0.0,0.0,0.0,0.0,0.0,0.0,0.0,0.0,0.0,0.0,0.0,0.0,0.0,0.0,0.0,0.0,0.0,0.0,0.0,0.0,0.0,0.0,0.0,0.0,0.0,0.0,0.0,0.0,0.0,0.0,0.0,0.0,0.0,0.0,0.0,0.0,0.0,0.0,0.0,0.0,0.0,0.0,0.0,0.0,0.0,0.0,0.0,0.0,0.0,0.0,0.0,0.0,0.0,0.0,0.0,0.0,0.0,0.0,0.0,0.0,0.0,0.0,0.0,0.0,0.0,0.0,0.0,0.0,0.0,0.0,0.0,0.0,0.0,0.0,0.0,0.0,0.0,0.0,0.0,0.0,0.0,0.0,0.0,0.0,0.0,0.0,0.0,0.0,0.0,0.0,0.0,0.0,0.0,0.0,0.0,0.0,0.0,0.0,0.0,0.0,0.0,0.0,0.0,0.0,0.0,0.0,0.0,0.0,0.0,0.0,0.0,0.0,0.0,0.0,0.0,0.0,0.0,0.0,0.0,0.0,0.0,0.0,0.0,0.0,0.0,0.0,0.0,0.0,0.0,0.0,0.0,0.0,0.0,0.0,0.0,0.0,0.0,0.0,0.0,0.0,0.0,0.0,0.0,0.0,0.0,0.0,0.0,0.0,0.0,0.0,0.0,0.0,0.0,0.0,0.0,0.0,0.0,0.0,0.0,0.0,0.0,0.0,0.0,0.0,0.0,0.0,0.0,0.0,0.0,0.0,0.0,0.0,0.0,0.0,0.0,0.0,0.0,0.0,0.0,0.0,0.0,0.0,0.0,0.0,0.0,0.0,0.0,0.0,0.0,0.0,0.0,0.0,0.0,0.0,0.0,0.0,0.0,0.0,0.0,0.0,0.0,0.0,0.0,0.0,0.0,0.0,0.0,0.0,0.0,0.0,0.0,0.0,0.0,0.0,0.0,0.0,0.0,0.0,0.0,0.0,0.0,0.0,0.0,0.0,0.0,0.0,0.0,0.0,0.0,0.0,0.0,0.0,0.0,0.0,0.0,0.0,0.0,0.0,0.0,0.0,0.0,0.0,0.0,0.0,0.0,0.0,0.0,0.0,0.0,0.0,0.0,0.0,0.0,0.0,0.0,0.0,0.0,0.0,0.0,0.0,0.0,0.0,0.0,0.0,0.0,0.0,0.0,0.0,0.0,0.0,0.0,0.0,0.0,0.0,0.0,0.0,0.0,0.0,0.0,0.0,0.0,0.0,0.0,0.0,0.0,0.0,0.0,0.0,0.0,0.0,0.0,0.0,0.0,0.0,0.0,0.0,0.0,0.0,0.0,0.0,0.0,0.0,0.0,0.0,0.0,0.0,0.0,0.0,0.0,0.0,0.0,0.0,0.0,0.0,0.0,0.0,0.0,0.0,0.0,0.0,0.0,0.0,0.0,0.0,0.0,0.0,0.0,0.0,0.0,0.0,0.0,0.0,0.0,0.0,0.0,0.0,0.0,0.0,0.0,0.0,0.0,0.0,0.0,0.0,0.0,0.0,0.0,0.0,0.0,0.0,0.0,0.0,0.0,0.0,0.0,0.0,0.0,0.0,0.0,0.0,0.0,0.0,0.0,0.0,0.0,0.0,0.0,0.0,0.0,0.0,0.0,0.0,0.0,0.0,0.0,0.0,0.0,0.0,0.0,0.0,0.0,0.0,0.0,0.0,0.0,0.0,0.0,0.0,0.0,0.0,0.0,0.0,0.0,0.0,0.0,0.0,0.0,0.0,0.0,0.0,0.0,0.0,0.0,0.0,0.0,0.0,0.0,0.0,0.0,0.0,0.0,0.0,0.0,0.0,0.0,0.0,0.0,0.0,0.0,0.0,0.0,0.0,0.0,0.0,0.0,0.0,0.0,0.0,0.0,0.0,0.0,0.0,0.0,0.0,0.0,0.0,0.0,0.0,0.0,0.0,0.0,0.0,0.0,0.0,0.0,0.0,0.0,0.0,0.0,0.0,0.0,0.0,0.0,0.0,0.0,0.0,0.0,0.0,0.0,0.0,0.0,0.0,0.0,0.0,0.0,0.0,0.0,0.0,0.0,0.0,0.0,0.0,0.0,0.0,0.0,0.0,0.0,0.0,0.0,0.0,0.0,0.0,0.0,0.0,0.0,0.0,0.0,0.0,0.0,0.0,0.0,0.0,0.0,0.0,0.0,0.0,0.0,0.0,0.0,0.0,0.0,0.0,0.0,0.0,0.0,0.0,0.0,0.0,0.0,0.0,0.0,0.0,0.0,0.0,0.0,0.0,0.0,0.0,0.0,0.0,0.0,0.0,0.0,0.0,0.0,0.0,0.0,0.0,0.0,0.0,0.0,0.0,0.0,0.0,0.0,0.0,0.0,0.0,0.0,0.0,0.0,0.0,0.0,0.0,0.0,0.0,0.0,0.0,0.0,0.0,0.0,0.0,0.0,0.0,0.0,0.0,0.0,0.0,0.0,0.0,0.0,0.0,0.0,0.0,0.0,0.0,0.0,0.0,0.0,0.0,0.0,0.0,0.0,0.0,0.0,0.0,0.0,0.0,0.0,0.0,0.0,0.0,0.0,0.0,0.0,0.0,0.0,0.0,0.0,0.0,0.0,0.0,0.0,0.0,0.0,0.0,0.0,0.0,0.0,0.0,0.0,0.0,0.0,0.0,0.0,0.0,0.0,0.0,0.0,0.0,0.0,0.0,0.0,0.0,0.0,0.0,0.0,0.0,0.0,0.0,0.0,0.0,0.0,0.0,0.0,0.0,0.0,0.0,0.0,0.0,0.0,0.0,0.0,0.0,0.0,0.0,0.0,0.0,0.0,0.0,0.0,0.0,0.0,0.0,0.0,0.0,0.0,0.0,0.0,0.0,0.0,0.0,0.0,0.0,0.0,0.0,0.0,0.0,0.0,0.0,0.0,0.0,0.0,0.0,0.0,0.0,0.0,0.0,0.0,0.0,0.0,0.0,0.0,0.0,0.0,0.0,0.0,0.0,0.0,0.0,0.0,0.0,0.0,0.0,0.0,0.0,0.0,0.0,0.0,0.0,0.0,0.0,0.0,0.0,0.0,0.0,0.0,0.0,0.0,0.0,0.0,0.0,0.0,0.0,0.0,0.0,0.0,0.0,0.0,0.0,0.0,0.0,0.0,0.0,0.0,0.0,0.0,0.0,0.0,0.0,0.0,0.0,0.0,0.0,0.0,0.0,0.0,0.0,0.0,0.0,0.0,0.0,0.0,0.0,0.0,0.0,0.0,0.0,0.0,0.0,0.0,0.0,0.0,0.0,0.0,0.0,0.0,0.0,0.0,0.0,0.0,0.0,0.0,0.0,0.0,0.0,0.0,0.0,0.0,0.0,0.0,0.0,0.0,0.0,0.0,0.0,0.0,0.0,0.0,0.0,0.0,0.0,0.0,0.0,0.0,0.0,0.0,0.0,0.0,0.0,0.0,0.0,0.0,0.0,0.0,0.0,0.0,0.0,0.0,0.0,0.0,0.0,0.0,0.0,0.0,0.0,0.0,0.0,0.0,0.0,0.0,0.0,0.0,0.0,0.0,0.0,0.0,0.0,0.0,0.0,0.0,0.0,0.0,0.0,0.0,0.0,0.0,0.0,0.0,0.0,0.0,0.0,0.0,0.0,0.0,0.0,0.0,0.0,0.0,0.0,0.0,0.0,0.0,0.0,0.0,0.0,0.0,0.0,0.0,0.0,0.0,0.0,0.0,0.0,0.0,0.0,0.0,0.0,0.0,0.0,0.0,0.0,0.0,0.0,0.0,0.0,0.0,0.0,0.0,0.0,0.0,0.0,0.0,0.0,0.0,0.0,0.0,0.0,0.0,-3.1322,0.0,0.0,0.0,0.0,0.0,0.0,0.0,0.0,0.0,0.0,0.0,0.0,0.0,0.0,0.0,0.0,0.0,0.0,0.0,0.0,0.0,0.0,0.0,0.0,0.0,0.0,0.0,0.0,0.0,0.0,0.0,0.0,0.0,0.0,0.0,0.0,0.0,0.0,0.0,0.0,0.0,0.0,0.0,0.0,0.0,0.0,0.0,0.0,0.0,0.0,0.0,0.0,0.0,0.0,0.0,0.0,0.0,0.0,0.0,0.0,0.0,0.0,0.0,0.0,0.0,0.0,0.0,0.0,0.0,0.0,0.0,0.0,0.0,0.0,0.0,0.0,0.0,0.0,0.0,0.0,0.0,0.0,0.0,0.0,0.0,0.0,0.0,0.0,0.0,0.0,0.0,0.0,0.0,0.0,0.0,0.0,0.0,0.0,0.0,0.0,0.0,0.0,0.0,0.0,0.0,0.0,0.0,0.0,0.0,0.0,-3.2027,-3.1511,-3.1496,-3.1438,-3.1336,0.0,0.0,0.0,0.0,0.0,0.0,0.0,0.0,0.0,0.0,0.0,0.0,0.0,0.0,0.0,0.0,0.0,0.0,0.0,0.0,0.0,0.0,0.0,0.0,0.0,0.0,0.0,0.0,0.0,0.0,0.0,0.0,0.0,0.0,0.0,0.0,0.0,0.0,0.0,0.0,0.0,0.0,0.0,0.0,0.0,0.0,0.0,0.0,0.0,0.0,0.0,0.0,0.0,0.0,0.0,0.0,0.0,0.0,0.0,0.0,0.0,0.0,0.0,0.0,0.0,0.0,0.0,0.0,0.0,0.0,0.0,0.0,0.0,0.0,0.0,0.0,0.0,0.0,0.0,0.0,0.0,0.0,0.0,0.0,0.0,0.0,0.0,0.0,0.0,0.0,0.0,0.0,0.0,0.0,0.0,0.0,0.0,0.0,0.0,0.0,0.0,0.0,0.0,0.0,0.0,0.0,0.0,0.0,0.0,0.0,0.0,0.0,-3.1988,-3.1989,-3.205,0.0,0.0,0.0,0.0,0.0,0.0,0.0,0.0,0.0,0.0,0.0,0.0,0.0,0.0,0.0,0.0,0.0,0.0,0.0,0.0,0.0,0.0,0.0,0.0,0.0,0.0,0.0,0.0,0.0,0.0,0.0,0.0,0.0,0.0,0.0,0.0,0.0,0.0,0.0,0.0,0.0,0.0,0.0,0.0,0.0,0.0,0.0,0.0,0.0,0.0,0.0,0.0,0.0,0.0,0.0,0.0,0.0,0.0,0.0,0.0,0.0,0.0,0.0,0.0,0.0,0.0,0.0,0.0,0.0,0.0,0.0,0.0,0.0,0.0,0.0,0.0,0.0,0.0,0.0,0.0,0.0,0.0,0.0,0.0,0.0,0.0,0.0,0.0,0.0,0.0,0.0,0.0,0.0,0.0,0.0,0.0,0.0,0.0,0.0,0.0,0.0,0.0,0.0,0.0,0.0,0.0,0.0,0.0,0.0,0.0,-3.3846,-3.3773,-3.3457,0.0,-3.4158,0.0,0.0,0.0,0.0,0.0,0.0,0.0,0.0,0.0,0.0,0.0,0.0,0.0,0.0,0.0,0.0,0.0,0.0,0.0,0.0,0.0,0.0,0.0,0.0,0.0,0.0,0.0,0.0,0.0,0.0,0.0,0.0,0.0,0.0,0.0,0.0,0.0,0.0,0.0,0.0,0.0,0.0,0.0,0.0,0.0,0.0,0.0,0.0,0.0,0.0,0.0,0.0,0.0,0.0,0.0,0.0,0.0,0.0,0.0,0.0,0.0,0.0,0.0,0.0,0.0,0.0,0.0,0.0,0.0,0.0,0.0,0.0,0.0,0.0,0.0,0.0,0.0,0.0,0.0,0.0,0.0,0.0,0.0,0.0,0.0,0.0,0.0,0.0,0.0,0.0,0.0,0.0,0.0,0.0,0.0,0.0,0.0,0.0,0.0,0.0,0.0,0.0,0.0,0.0,0.0,0.0,0.0,0.0,0.0,0.0,-3.3744,-3.3713,-3.3454,-3.3629,0.0,0.0,0.0,0.0,0.0,0.0,0.0,0.0,0.0,0.0,0.0,0.0,0.0,0.0,0.0,0.0,0.0,0.0,0.0,0.0,0.0,0.0,0.0,0.0,0.0,0.0,0.0,0.0,0.0,0.0,0.0,0.0,0.0,0.0,0.0,0.0,0.0,0.0,0.0,0.0,0.0,0.0,0.0,0.0,0.0,0.0,0.0,0.0,0.0,0.0,0.0,0.0,0.0,0.0,0.0,0.0,0.0,0.0,0.0,0.0,0.0,0.0,0.0,0.0,0.0,0.0,0.0,0.0,0.0,0.0,0.0,0.0,0.0,0.0,0.0,0.0,0.0,0.0,0.0,0.0,0.0,0.0,0.0,0.0,0.0,0.0,0.0,0.0,0.0,0.0,0.0,0.0,0.0,0.0,0.0,0.0,0.0,0.0,0.0,0.0,0.0,0.0,0.0,0.0,0.0,0.0,0.0,0.0,0.0,0.0,-3.4486,-3.4053,-3.4053,-3.385,-3.3995,-3.4456,0.0,0.0,0.0,0.0,0.0,0.0,0.0,0.0,0.0,0.0,0.0,0.0,0.0,0.0,0.0,0.0,0.0,0.0,0.0,0.0,0.0,0.0,0.0,0.0,0.0,0.0,0.0,0.0,0.0,0.0,0.0,0.0,0.0,0.0,0.0,0.0,0.0,0.0,0.0,0.0,0.0,0.0,0.0,0.0,0.0,0.0,0.0,0.0,0.0,0.0,0.0,0.0,0.0,0.0,0.0,0.0,0.0,0.0,0.0,0.0,0.0,0.0,0.0,0.0,0.0,0.0,0.0,0.0,0.0,0.0,0.0,0.0,0.0,0.0,0.0,0.0,0.0,0.0,0.0,0.0,0.0,0.0,0.0,0.0,0.0,0.0,0.0,0.0,0.0,0.0,0.0,0.0,0.0,0.0,0.0,0.0,0.0,0.0,0.0,0.0,0.0,0.0,0.0,0.0,0.0,0.0,0.0,0.0,-3.6829,-3.5897,-3.54,-3.537,-3.519,-3.5121,0.0,0.0,0.0,0.0,0.0,0.0,0.0,0.0,0.0,0.0,0.0,0.0,0.0,0.0,0.0,0.0,0.0,0.0,0.0,0.0,0.0,0.0,0.0,0.0,0.0,0.0,0.0,0.0,0.0,0.0,0.0,0.0,0.0,0.0,0.0,0.0,0.0,0.0,0.0,0.0,0.0,0.0,0.0,0.0,0.0,0.0,0.0,0.0,0.0,0.0,0.0,0.0,0.0,0.0,0.0,0.0,0.0,0.0,0.0,0.0,0.0,0.0,0.0,0.0,0.0,0.0,0.0,0.0,0.0,0.0,0.0,0.0,0.0,0.0,0.0,0.0,0.0,0.0,0.0,0.0,0.0,0.0,0.0,0.0,0.0,0.0,0.0,0.0,0.0,0.0,0.0,0.0,0.0,0.0,0.0,0.0,0.0,0.0,0.0,0.0,0.0,0.0,0.0,0.0,0.0,0.0,0.0,0.0,0.0,-3.6662,-3.5923,-3.5439,-3.5326,-3.5246,-3.5082,0.0,0.0,0.0,0.0,0.0,0.0,0.0,0.0,0.0,0.0,0.0,0.0,0.0,0.0,0.0,0.0,0.0,0.0,0.0,0.0,0.0,0.0,0.0,0.0,0.0,0.0,0.0,0.0,0.0,0.0,0.0,0.0,0.0,0.0,0.0,0.0,0.0,0.0,0.0,0.0,0.0,0.0,0.0,0.0,0.0,0.0,0.0,0.0,0.0,0.0,0.0,0.0,0.0,0.0,0.0,0.0,0.0,0.0,0.0,0.0,0.0,0.0,0.0,0.0,0.0,0.0,0.0,0.0,0.0,0.0,0.0,0.0,0.0,0.0,0.0,0.0,0.0,0.0,0.0,0.0,0.0,0.0,0.0,0.0,0.0,0.0,0.0,0.0,0.0,0.0,0.0,0.0,0.0,0.0,0.0,0.0,0.0,0.0,0.0,0.0,0.0,0.0,0.0,0.0,0.0,0.0,0.0,0.0,0.0,-3.6178,0.0,-3.52,-3.5294,-3.5261,-3.5049,0.0,0.0,0.0,0.0,0.0,0.0,0.0,0.0,0.0,0.0,0.0,0.0,0.0,0.0,0.0,0.0,0.0,0.0,0.0,0.0,0.0,0.0,0.0,0.0,0.0,0.0,0.0,0.0,0.0,0.0,0.0,0.0,0.0,0.0,0.0,0.0,0.0,0.0,0.0,0.0,0.0,0.0,0.0,0.0,0.0,0.0,0.0,0.0,0.0,0.0,0.0,0.0,0.0,0.0,0.0,0.0,0.0,0.0,0.0,0.0,0.0,0.0,0.0,0.0,0.0,0.0,0.0,0.0,0.0,0.0,0.0,0.0,0.0,0.0,0.0,0.0,0.0,0.0,0.0,0.0,0.0,0.0,0.0,0.0,0.0,0.0,0.0,0.0,0.0,0.0,0.0,0.0,0.0,0.0,0.0,0.0,0.0,0.0,0.0,0.0,0.0,0.0,0.0,0.0,0.0,0.0,0.0,0.0,-3.6336,-3.5539,-3.4925,-3.4925,-3.5474,-3.5326,-3.51,0.0,0.0,0.0,0.0,0.0,0.0,0.0,0.0,0.0,0.0,0.0,0.0,0.0,0.0,0.0,0.0,0.0,0.0,0.0,0.0,0.0,0.0,0.0,0.0,0.0,0.0,0.0,0.0,0.0,0.0,0.0,0.0,0.0,0.0,0.0,0.0,0.0,0.0,0.0,0.0,0.0,0.0,0.0,0.0,0.0,0.0,0.0,0.0,0.0,0.0,0.0,0.0,0.0,0.0,0.0,0.0,0.0,0.0,0.0,0.0,0.0,0.0,0.0,0.0,0.0,0.0,0.0,0.0,0.0,0.0,0.0,0.0,0.0,0.0,0.0,0.0,0.0,0.0,0.0,0.0,0.0,0.0,0.0,0.0,0.0,0.0,0.0,0.0,0.0,0.0,0.0,0.0,0.0,0.0,0.0,0.0,0.0,0.0,0.0,0.0,0.0,0.0,0.0,0.0,0.0,0.0,0.0,0.0,0.0,-3.6507,-3.6105,-3.5918,-3.5958,-3.5703,-3.5412,0.0,0.0,0.0,0.0,0.0,0.0,0.0,0.0,0.0,0.0,0.0,0.0,0.0,0.0,0.0,0.0,0.0,0.0,0.0,0.0,0.0,0.0,0.0,0.0,0.0,0.0,0.0,0.0,0.0,0.0,0.0,0.0,0.0,0.0,0.0,0.0,0.0,0.0,0.0,0.0,0.0,0.0,0.0,0.0,0.0,0.0,0.0,0.0,0.0,0.0,0.0,0.0,0.0,0.0,0.0,0.0,0.0,0.0,0.0,0.0,0.0,0.0,0.0,0.0,0.0,0.0,0.0,0.0,0.0,0.0,0.0,0.0,0.0,0.0,0.0,0.0,0.0,0.0,0.0,0.0,0.0,0.0,0.0,0.0,0.0,0.0,0.0,0.0,0.0,0.0,0.0,0.0,0.0,0.0,0.0,0.0,0.0,0.0,0.0,0.0,0.0,0.0,0.0,0.0,0.0,0.0,0.0,0.0,0.0,-3.7617,-3.6986,-3.6677,-3.6814,-3.6418,-3.5896,-3.5299,0.0,0.0,0.0,0.0,0.0,0.0,0.0,0.0,0.0,0.0,0.0,0.0,0.0,0.0,0.0,0.0,0.0,0.0,0.0,0.0,0.0,0.0,0.0,0.0,0.0,0.0,0.0,0.0,0.0,0.0,0.0,0.0,0.0,0.0,0.0,0.0,0.0,0.0,0.0,0.0,0.0,0.0,0.0,0.0,0.0,0.0,0.0,0.0,0.0,0.0,0.0,0.0,0.0,0.0,0.0,0.0,0.0,0.0,0.0,0.0,0.0,0.0,0.0,0.0,0.0,0.0,0.0,0.0,0.0,0.0,0.0,0.0,0.0,0.0,0.0,0.0,0.0,0.0,0.0,0.0,0.0,0.0,0.0,0.0,0.0,0.0,0.0,0.0,0.0,0.0,0.0,0.0,0.0,0.0,0.0,0.0,0.0,0.0,0.0,0.0,0.0,0.0,0.0,0.0,0.0,0.0,0.0,0.0,-3.8874,-3.7696,-3.7359,-3.7903,-3.7365,-3.6578,0.0,0.0,0.0,0.0,0.0,0.0,0.0,0.0,0.0,0.0,0.0,0.0,0.0,0.0,0.0,0.0,0.0,0.0,0.0,0.0,0.0,0.0,0.0,0.0,0.0,0.0,0.0,0.0,0.0,0.0,0.0,0.0,0.0,0.0,0.0,0.0,0.0,0.0,0.0,0.0,0.0,0.0,0.0,0.0,0.0,0.0,0.0,0.0,0.0,0.0,0.0,0.0,0.0,0.0,0.0,0.0,0.0,0.0,0.0,0.0,0.0,0.0,0.0,0.0,0.0,0.0,0.0,0.0,0.0,0.0,0.0,0.0,0.0,0.0,0.0,0.0,0.0,0.0,0.0,0.0,0.0,0.0,0.0,0.0,0.0,0.0,0.0,0.0,0.0,0.0,0.0,0.0,0.0,0.0,0.0,0.0,0.0,0.0,0.0,0.0,0.0,0.0,0.0,0.0,0.0,0.0,0.0,0.0,0.0,-3.9727,-4.0032,-3.9987,-3.9498,-3.8341,-3.7591,0.0,0.0,0.0,0.0,0.0,0.0,0.0,0.0,0.0,0.0,0.0,0.0,0.0,0.0,0.0,0.0,0.0,0.0,0.0,0.0,0.0,0.0,0.0,0.0,0.0,0.0,0.0,0.0,0.0,0.0,0.0,0.0,0.0,0.0,0.0,0.0,0.0,0.0,0.0,0.0,0.0,0.0,0.0,0.0,0.0,0.0,0.0,0.0,0.0,0.0,0.0,0.0,0.0,0.0,0.0,0.0,0.0,0.0,0.0,0.0,0.0,0.0,0.0,0.0,0.0,0.0,0.0,0.0,0.0,0.0,0.0,0.0,0.0,0.0,0.0,0.0,0.0,0.0,0.0,0.0,0.0,0.0,0.0,0.0,0.0,0.0,0.0,0.0,0.0,0.0,0.0,0.0,0.0,0.0,0.0,0.0,0.0,0.0,0.0,0.0,0.0,0.0,0.0,0.0,0.0,0.0,0.0,0.0,-3.9736,-4.0108,-4.1576,-4.2122,-4.1641,-3.9629,-3.8482,0.0,0.0,0.0,0.0,0.0,0.0,0.0,0.0,0.0,0.0,0.0,0.0,0.0,0.0,0.0,0.0,0.0,0.0,0.0,0.0,0.0,0.0,0.0,0.0,0.0,0.0,0.0,0.0,0.0,0.0,0.0,0.0,0.0,0.0,0.0,0.0,0.0,0.0,0.0,0.0,0.0,0.0,0.0,0.0,0.0,0.0,0.0,0.0,0.0,0.0,0.0,0.0,0.0,0.0,0.0,0.0,0.0,0.0,0.0,0.0,0.0,0.0,0.0,0.0,0.0,0.0,0.0,0.0,0.0,0.0,0.0,0.0,0.0,0.0,0.0,0.0,0.0,0.0,0.0,0.0,0.0,0.0,0.0,0.0,0.0,0.0,0.0,0.0,0.0,0.0,0.0,0.0,0.0,0.0,0.0,0.0,0.0,0.0,0.0,0.0,0.0,0.0,0.0,0.0,0.0,0.0,0.0,0.0,-4.0309,-4.0363,-4.2541,-4.3719,-4.3719,-4.1087,-3.9503,0.0,0.0,0.0,0.0,0.0,0.0,0.0,0.0,0.0,0.0,0.0,0.0,0.0,0.0,0.0,0.0,0.0,0.0,0.0,0.0,0.0,0.0,0.0,0.0,0.0,0.0,0.0,0.0,0.0,0.0,0.0,0.0,0.0,0.0,0.0,0.0,0.0,0.0,0.0,0.0,0.0,0.0,0.0,0.0,0.0,0.0,0.0,0.0,0.0,0.0,0.0,0.0,0.0,0.0,0.0,0.0,0.0,0.0,0.0,0.0,0.0,0.0,0.0,0.0,0.0,0.0,0.0,0.0,0.0,0.0,0.0,0.0,0.0,0.0,0.0,0.0,0.0,0.0,0.0,0.0,0.0,0.0,0.0,0.0,0.0,0.0,0.0,0.0,0.0,0.0,0.0,0.0,0.0,0.0,0.0,0.0,0.0,0.0,0.0,0.0,0.0,0.0,0.0,0.0,0.0,0.0,0.0,0.0,-4.0836,-4.1883,-4.3089,-4.3994,-4.4528,-4.2623,-4.1582,0.0,0.0,0.0,0.0,0.0,0.0,0.0,0.0,0.0,0.0,0.0,0.0,0.0,0.0,0.0,0.0,0.0,0.0,0.0,0.0,0.0,0.0,0.0,0.0,0.0,0.0,0.0,0.0,0.0,0.0,0.0,0.0,0.0,0.0,0.0,0.0,0.0,0.0,0.0,0.0,0.0,0.0,0.0,0.0,0.0,0.0,0.0,0.0,-3.8626,0.0,0.0,0.0,0.0,0.0,0.0,0.0,0.0,0.0,0.0,0.0,0.0,0.0,0.0,0.0,0.0,0.0,0.0,0.0,0.0,0.0,0.0,0.0,0.0,0.0,0.0,0.0,0.0,0.0,0.0,0.0,0.0,0.0,0.0,0.0,0.0,0.0,0.0,0.0,0.0,0.0,0.0,0.0,0.0,0.0,0.0,0.0,0.0,0.0,0.0,0.0,0.0,0.0,0.0,0.0,0.0,0.0,0.0,0.0,-4.1241,-4.2397,-4.388,-4.4868,-4.5208,-4.433,-4.3424,0.0,0.0,0.0,0.0,0.0,0.0,0.0,0.0,0.0,0.0,0.0,0.0,0.0,0.0,0.0,0.0,0.0,0.0,0.0,0.0,0.0,0.0,0.0,0.0,0.0,0.0,0.0,0.0,0.0,0.0,0.0,0.0,0.0,0.0,0.0,0.0,0.0,0.0,0.0,0.0,0.0,0.0,0.0,0.0,0.0,0.0,0.0,0.0,0.0,0.0,0.0,0.0,0.0,0.0,0.0,0.0,0.0,0.0,0.0,0.0,0.0,0.0,0.0,0.0,0.0,0.0,0.0,0.0,0.0,0.0,0.0,0.0,0.0,0.0,0.0,0.0,0.0,0.0,0.0,0.0,0.0,0.0,0.0,0.0,0.0,0.0,0.0,0.0,0.0,0.0,0.0,0.0,0.0,0.0,0.0,0.0,0.0,0.0,0.0,0.0,0.0,0.0,0.0,0.0,0.0,0.0,0.0,-4.0431,-4.1692,-4.2928,-4.4802,-4.5856,-4.5953,-4.5622,-4.4777,-4.3406,0.0,0.0,0.0,0.0,0.0,0.0,0.0,0.0,0.0,0.0,0.0,0.0,0.0,0.0,0.0,0.0,0.0,0.0,0.0,0.0,0.0,0.0,0.0,0.0,0.0,0.0,0.0,0.0,0.0,0.0,0.0,0.0,0.0,0.0,0.0,0.0,0.0,0.0,-3.8295,-3.8223,0.0,0.0,0.0,0.0,0.0,0.0,0.0,0.0,-3.8563,0.0,0.0,0.0,0.0,0.0,0.0,0.0,0.0,0.0,0.0,0.0,0.0,0.0,0.0,0.0,0.0,0.0,0.0,0.0,0.0,0.0,0.0,0.0,0.0,0.0,0.0,0.0,0.0,0.0,0.0,0.0,0.0,0.0,0.0,0.0,0.0,0.0,0.0,0.0,0.0,0.0,0.0,0.0,0.0,0.0,0.0,0.0,0.0,0.0,0.0,0.0,0.0,0.0,0.0,0.0,0.0,-4.0702,-4.0989,-4.2446,-4.5142,-4.5629,-4.6083,-4.6649,-4.543,-4.4553,-4.4096,0.0,0.0,0.0,0.0,0.0,0.0,0.0,0.0,0.0,0.0,0.0,0.0,0.0,0.0,0.0,0.0,0.0,0.0,0.0,0.0,0.0,0.0,0.0,0.0,0.0,0.0,0.0,0.0,0.0,0.0,0.0,0.0,0.0,0.0,0.0,0.0,0.0,0.0,0.0,-3.8422,-3.8359,0.0,0.0,0.0,0.0,0.0,0.0,0.0,0.0,-3.8855,0.0,0.0,0.0,0.0,0.0,0.0,0.0,0.0,0.0,0.0,0.0,0.0,0.0,0.0,0.0,0.0,0.0,0.0,0.0,0.0,0.0,0.0,0.0,0.0,0.0,0.0,0.0,0.0,0.0,0.0,0.0,0.0,0.0,0.0,0.0,0.0,0.0,0.0,0.0,0.0,0.0,0.0,0.0,0.0,0.0,0.0,0.0,0.0,0.0,0.0,0.0,0.0,0.0,0.0,0.0,-4.1069,-4.2318,-4.3879,-4.5743,-4.6164,-4.652,-4.6844,-4.5753,-4.4875,0.0,0.0,0.0,0.0,0.0,0.0,0.0,0.0,0.0,0.0,0.0,0.0,0.0,0.0,0.0,0.0,0.0,0.0,0.0,0.0,0.0,0.0,0.0,0.0,0.0,0.0,0.0,0.0,0.0,0.0,0.0,0.0,0.0,0.0,0.0,0.0,0.0,0.0,0.0,0.0,-3.8654,-3.8645,-3.9111,0.0,0.0,0.0,0.0,0.0,0.0,-3.8792,-3.8717,0.0,0.0,0.0,0.0,0.0,0.0,0.0,0.0,0.0,0.0,0.0,0.0,0.0,0.0,0.0,0.0,0.0,0.0,0.0,0.0,0.0,0.0,0.0,0.0,0.0,0.0,0.0,0.0,0.0,0.0,0.0,0.0,0.0,0.0,0.0,0.0,0.0,0.0,0.0,0.0,0.0,0.0,0.0,0.0,0.0,0.0,0.0,0.0,0.0,0.0,0.0,0.0,0.0,0.0,0.0,-4.1372,-4.3459,-4.5059,-4.6002,-4.6585,-4.6911,-4.6894,-4.5733,-4.4839,0.0,0.0,0.0,0.0,0.0,0.0,0.0,0.0,0.0,0.0,0.0,0.0,0.0,0.0,0.0,0.0,0.0,0.0,0.0,0.0,0.0,0.0,0.0,0.0,0.0,0.0,0.0,0.0,0.0,0.0,0.0,0.0,0.0,0.0,0.0,0.0,0.0,0.0,0.0,0.0,0.0,-3.8993,-3.9596,-3.9183,0.0,0.0,0.0,0.0,-3.8922,-3.889,0.0,0.0,0.0,0.0,0.0,0.0,0.0,0.0,0.0,0.0,0.0,0.0,0.0,0.0,0.0,0.0,0.0,0.0,0.0,0.0,0.0,0.0,0.0,0.0,0.0,0.0,0.0,0.0,0.0,0.0,0.0,0.0,0.0,0.0,0.0,0.0,0.0,0.0,0.0,0.0,0.0,0.0,0.0,0.0,0.0,0.0,0.0,0.0,0.0,0.0,0.0,0.0,0.0,0.0,0.0,0.0,-4.2062,-4.3733,-4.5285,-4.6682,-4.6862,-4.6911,-4.6894,-4.4682,-4.3711,0.0,0.0,0.0,0.0,0.0,0.0,0.0,0.0,0.0,0.0,0.0,0.0,0.0,0.0,0.0,0.0,0.0,0.0,0.0,0.0,0.0,0.0,0.0,0.0,0.0,0.0,0.0,0.0,0.0,0.0,0.0,0.0,0.0,0.0,0.0,0.0,0.0,0.0,0.0,0.0,0.0,-3.9151,-4.0141,-3.9455,-3.9201,0.0,0.0,-3.9718,-4.028,-4.0265,0.0,0.0,0.0,0.0,0.0,0.0,0.0,0.0,0.0,0.0,0.0,0.0,0.0,0.0,0.0,0.0,0.0,0.0,0.0,0.0,0.0,0.0,0.0,0.0,0.0,0.0,0.0,0.0,0.0,0.0,0.0,0.0,0.0,0.0,0.0,0.0,0.0,0.0,0.0,0.0,0.0,0.0,0.0,0.0,0.0,0.0,0.0,0.0,0.0,0.0,0.0,0.0,0.0,0.0,0.0,-4.1694,-4.2815,-4.4863,-4.6243,-4.686,-4.6911,-4.6911,-4.6911,-4.4907,-4.3967,0.0,0.0,0.0,0.0,0.0,0.0,0.0,0.0,0.0,0.0,0.0,0.0,0.0,0.0,0.0,0.0,0.0,0.0,0.0,0.0,0.0,0.0,0.0,0.0,0.0,0.0,0.0,0.0,0.0,0.0,0.0,0.0,0.0,0.0,0.0,0.0,0.0,0.0,0.0,0.0,0.0,0.0,-4.0449,-4.0032,0.0,0.0,0.0,-3.9662,-3.9843,0.0,0.0,0.0,0.0,0.0,0.0,0.0,0.0,0.0,0.0,0.0,0.0,0.0,0.0,0.0,0.0,0.0,0.0,0.0,0.0,0.0,0.0,0.0,0.0,0.0,0.0,0.0,0.0,0.0,0.0,0.0,0.0,0.0,0.0,0.0,0.0,0.0,0.0,0.0,0.0,0.0,0.0,0.0,0.0,0.0,0.0,0.0,0.0,0.0,0.0,0.0,0.0,0.0,0.0,0.0,0.0,0.0,-4.323,-4.5638,-4.6911,-4.6911,-4.6911,-4.6911,-4.686,-4.5423,0.0,0.0,0.0,0.0,0.0,0.0,0.0,0.0,0.0,0.0,0.0,0.0,0.0,0.0,0.0,0.0,0.0,0.0,0.0,0.0,0.0,0.0,0.0,0.0,0.0,0.0,0.0,-3.9099,0.0,0.0,0.0,0.0,0.0,0.0,0.0,0.0,0.0,0.0,0.0,0.0,0.0,0.0,-4.0644,-4.076,-4.0688,-4.0633,0.0,0.0,-3.9853,-3.9869,-4.016,-4.0059,0.0,0.0,0.0,0.0,0.0,0.0,0.0,0.0,0.0,0.0,0.0,0.0,0.0,0.0,0.0,0.0,0.0,0.0,0.0,0.0,0.0,0.0,0.0,0.0,0.0,0.0,0.0,0.0,0.0,0.0,0.0,0.0,0.0,0.0,0.0,0.0,0.0,0.0,0.0,0.0,0.0,0.0,0.0,0.0,0.0,0.0,0.0,0.0,0.0,0.0,0.0,0.0,0.0,0.0,0.0,-4.3278,-4.5622,-4.6911,-4.6911,-4.6911,-4.6911,-4.6911,-4.5993,-4.513,0.0,0.0,0.0,0.0,0.0,0.0,0.0,0.0,0.0,0.0,0.0,0.0,0.0,0.0,0.0,0.0,0.0,0.0,0.0,0.0,0.0,0.0,0.0,0.0,0.0,0.0,0.0,0.0,0.0,0.0,0.0,0.0,0.0,0.0,0.0,0.0,0.0,0.0,0.0,0.0,0.0,-4.1226,-4.1255,-4.124,-4.1581,0.0,0.0,-4.0813,-4.1295,-4.1236,-4.0931,-4.0113,0.0,0.0,0.0,0.0,0.0,0.0,0.0,0.0,0.0,0.0,0.0,0.0,0.0,0.0,0.0,0.0,0.0,0.0,0.0,0.0,0.0,0.0,0.0,0.0,0.0,0.0,0.0,0.0,0.0,0.0,0.0,0.0,0.0,0.0,0.0,0.0,0.0,0.0,0.0,0.0,0.0,0.0,0.0,0.0,0.0,0.0,0.0,0.0,0.0,0.0,0.0,0.0,0.0,-4.3422,-4.3887,-4.5882,-4.6911,-4.6911,-4.6911,-4.6911,-4.6911,-4.6076,-4.5162,0.0,0.0,0.0,0.0,0.0,0.0,0.0,0.0,0.0,0.0,0.0,0.0,0.0,0.0,0.0,0.0,0.0,0.0,0.0,0.0,0.0,0.0,0.0,0.0,0.0,0.0,0.0,0.0,-3.9258,-3.9126,-3.8827,0.0,0.0,0.0,0.0,0.0,0.0,0.0,0.0,0.0,0.0,-4.1922,-4.1917,-4.1828,0.0,0.0,-4.1138,-4.0713,-4.1106,-4.1208,-4.0946,-4.0109,-3.9987,0.0,0.0,0.0,0.0,0.0,0.0,0.0,0.0,0.0,0.0,0.0,0.0,0.0,0.0,0.0,0.0,0.0,0.0,0.0,0.0,0.0,0.0,0.0,0.0,0.0,0.0,0.0,0.0,0.0,0.0,0.0,0.0,0.0,0.0,0.0,0.0,0.0,0.0,0.0,0.0,0.0,0.0,0.0,0.0,0.0,0.0,0.0,0.0,0.0,0.0,0.0,0.0,-4.3775,-4.4321,-4.6027,-4.6911,-4.6911,-4.6911,-4.6911,-4.6911,-4.6304,-4.5586,0.0,0.0,0.0,0.0,0.0,0.0,0.0,0.0,0.0,0.0,0.0,0.0,0.0,0.0,0.0,0.0,0.0,0.0,0.0,0.0,0.0,0.0,0.0,0.0,0.0,0.0,0.0,0.0,-3.9546,-3.9393,-3.9143,0.0,0.0,0.0,0.0,0.0,0.0,0.0,0.0,0.0,0.0,-4.2435,-4.2219,-4.2126,-4.1957,-4.145,-4.0977,-4.0792,-4.0935,-4.1093,-4.0945,-4.0353,0.0,0.0,0.0,0.0,0.0,0.0,0.0,0.0,0.0,0.0,0.0,0.0,0.0,0.0,0.0,0.0,0.0,0.0,0.0,0.0,0.0,0.0,0.0,0.0,0.0,0.0,0.0,0.0,0.0,0.0,-3.8391,0.0,0.0,0.0,0.0,0.0,0.0,0.0,0.0,0.0,0.0,0.0,0.0,0.0,0.0,0.0,0.0,0.0,0.0,0.0,0.0,0.0,0.0,-4.4289,-4.4321,-4.6027,-4.6911,-4.6911,-4.6911,-4.6911,-4.6911,-4.686,-4.6468,-4.5602,0.0,0.0,0.0,0.0,0.0,0.0,0.0,0.0,0.0,0.0,0.0,0.0,0.0,0.0,0.0,0.0,0.0,0.0,0.0,0.0,0.0,0.0,0.0,0.0,0.0,0.0,-3.8863,-3.9237,-3.9605,0.0,0.0,0.0,0.0,0.0,0.0,0.0,0.0,0.0,0.0,-4.2439,-4.2737,-4.203,-4.2015,-4.1987,-4.1814,-4.1425,-4.1128,-4.1034,-4.099,-4.0976,0.0,0.0,0.0,0.0,0.0,0.0,0.0,0.0,0.0,0.0,0.0,0.0,0.0,0.0,0.0,0.0,0.0,0.0,0.0,0.0,0.0,0.0,0.0,0.0,0.0,0.0,0.0,-3.9149,-3.912,0.0,0.0,0.0,0.0,0.0,0.0,0.0,0.0,0.0,0.0,0.0,-4.1626,-4.1757,0.0,0.0,0.0,0.0,0.0,0.0,0.0,0.0,0.0,0.0,0.0,0.0,-4.4321,-4.4385,-4.6027,-4.6911,-4.6911,-4.6911,-4.6911,-4.6911,-4.6911,-4.6484,-4.5635,0.0,0.0,0.0,0.0,0.0,0.0,0.0,0.0,0.0,0.0,0.0,0.0,0.0,0.0,0.0,0.0,0.0,0.0,0.0,0.0,0.0,0.0,0.0,0.0,0.0,-3.9001,0.0,0.0,0.0,0.0,0.0,0.0,0.0,0.0,0.0,0.0,0.0,-4.2439,-4.248,-4.2416,-4.2219,-4.1906,-4.1862,-4.1805,0.0,0.0,0.0,0.0,0.0,0.0,0.0,0.0,0.0,0.0,0.0,0.0,0.0,0.0,-4.0656,-3.9885,-3.9892,-4.0182,-4.0695,0.0,0.0,0.0,0.0,0.0,0.0,0.0,0.0,0.0,0.0,0.0,0.0,0.0,0.0,0.0,0.0,-3.9735,0.0,0.0,0.0,0.0,0.0,0.0,0.0,0.0,-4.161,-4.2478,-4.3154,-4.3314,-4.3684,0.0,-4.3777,-4.2813,0.0,0.0,0.0,0.0,0.0,0.0,0.0,0.0,-4.4321,-4.4369,-4.6009,-4.6911,-4.6911,-4.6911,-4.6911,-4.6911,-4.6911,-4.6631,-4.6058,-4.5228,-4.4465,0.0,0.0,0.0,0.0,0.0,0.0,0.0,0.0,0.0,0.0,0.0,0.0,0.0,0.0,0.0,0.0,0.0,0.0,0.0,0.0,0.0,0.0,0.0,-3.9863,0.0,0.0,0.0,0.0,0.0,0.0,0.0,0.0,0.0,-4.2281,-4.2423,-4.2621,-4.2872,-4.2374,-4.192,-4.1772,0.0,0.0,0.0,0.0,0.0,0.0,0.0,-4.088,-4.0836,-4.0976,-4.1278,-4.1527,-4.1584,-4.1721,-4.21,0.0,0.0,-4.0936,-4.0898,-4.1092,-4.1437,-4.1194,-4.112,-4.171,-4.1467,-4.1317,0.0,0.0,0.0,0.0,0.0,0.0,0.0,0.0,-4.061,-4.021,0.0,-4.0291,0.0,0.0,0.0,0.0,0.0,-4.0776,0.0,0.0,-4.4235,-4.5352,-4.4751,-4.5296,-4.5635,-4.5602,-4.4823,-4.4369,-4.4337,-4.4353,0.0,0.0,0.0,0.0,0.0,0.0,-4.4337,-4.4401,-4.6044,-4.6911,-4.6927,-4.6925,-4.6975,-4.7024,-4.6973,-4.6973,-4.6925,-4.6205,-4.5715,-4.5667,-4.4028,0.0,0.0,0.0,0.0,0.0,0.0,0.0,0.0,0.0,0.0,0.0,0.0,0.0,0.0,0.0,0.0,0.0,0.0,0.0,0.0,-4.1165,0.0,0.0,0.0,0.0,0.0,0.0,0.0,0.0,0.0,0.0,-4.2252,-4.2576,-4.2871,-4.2856,0.0,0.0,0.0,0.0,-4.0968,-4.0766,-4.0729,-4.0714,-4.0741,-4.0866,-4.0999,-4.1042,0.0,0.0,-4.2788,-4.2776,-4.2671,-4.2747,-4.2851,-4.2838,-4.2516,-4.2525,-4.2595,-4.244,-4.2552,-4.2649,-4.2494,-4.248,-4.2431,-4.0688,0.0,0.0,0.0,0.0,-4.0785,-4.1371,-4.202,-4.2569,-4.2635,-4.2425,-4.2667,0.0,0.0,0.0,0.0,0.0,0.0,-4.1399,-4.2976,-4.3783,-4.4914,-4.6243,-4.6453,-4.6532,-4.65,-4.6272,-4.6175,-4.6157,-4.614,-4.5066,-4.2916,0.0,0.0,0.0,0.0,-4.4595,-4.5261,-4.6336,-4.6911,-4.6927,-4.741,-4.7929,-4.8382,-4.8398,-4.8398,-4.8414,-4.8149,-4.7723,-4.7117,-4.6609,0.0,0.0,0.0,0.0,0.0,0.0,0.0,0.0,0.0,0.0,0.0,0.0,0.0,0.0,0.0,0.0,0.0,0.0,0.0,-4.1357,-4.1746,-4.1635,0.0,0.0,0.0,0.0,0.0,0.0,0.0,0.0,0.0,-4.1993,-4.2125,-4.2335,0.0,0.0,-4.1247,-4.1184,-4.1035,-4.094,-4.0918,-4.0918,0.0,0.0,-4.1612,-4.1746,-4.214,-4.2445,-4.2708,-4.2868,-4.2905,-4.3056,-4.3451,-4.3572,-4.3704,-4.3927,-4.3426,-4.2925,-4.2861,-4.3215,-4.3531,-4.3518,-4.3756,-4.3993,-4.2164,-4.1727,-4.116,-4.1096,-4.1403,-4.2116,-4.2828,-4.3476,-4.3962,-4.3945,-4.3638,-4.3994,-4.3525,-4.2429,-4.2056,0.0,0.0,0.0,-4.2171,-4.414,-4.4042,-4.4899,-4.6423,-4.6781,-4.6911,-4.6911,-4.6911,-4.6911,-4.6911,-4.6548,-4.5586,-4.4012,0.0,0.0,-4.348,-4.4385,-4.5082,-4.5635,-4.6759,-4.733,-4.7346,-4.8042,-4.8573,-4.8977,-4.8994,-4.8994,-4.8994,-4.8994,-4.8747,-4.8239,-4.7877,-4.694,0.0,0.0,0.0,0.0,0.0,0.0,0.0,0.0,0.0,0.0,0.0,-4.107,-4.0842,0.0,0.0,0.0,-4.1616,-4.2029,-4.2055,-4.2195,0.0,0.0,0.0,0.0,0.0,0.0,0.0,-4.0717,-4.1673,-4.2286,-4.1973,-4.1789,-4.1828,-4.2125,-4.1505,-4.1052,-4.1037,0.0,-4.1088,-4.1348,-4.1388,-4.1558,-4.2163,-4.2315,-4.2503,-4.3072,-4.3245,-4.3384,-4.357,-4.3625,-4.3807,-4.4108,-4.4212,-4.4317,-4.4615,-4.4093,-4.3689,-4.3702,-4.3977,-4.4199,-4.4212,-4.4487,-4.4681,-4.38,-4.3686,-4.2439,-4.2261,-4.2829,-4.3573,-4.4253,-4.4868,-4.4933,-4.4527,-4.3864,-4.4625,-4.4025,-4.2478,-4.2639,0.0,-4.3767,-4.3072,-4.3509,-4.4868,-4.4868,-4.5241,-4.5905,-4.6585,-4.6911,-4.6911,-4.6911,-4.6911,-4.686,-4.6124,-4.5651,-4.5584,-4.5683,-4.5194,-4.4385,-4.5146,-4.5617,-4.5681,-4.7209,-4.8023,-4.8188,-4.8787,-4.9107,-4.9208,-4.9192,-4.9172,-4.9155,-4.9172,-4.9155,-4.9119,-4.8345,-4.769,-4.7093,0.0,0.0,0.0,0.0,0.0,0.0,0.0,0.0,0.0,0.0,0.0,0.0,0.0,0.0,0.0,-4.201,0.0,-4.3002,-4.2679,0.0,0.0,0.0,-4.2363,-4.3063,-4.3,-4.2852,-4.281,0.0,0.0,-4.2011,-4.1617,-4.142,-4.1808,-4.1474,-4.1185,-4.1125,-4.1213,-4.1437,-4.1929,-4.199,-4.2207,-4.2753,-4.2951,-4.3289,-4.3809,-4.3991,-4.4135,-4.45,-4.4643,-4.4642,-4.4642,-4.4681,-4.4681,-4.4681,-4.4683,-4.4681,-4.4629,-4.4642,-4.4722,-4.4642,-4.4722,-4.4681,-4.4528,-4.4544,-4.4723,-4.4593,-4.4334,-4.5014,-4.5403,-4.5613,-4.6147,-4.6277,-4.6114,-4.6309,-4.5855,-4.4947,-4.498,-4.4819,-4.4528,-4.435,-4.4755,-4.5548,-4.5565,-4.5937,-4.6617,-4.6795,-4.6911,-4.6911,-4.6911,-4.6911,-4.6911,-4.668,-4.6221,-4.5667,-4.6134,-4.5661,-4.4385,-4.501,-4.5739,-4.6424,-4.7294,-4.8384,-4.958,-4.9758,-5.0098,-5.0665,-5.0665,-5.0665,-5.0665,-5.0665,-5.0499,-5.0181,-4.9945,-4.9088,-4.7473,-4.6428,0.0,0.0,0.0,0.0,0.0,0.0,0.0,0.0,0.0,-4.1686,-4.1262,0.0,-4.2149,0.0,-4.2897,-4.3617,-4.4058,-4.369,0.0,0.0,-4.2683,-4.2699,-4.2735,-4.2723,-4.2592,-4.2119,-4.1975,-4.1781,-4.1463,-4.1321,-4.1309,-4.1429,-4.1367,-4.1461,-4.182,-4.1818,-4.199,-4.2515,-4.2703,-4.2952,-4.3479,-4.3993,-4.4254,-4.4474,-4.4513,-4.4578,-4.4655,-4.4681,-4.4681,-4.4681,-4.4681,-4.4681,-4.4681,-4.4681,-4.4681,-4.4681,-4.4681,-4.4681,-4.4681,-4.4681,-4.4681,-4.5241,-4.5305,-4.6002,-4.6067,-4.5759,-4.6131,-4.6277,-4.6326,-4.6714,-4.6911,-4.6911,-4.6911,-4.6666,-4.6277,-4.6277,-4.6083,-4.571,-4.5386,-4.5451,-4.5807,-4.5824,-4.6018,-4.6407,-4.673,-4.6911,-4.6911,-4.6911,-4.6911,-4.6943,-4.7216,-4.7165,-4.6705,-4.7351,-4.7036,-4.5851,-4.5744,-4.6,-4.6506,-4.7625,-4.8978,-5.0536,-5.0584,-5.0579,-5.0585,-5.0585,-5.0402,-5.0021,-4.9909,-4.9802,-4.9597,-4.9158,-4.8396,-4.7278,-4.5968,-4.4905,0.0,0.0,0.0,0.0,0.0,0.0,0.0,0.0,0.0,0.0,0.0,-4.2736,-4.2694,-4.3366,-4.3783,-4.3781,-4.3544,-4.3201,-4.2691,-4.2723,-4.2775,-4.2745,-4.2736,-4.2663,-4.2348,-4.2107,-4.1877,-4.1648,-4.1404,-4.1383,-4.1662,-4.1696,-4.1828,-4.2141,-4.2342,-4.266,-4.324,-4.3402,-4.3598,-4.4173,-4.4513,-4.4681,-4.4681,-4.4681,-4.4681,-4.4681,-4.4681,-4.4681,-4.4681,-4.4681,-4.4681,-4.4681,-4.4681,-4.4681,-4.4681,-4.4681,-4.4681,-4.4681,-4.4681,-4.4681,-4.5937,-4.6002,-4.6617,-4.6911,-4.6911,-4.6911,-4.6911,-4.6911,-4.6911,-4.6911,-4.6911,-4.6911,-4.6911,-4.6911,-4.6911,-4.6911,-4.6878,-4.6228,-4.5937,-4.5937,-4.5937,-4.5937,-4.5969,-4.6601,-4.6911,-4.6927,-4.6989,-4.7022,-4.7054,-4.7783,-4.8071,-4.8007,-4.8654,-4.8514,-4.7661,-4.6933,-4.657,-4.6586,-4.8115,-4.9623,-5.0968,-5.0919,-5.0451,-4.9652,-4.9582,-4.9218,-4.8472,-4.8238,-4.8201,-4.8297,-4.7389,-4.6852,-4.6825,-4.4887,-4.3967,0.0,-4.2949,0.0,0.0,0.0,0.0,0.0,0.0,0.0,0.0,-4.3098,-4.3207,-4.3279,-4.3584,-4.3576,-4.3123,-4.3095,-4.3023,-4.2837,-4.2799,-4.2846,-4.2916,-4.2838,-4.279,-4.279,-4.2324,-4.1993,-4.2086,-4.1716,-4.1638,-4.216,-4.2382,-4.2484,-4.2473,-4.2839,-4.3337,-4.3899,-4.3977,-4.4147,-4.4565,-4.4668,-4.4681,-4.4681,-4.4681,-4.4681,-4.4681,-4.4681,-4.4681,-4.4681,-4.4681,-4.4681,-4.4681,-4.4681,-4.4681,-4.4681,-4.4681,-4.4681,-4.4681,-4.4681,-4.4681,-4.6716,-4.6682,-4.6828,-4.6911,-4.6911,-4.6911,-4.6911,-4.6911,-4.6911,-4.6911,-4.6911,-4.6911,-4.6911,-4.6911,-4.6911,-4.6911,-4.6911,-4.6747,-4.6682,-4.6666,-4.6682,-4.6682,-4.6682,-4.6828,-4.6911,-4.6943,-4.7491,-4.7799,-4.7815,-4.8495,-4.8456,-4.7764,-4.8474,-4.8365,-4.7546,0.0,0.0,0.0,-4.91,-4.9758,-5.0037,-4.9373,-4.8834,-4.8504,-4.8504,0.0,-4.8013,-4.7975,-4.7824,-4.7533,-4.6959,0.0,0.0,0.0,0.0,0.0,0.0,0.0,0.0,0.0,0.0,0.0,-4.3054,-4.304,-4.3154,-4.3195,-4.332,-4.3638,-4.3749,-4.3899,-4.411,-4.4106,-4.3934,-4.3501,-4.3421,-4.33,-4.297,-4.2533,-4.2226,-4.2226,-4.1796,-4.1631,-4.2102,-4.2105,-4.2226,-4.2775,-4.3245,-4.3533,-4.3533,-4.3637,-4.3925,-4.4447,-4.4526,-4.4578,-4.4709,-4.4681,-4.4681,-4.4681,-4.4681,-4.4681,-4.4681,-4.4681,-4.4681,-4.4681,-4.4681,-4.4681,-4.4681,-4.4681,-4.4681,-4.4681,-4.4681,-4.4681,-4.4681,-4.4681,-4.4681,-4.6911,0.0,-4.6911,-4.6911,0.0,-4.6911,-4.6911,-4.6911,-4.6911,-4.6911,-4.6911,-4.6911,-4.6911,-4.6911,-4.6911,-4.6911,-4.6911,-4.6911,-4.6911,-4.6911,-4.6911,-4.6911,-4.6911,-4.6911,-4.7121,-4.7443,-4.7831,-4.8188,-4.8492,-4.9224,-4.9333,-4.8905,-4.9611,-4.9736,-4.9291,-4.9646,-4.9587,-4.9159,-4.9571,-4.9909,-5.0117,-4.9721,-4.9136,-4.8421,0.0,0.0,0.0,0.0,0.0,0.0,0.0,0.0,0.0,0.0,0.0,-4.4356,-4.4037,-4.3849,-4.3844,-4.3873,-4.3838,-4.3806,-4.3789,-4.3692,-4.3515,-4.3695,-4.387,-4.4061,-4.4104,-4.4092,-4.4012,-4.4007,-4.3723,-4.2991,-4.2846,-4.2652,-4.2204,-4.1908,-4.1696,-4.1736,-4.171,-4.186,-4.2185,-4.2422,-4.2814,-4.335,-4.3676,-4.3977,-4.4225,-4.4304,-4.4421,-4.4629,-4.4681,-4.4681,-4.4681,-4.4681,-4.4681,-4.4681,-4.4681,-4.4681,-4.4681,-4.4681,-4.4681,-4.4681,-4.4681,-4.4681,-4.4681,-4.4681,-4.4681,-4.4681,-4.4681,-4.4681,-4.4681,-4.4681,-4.4681,-4.6911,-4.6911,-4.6911,-4.6911,-4.6911,-4.6911,-4.6911,-4.6911,0.0,0.0,0.0,-4.6911,-4.6911,-4.6911,-4.6911,-4.6911,-4.6911,-4.6911,-4.6911,-4.6911,-4.6911,-4.6941,-4.7087,-4.7087,-4.7475,-4.8188,-4.8333,-4.8673,-4.9204,-4.9936,-5.0309,-5.0357,-5.0892,-5.1221,-5.1221,-5.1221,-5.0779,-4.9957,-4.9775,-4.9887,-5.024,-5.0067,-4.9423,-4.831,-4.831,-4.7872,-4.6959,-4.6731,-4.6413,-4.593,-4.4955,-4.4338,-4.4223,-4.3516,-4.3171,-4.3405,-4.3403,-4.3556,-4.3856,-4.3899,-4.4033,-4.4383,-4.4425,-4.4232,-4.3941,-4.4208,-4.4425,-4.4425,-4.4425,-4.4195,-4.3648,-4.3614,-4.317,-4.2213,-4.2079,-4.1881,-4.1411,-4.1311,-4.1363,-4.1494,-4.1937,-4.2316,-4.2552,-4.2905,-4.3389,-4.3885,-4.4055,-4.416,-4.4604,-4.4696,-4.4642,-4.4681,-4.4681,-4.4681,-4.4681,-4.4681,-4.4681,-4.4681,-4.4681,-4.4681,-4.4681,-4.4681,-4.4681,-4.4681,-4.4681,-4.4681,-4.4681,-4.4681,-4.4681,-4.4681,-4.4681,-4.4681,-4.4681,-4.4559,-4.4505,-4.6911,-4.6911,-4.6911,-4.6911,-4.6911,-4.6911,-4.6911,-4.6911,-4.6911,-4.6911,-4.6911,-4.6911,-4.6911,-4.6911,-4.6911,-4.6911,-4.6911,-4.6911,-4.6911,0.0,-4.6911,-4.7232,-4.7831,-4.7864,-4.822,-4.8848,-4.9499,-4.9855,-5.0017,-5.0681,-5.1038,-5.1038,-5.1172,-5.1183,-5.1221,-5.1221,-5.093,-5.0419,-4.9652,-4.9321,-4.9378,-4.8276,-4.7505,-4.7177,-4.7153,-4.6735,-4.5849,-4.5824,-4.5481,-4.4758,-4.4262,-4.4138,-4.441,-4.3953,-4.3834,-4.4166,-4.4251,-4.4232,-4.4303,-4.4317,-4.4312,-4.4397,-4.4425,-4.4369,-4.4345,-4.4369,-4.4425,-4.4425,-4.4425,-4.4209,-4.3709,-4.3614,-4.317,-4.2275,-4.2079,-4.1881,-4.1374,-4.1337,-4.152,-4.1951,-4.2159,-4.2656,-4.3376,-4.3676,-4.3951,-4.4447,-4.4513,-4.463,-4.4642,-4.4681,-4.4681,-4.4681,-4.4681,-4.4681,-4.4681,-4.4681,-4.4681,-4.4681,-4.4681,-4.4681,-4.4681,-4.4681,-4.4681,-4.4681,-4.4681,-4.4681,-4.4681,-4.4681,-4.4681,-4.4681,-4.4681,-4.4681,-4.4626,-4.4055,-4.3835,-4.6911,-4.6911,-4.6911,-4.6911,-4.6911,-4.6911,-4.6911,-4.6911,-4.6911,-4.6911,-4.6911,-4.6911,-4.6911,-4.6911,-4.6911,-4.6911,-4.6911,-4.6911,-4.6911,-4.6943,-4.7313,-4.767,-4.8026,-4.8398,-4.8933,-4.9613,-4.9936,-5.0309,-5.0681,-5.1038,-5.1054,-5.0848,-5.081,-5.081,-5.081,-5.081,-5.0618,-5.0175,-4.999,-4.9714,-4.9229,-4.867,-4.818,-4.7858,-4.7818,-4.7477,-4.6716,-4.6674,-4.6167,-4.5113,-4.4848,-4.468,-4.4467,-4.4252,-4.418,-4.4397,-4.4425,-4.4425,-4.4425,-4.4425,-4.4425,-4.4425,-4.4425,-4.4425,-4.4425,-4.4425,-4.4425,-4.4425,-4.4425,-4.4162,-4.3648,-4.3389,-4.2908,-4.2177,-4.1845,-4.156,-4.14,-4.1611,-4.1886,-4.2224,-4.2774,-4.3297,-4.386,-4.4147,-4.4395,-4.4696,-4.4681,-4.4681,-4.4681,-4.4681,-4.4681,-4.4681,-4.4681,-4.4681,-4.4681,-4.4681,-4.4681,-4.4681,-4.4681,-4.4681,-4.4681,-4.4681,-4.4681,-4.4681,-4.4681,-4.4681,-4.4681,-4.4681,-4.4681,-4.4681,-4.4681,-4.4559,-4.4055,-4.327,-4.2868,-4.6911,-4.6911,-4.6911,-4.6911,-4.6911,-4.6911,-4.6911,-4.6911,-4.6911,-4.6911,-4.6911,-4.6911,-4.6911,-4.6911,-4.6911,-4.6911,-4.6911,-4.6911,-4.6973,-4.7184,-4.7734,-4.8171,-4.8495,-4.901,-4.9645,-5.0276,-5.0357,-5.0595,-5.1005,-5.107,-5.0826,-5.0409,-5.0432,-5.0432,-5.037,-5.037,-5.0175,-4.9797,-5.0058,-4.9939,-4.9316,-4.9194,-4.8893,-4.8396,-4.8396,-4.7976,-4.7191,-4.7104,-4.6535,-4.5367,-4.523,-4.5,-4.4472,-4.4425,-4.4425,-4.4425,-4.4425,-4.4425,-4.4425,-4.4425,-4.4425,-4.4425,-4.4425,-4.4425,-4.4425,-4.4425,-4.4425,-4.4425,-4.4425,-4.4162,-4.3519,-4.3163,-4.2631,-4.198,-4.1547,-4.1389,-4.1533,-4.195,-4.2355,-4.2617,-4.335,-4.3885,-4.4108,-4.4447,-4.4696,-4.4668,-4.4681,-4.4681,-4.4681,-4.4681,-4.4681,-4.4681,-4.4681,-4.4681,-4.4681,-4.4681,-4.4681,-4.4681,-4.4681,-4.4681,-4.4681,-4.4681,-4.4681,-4.4681,-4.4681,-4.4681,-4.4681,-4.4681,-4.4681,-4.4681,-4.4681,-4.4341,-4.327,-4.2363,-4.1741,-4.6911,-4.6911,-4.6911,-4.6911,-4.6911,-4.6911,-4.6911,-4.6911,-4.6911,-4.6911,-4.6911,-4.6911,-4.6911,-4.6911,-4.6911,-4.6911,-4.6927,-4.6927,-4.7249,-4.7848,-4.7977,-4.8673,-4.9775,-4.9969,-5.0374,-5.0989,-5.1038,-5.0811,-5.0547,-5.0563,-5.0386,-5.0034,-5.0331,-5.0292,-4.9995,-4.9955,-4.9757,-4.9356,-4.9396,-4.9396,-4.9259,-4.8908,-4.8355,-4.7691,-4.7706,-4.7061,-4.5851,-4.5671,-4.5367,-4.4597,-4.4504,-4.4504,-4.4411,-4.4425,-4.4425,-4.4425,-4.4425,-4.4425,-4.4425,-4.4425,-4.4425,-4.4425,-4.4425,-4.4425,-4.4425,-4.4425,-4.4425,-4.4364,-4.4364,-4.3974,-4.3115,-4.2935,-4.2498,-4.166,-4.14,-4.1507,-4.1964,-4.2185,-4.2552,-4.3664,-4.3847,-4.4068,-4.45,-4.4629,-4.4681,-4.4681,-4.4681,-4.4681,-4.4681,-4.4681,-4.4681,-4.4681,-4.4681,-4.4681,-4.4681,-4.4681,-4.4681,-4.4681,-4.4681,-4.4681,-4.4681,-4.4681,-4.4681,-4.4681,-4.4681,-4.4681,-4.4681,-4.4681,-4.4681,-4.4626,-4.4505,-4.4097,-4.2575,-4.1399,-4.0906,-4.6911,-4.6911,-4.6911,-4.6911,-4.6911,-4.6911,-4.6911,-4.6911,-4.6911,-4.6911,-4.6911,-4.6911,-4.6911,-4.6911,-4.6911,-4.6911,-4.6943,-4.7362,-4.7702,-4.8091,-4.8835,-4.9548,-5.0082,-5.0568,-5.0779,-5.0794,-5.0771,-5.0579,-5.0191,-4.99,-4.9821,-4.9892,-4.9836,-4.9717,-4.9557,-4.9557,-4.93,-4.8893,-4.8521,-4.8297,-4.8297,-4.813,-4.7892,-4.7578,-4.7161,-4.6521,-4.5625,-4.5504,-4.5138,-4.4457,-4.4425,-4.4425,-4.4425,-4.4425,-4.4425,-4.4425,-4.4425,-4.4425,-4.4425,-4.4425,-4.4425,-4.4425,-4.4425,-4.4425,-4.4425,-4.4425,-4.4256,-4.4007,-4.4209,-4.3974,-4.308,-4.2887,-4.2595,-4.1934,-4.18,-4.1925,-4.2172,-4.2826,-4.3402,-4.3833,-4.4173,-4.4434,-4.467,-4.4681,-4.4681,-4.4681,-4.4681,-4.4681,-4.4681,-4.4681,-4.4681,-4.4681,-4.4681,-4.4681,-4.4681,-4.4681,-4.4681,-4.4681,-4.4681,-4.4681,-4.4681,-4.4681,-4.4681,-4.4681,-4.4681,-4.4681,-4.4681,-4.4681,-4.4681,-4.4505,-4.3534,-4.2687,-4.1456,-4.0501,-3.9989,-4.6911,-4.6911,-4.6911,-4.6911,-4.6911,-4.6911,-4.6911,-4.6911,-4.6911,-4.6911,-4.6911,-4.6911,-4.6911,-4.6911,-4.6911,-4.6911,-4.7024,-4.767,-4.8123,-4.8398,-4.9548,-5.0138,-5.0273,-5.0742,-5.0771,-5.0409,-5.0331,-5.0136,-4.9757,-4.9477,-4.9396,-4.9517,-4.9356,-4.9235,-4.9113,-4.9097,-4.8852,-4.8313,-4.7834,-4.7493,-4.7306,-4.7104,-4.7017,-4.6974,-4.6521,-4.5912,-4.523,-4.5184,-4.4968,-4.4425,-4.4425,-4.4425,-4.4425,-4.4425,-4.4425,-4.4425,-4.4425,-4.4425,-4.4425,-4.4425,-4.4425,-4.4425,-4.4425,-4.4317,-4.4209,-4.4162,-4.3865,-4.328,-4.3689,-4.3608,-4.2873,-4.2679,-4.2489,-4.2156,-4.2192,-4.2303,-4.2709,-4.3494,-4.3912,-4.4108,-4.446,-4.4681,-4.4681,-4.4681,-4.4681,-4.4681,-4.4681,-4.4681,-4.4681,-4.4681,-4.4681,-4.4681,-4.4681,-4.4681,-4.4681,-4.4681,-4.4681,-4.4681,-4.4681,-4.4681,-4.4681,-4.4681,-4.4681,-4.4681,-4.4681,-4.4681,-4.4681,-4.4681,-4.4396,-4.4,-4.2979,-4.1627,-4.0952,-3.9931,-3.9414,-4.6911,-4.6911,-4.6911,-4.6911,-4.6911,-4.6911,-4.6911,-4.6911,-4.6911,-4.6911,-4.6911,-4.6911,-4.6911,-4.6876,-4.6876,-4.6876,-4.6973,-4.7667,-4.8311,-4.8877,-4.9701,-5.0231,-5.0499,-5.0525,-5.0331,-4.9955,-4.9916,-4.9717,-4.9316,-4.9275,-4.9072,-4.8687,-4.9072,-4.9056,-4.8728,-4.8687,-4.8313,-4.7749,-4.7563,-4.7219,-4.6594,-4.5927,-4.5625,-4.5625,-4.5549,-4.5216,-4.4597,-4.4457,-4.4411,-4.4425,-4.4425,-4.4425,-4.4425,-4.4425,-4.4425,-4.4425,-4.4425,-4.4425,-4.4425,-4.4425,-4.4425,-4.4411,-4.4364,-4.4209,-4.3851,-4.3709,-4.328,-4.2311,-4.2776,-4.2776,-4.2226,-4.2226,-4.2219,-4.2194,-4.2198,-4.2709,-4.3624,-4.3781,-4.4134,-4.4513,-4.4642,-4.4681,-4.4681,-4.4681,-4.4681,-4.4681,-4.4681,-4.4681,-4.4681,-4.4681,-4.4681,-4.4681,-4.4681,-4.4681,-4.4681,-4.4681,-4.4681,-4.4681,-4.4681,-4.4681,-4.4681,-4.4681,-4.4681,-4.4681,-4.4681,-4.4681,-4.4681,-4.445,-4.3945,-4.327,-4.2037,-4.0964,-4.0443,-3.9814,-3.9297,-4.6911,-4.6911,-4.6911,-4.6911,-4.6911,-4.6911,-4.6911,-4.6911,-4.6911,-4.6911,-4.6911,-4.6911,-4.6911,-4.6876,-4.6617,-4.6512,-4.6641,-4.7714,-4.8242,-4.8371,-4.9423,-5.0031,-5.012,-5.0097,-4.9916,-4.9557,-4.9501,-4.9275,-4.8908,-4.8852,-4.8785,-4.8661,-4.8785,-4.8744,-4.8604,-4.8604,-4.8271,-4.7621,-4.7176,-4.6565,-4.5867,-4.517,-4.483,-4.4769,-4.4769,-4.469,-4.4411,-4.4425,-4.4425,-4.4425,-4.4425,-4.4425,-4.4425,-4.4425,-4.4425,-4.4425,-4.4425,-4.4425,-4.4425,-4.4425,-4.4425,-4.4364,-4.4054,-4.4007,-4.396,-4.3533,-4.297,-4.2666,-4.2373,-4.2177,-4.1796,-4.1881,-4.212,-4.2222,-4.25,-4.301,-4.3716,-4.4173,-4.45,-4.4683,-4.4681,-4.4681,-4.4681,-4.4681,-4.4681,-4.4681,-4.4681,-4.4681,-4.4681,-4.4681,-4.4681,-4.4681,-4.4681,-4.4681,-4.4681,-4.4681,-4.4681,-4.4681,-4.4681,-4.4681,-4.4681,-4.4681,-4.4681,-4.4681,-4.4681,-4.4287,-4.4123,-4.327,-4.2868,-4.2081,-4.0848,-4.0397,-3.9931,-3.9285,-3.8871,-4.6911,-4.6911,-4.6911,-4.6911,-4.6876,-4.6772,-4.6772,-4.6892,-4.6772,-4.6772,-4.6876,-4.6772,-4.6687,-4.6633,-4.6301,-4.6052,-4.614,-4.7479,-4.8056,-4.7956,-4.9229,-4.9836,-4.9717,-4.9733,-4.9477,-4.9153,-4.9056,-4.8908,-4.8604,-4.8604,-4.8604,-4.8604,-4.8604,-4.8604,-4.8563,-4.8396,-4.7934,-4.7263,-4.655,-4.5867,-4.517,-4.469,-4.4425,-4.4425,-4.4425,-4.4425,-4.4425,-4.4425,-4.4425,-4.4425,-4.4425,-4.4425,-4.4425,-4.4425,-4.4425,-4.4425,-4.4425,-4.4425,-4.4425,-4.4425,-4.4425,-4.4364,-4.3912,-4.3757,-4.3832,-4.3115,-4.2631,-4.2338,-4.2092,-4.166,-4.15,-4.1818,-4.2211,-4.2485,-4.2958,-4.352,-4.4068,-4.4487,-4.4629,-4.4681,-4.4681,-4.4681,-4.4681,-4.4681,-4.4681,-4.4681,-4.4681,-4.4681,-4.4681,-4.4681,-4.4681,-4.4681,-4.4681,-4.4681,-4.4681,-4.4681,-4.4681,-4.4681,-4.4681,-4.4681,-4.4681,-4.4681,-4.4681,-4.4681,-4.4341,-4.3835,-4.3103,-4.2194,-4.1468,-4.0791,-4.0281,-3.9826,-3.9297,-3.8693,-3.8347,-4.6911,-4.6876,-4.6892,-4.6842,-4.6789,-4.6442,-4.6512,-4.6772,-4.6442,-4.6512,-4.6738,-4.6477,-4.6285,-4.623,-4.5925,-4.5578,-4.563,-4.701,-4.7732,-4.7804,-4.915,-4.9582,-4.9316,-4.9275,-4.9072,-4.8687,-4.862,-4.8604,-4.8604,-4.8604,-4.8563,-4.8563,-4.848,-4.8396,-4.8521,-4.7834,-4.7219,-4.6565,-4.5882,-4.523,-4.4504,-4.4425,-4.4425,-4.4425,-4.4425,-4.4425,-4.4425,-4.4425,-4.4425,-4.4425,-4.4425,-4.4425,-4.4425,-4.4425,-4.4425,-4.4425,-4.4425,-4.4425,-4.4425,-4.4425,-4.4425,-4.4317,-4.3912,-4.3437,-4.3163,-4.2533,-4.1944,-4.1647,-4.1461,-4.1311,-4.1402,-4.1819,-4.2407,-4.2931,-4.3441,-4.4003,-4.4513,-4.4655,-4.4681,-4.4681,-4.4681,-4.4681,-4.4681,-4.4681,-4.4681,-4.4681,-4.4681,-4.4681,-4.4681,-4.4681,-4.4681,-4.4681,-4.4681,-4.4681,-4.4681,-4.4681,-4.4681,-4.4681,-4.4681,-4.4681,-4.4681,-4.4681,-4.4681,-4.4626,-4.367,-4.3103,-4.2194,-4.1353,-4.0836,-4.0223,-3.9708,-3.9238,-3.8764,-3.8287,-3.7807,-4.6911,-4.6892,-4.6598,-4.6477,-4.6442,-4.6088,-4.6175,-4.6426,-4.6104,-4.6175,-4.6372,-4.6088,-4.5961,-4.5853,-4.5578,-4.5321,-4.5282,-4.6407,-4.6982,-4.7215,-4.8395,-4.8975,-4.8867,-4.8811,-4.8744,-4.8604,-4.8604,-4.8604,-4.8604,-4.8563,-4.8396,-4.8019,-4.7919,-4.7649,-4.7233,-4.6944,-4.6506,-4.5882,-4.5625,-4.5138,-4.4457,-4.4425,-4.4425,-4.4425,-4.4425,-4.4425,-4.4425,-4.4425,-4.4425,-4.4425,-4.4425,-4.4425,-4.4425,-4.4425,-4.4425,-4.4425,-4.4425,-4.4425,-4.4425,-4.4425,-4.4425,-4.4223,-4.3594,-4.3293,-4.3184,-4.2226,-4.171,-4.1696,-4.156,-4.1311,-4.1402,-4.1821,-4.2396,-4.2958,-4.3533,-4.4095,-4.4617,-4.4681,-4.4681,-4.4681,-4.4681,-4.4681,-4.4681,-4.4681,-4.4681,-4.4681,-4.4681,-4.4681,-4.4681,-4.4681,-4.4681,-4.4681,-4.4681,-4.4681,-4.4681,-4.4681,-4.4681,-4.4681,-4.4681,-4.4681,-4.4681,-4.4681,-4.4681,-4.4068,-4.3159,-4.2194,-4.1296,-4.0605,-4.0106,-3.9638,-3.9119,-3.8704,-3.8287,-3.7807,-3.7264,-4.6598,-4.6493,-4.6372,-4.623,-4.6104,-4.5724,-4.5796,-4.6032,-4.5724,-4.578,-4.5997,-4.5744,-4.5578,-4.5505,-4.5173,-4.4986,-4.5089,-4.609,-4.6603,-4.6819,-4.7989,-4.8589,-4.8604,-4.8604,-4.8604,-4.8604,-4.8604,-4.8604,-4.8563,-4.8313,-4.8003,-4.7679,-4.7364,-4.6988,-4.6506,-4.6255,-4.5867,-4.5504,-4.523,-4.4862,-4.4504,-4.4425,-4.4425,-4.4425,-4.4425,-4.4425,-4.4425,-4.4425,-4.4425,-4.4425,-4.4425,-4.4425,-4.4425,-4.4425,-4.4425,-4.4425,-4.4425,-4.4425,-4.4425,-4.4425,-4.4317,-4.4021,-4.3355,-4.2922,-4.2846,-4.1895,-4.1511,-4.1647,-4.1511,-4.1311,-4.1389,-4.1834,-4.2317,-4.2644,-4.3402,-4.4068,-4.4591,-4.4681,-4.4681,-4.4681,-4.4681,-4.4681,-4.4681,-4.4681,-4.4681,-4.4681,-4.4681,-4.4681,-4.4681,-4.4681,-4.4681,-4.4681,-4.4681,-4.4681,-4.4681,-4.4681,-4.4681,-4.4681,-4.4681,-4.4681,-4.4681,-4.4668,-4.4613,-4.3326,-4.225,-4.1296,-4.0327,-3.9931,-3.9473,-3.8942,-3.8526,-3.8107,-3.7687,-3.7143,-3.6595,-4.6088,-4.5868,-4.6088,-4.6017,-4.5724,-4.5358,-4.5379,-4.5651,-4.5358,-4.5395,-4.563,-4.5358,-4.5157,-4.5098,-4.4799,-4.4648,-4.4841,-4.5873,-4.6511,-4.6896,-4.7835,-4.8496,-4.8604,-4.8604,-4.8604,-4.8604,-4.8604,-4.8604,-4.8578,-4.8003,-4.7578,-4.7392,-4.677,-4.6403,-4.6107,-4.5702,-4.5413,-4.5276,-4.4737,-4.4472,-4.4425,-4.4425,-4.4425,-4.4425,-4.4425,-4.4425,-4.4425,-4.4425,-4.4425,-4.4425,-4.4425,-4.4425,-4.4425,-4.4425,-4.4425,-4.4425,-4.4425,-4.4425,-4.4425,-4.4425,-4.4209,-4.3709,-4.3197,-4.2693,-4.2226,-4.1696,-4.1311,-4.1361,-4.1311,-4.1311,-4.1415,-4.1729,-4.212,-4.2291,-4.3114,-4.3925,-4.4552,-4.4643,-4.463,-4.4709,-4.4681,-4.4681,-4.4681,-4.4681,-4.4681,-4.4681,-4.4681,-4.4681,-4.4681,-4.4681,-4.4681,-4.4681,-4.4681,-4.4681,-4.4681,-4.4681,-4.4681,-4.4681,-4.4681,-4.4681,-4.4572,-4.445,-4.3823,-4.2532,-4.1456,-4.0443,-3.965,-3.9238,-3.8764,-3.8347,-3.7927,-3.7506,-3.7021,-3.6534,-3.6106,-4.5853,-4.5796,-4.5562,-4.5416,-4.5321,-4.4911,-4.4986,-4.5284,-4.4949,-4.5008,-4.521,-4.4949,-4.4783,-4.4761,-4.4648,-4.461,-4.4841,-4.5519,-4.6172,-4.6665,-4.7434,-4.8158,-4.8527,-4.8604,-4.8604,-4.8604,-4.8604,-4.8604,-4.8521,-4.7876,-4.7306,-4.6755,-4.6077,-4.5475,-4.4972,-4.4815,-4.4737,-4.469,-4.4551,-4.4425,-4.4425,-4.4425,-4.4425,-4.4425,-4.4425,-4.4425,-4.4425,-4.4425,-4.4425,-4.4425,-4.4425,-4.4425,-4.4425,-4.4425,-4.4425,-4.4425,-4.4425,-4.4425,-4.4425,-4.4425,-4.4162,-4.3662,-4.3149,-4.2693,-4.2141,-4.161,-4.1361,-4.1311,-4.1311,-4.1311,-4.1337,-4.1468,-4.1729,-4.2173,-4.2775,-4.3441,-4.3951,-4.4108,-4.4251,-4.463,-4.4655,-4.4642,-4.4681,-4.4681,-4.4681,-4.4681,-4.4681,-4.4681,-4.4681,-4.4681,-4.4681,-4.4681,-4.4681,-4.4681,-4.4681,-4.4681,-4.4681,-4.4681,-4.4681,-4.4613,-4.4341,-4.4,-4.2868,-4.1468,-4.0825,-3.9919,-3.9167,-3.8526,-3.8107,-3.7747,-3.7264,-3.685,-3.6534,-3.6106,-3.5798,-4.5468,-4.5321,-4.5194,-4.5098,-4.4949,-4.4701,-4.4723,-4.4874,-4.4723,-4.4723,-4.4874,-4.4723,-4.461,-4.461,-4.461,-4.461,-4.4702,-4.5318,-4.5957,-4.6696,-4.7619,-4.825,-4.8543,-4.8604,-4.8604,-4.8604,-4.8604,-4.8438,-4.8088,-4.7478,-4.677,-4.6077,-4.5398,-4.4815,-4.4504,-4.4425,-4.4425,-4.4425,-4.4425,-4.4425,-4.4425,-4.4425,-4.4425,-4.4425,-4.4425,-4.4425,-4.4425,-4.4425,-4.4425,-4.4425,-4.4425,-4.4425,-4.4425,-4.4425,-4.4425,-4.4425,-4.4425,-4.4425,-4.4425,-4.4411,-4.4068,-4.3437,-4.3018,-4.2533,-4.1908,-4.1461,-4.1311,-4.1311,-4.1311,-4.1311,-4.1311,-4.1311,-4.1468,-4.1742,-4.2108,-4.2644,-4.3402,-4.352,-4.3781,-4.4173,-4.4369,-4.4487,-4.4615,-4.4668,-4.4681,-4.4681,-4.4681,-4.4681,-4.4681,-4.4681,-4.4681,-4.4681,-4.4681,-4.4681,-4.4681,-4.4626,-4.4396,-4.445,-4.3903,-4.4,-4.3713,-4.3215,-4.2081,-4.0894,-4.0199,-3.9509,-3.8752,-3.8047,-3.7566,-3.7143,-3.6667,-3.63,-3.5983,-3.586,-3.5552,-4.4927,-4.461,-4.4986,-4.4949,-4.4648,-4.461,-4.461,-4.461,-4.461,-4.461,-4.461,-4.461,-4.461,-4.461,-4.461,-4.461,-4.4641,-4.5141,-4.588,-4.6773,-4.7804,-4.849,-4.8381,-4.8521,-4.848,-4.8438,-4.8521,-4.8145,-4.7521,-4.6813,-4.6211,-4.5566,-4.4862,-4.4457,-4.4425,-4.4425,-4.4425,-4.4425,-4.4425,-4.4425,-4.4425,-4.4425,-4.4425,-4.4425,-4.4425,-4.4425,-4.4425,-4.4425,-4.4425,-4.4425,-4.4425,-4.4425,-4.4425,-4.4425,-4.4425,-4.4364,-4.4303,-4.4256,-4.427,-4.4162,-4.3784,-4.297,-4.2776,-4.24,-4.161,-4.1311,-4.1311,-4.1311,-4.1311,-4.1311,-4.1311,-4.1311,-4.1337,-4.1415,-4.1402,-4.1847,-4.2552,-4.2892,-4.3154,-4.3689,-4.3781,-4.4068,-4.4434,-4.4657,-4.4643,-4.4681,-4.4681,-4.4681,-4.4681,-4.4681,-4.4681,-4.4681,-4.4681,-4.4681,-4.4626,-4.4572,-4.4287,-4.4,-4.3116,-4.2768,-4.2532,-4.2024,-4.1182,-4.0327,-3.9568,-3.8919,-3.8276,-3.7676,-3.7071,-3.6585,-3.6106,-3.586,-3.5603,-3.5613,-3.5428,-4.4685,-4.461,-4.4685,-4.4685,-4.461,-4.461,-4.461,-4.461,-4.461,-4.461,-4.461,-4.461,-4.461,-4.461,-4.461,-4.461,-4.4625,-4.4933,-4.5418,-4.6711,-4.7989,-4.821,-4.8061,-4.8313,-4.8271,-4.8061,-4.8355,-4.7904,-4.6944,-4.6506,-4.6166,-4.5444,-4.4769,-4.4425,-4.4425,-4.4425,-4.4425,-4.4425,-4.4425,-4.4425,-4.4425,-4.4425,-4.4425,-4.4425,-4.4425,-4.4425,-4.4425,-4.4425,-4.4425,-4.4425,-4.4364,-4.4317,-4.4364,-4.4317,-4.427,-4.4223,-4.3946,-4.3757,-4.3709,-4.3437,-4.297,-4.2422,-4.2324,-4.198,-4.1411,-4.1311,-4.1311,-4.1311,-4.1311,-4.1311,-4.1311,-4.1311,-4.1311,-4.1311,-4.1324,-4.1402,-4.1703,-4.2095,-4.2579,-4.3023,-4.3219,-4.3415,-4.3951,-4.4042,-4.4225,-4.4591,-4.4655,-4.4668,-4.4681,-4.4681,-4.4681,-4.4681,-4.4681,-4.4626,-4.4232,-4.3945,-4.3381,-4.3103,-4.2319,-4.1594,-4.1353,-4.1182,-4.0443,-3.9697,-3.893,-3.8347,-3.7796,-3.7071,-3.6401,-3.5983,-3.5675,-3.5552,-3.5479,-3.5428,-3.5428,-4.461,-4.461,-4.461,-4.461,-4.461,-4.461,-4.461,-4.461,-4.461,-4.461,-4.461,-4.461,-4.461,-4.461,-4.461,-4.461,-4.4795,-4.528,-4.5895,-4.6834,-4.7901,-4.8198,-4.7749,-4.7834,-4.7776,-4.7263,-4.742,-4.6944,-4.6299,-4.5987,-4.5656,-4.5046,-4.4551,-4.4411,-4.4425,-4.4425,-4.4425,-4.4425,-4.4425,-4.4425,-4.4425,-4.4425,-4.4425,-4.4425,-4.4425,-4.4425,-4.4425,-4.4425,-4.427,-4.4101,-4.4007,-4.4007,-4.396,-4.3832,-4.3689,-4.3594,-4.3485,-4.3293,-4.3211,-4.3018,-4.2693,-4.2128,-4.2079,-4.1796,-4.1461,-4.1311,-4.1311,-4.1311,-4.1311,-4.1311,-4.1311,-4.1311,-4.1311,-4.1311,-4.1311,-4.1311,-4.1376,-4.1598,-4.199,-4.2448,-4.2618,-4.2931,-4.3232,-4.3428,-4.3755,-4.4108,-4.4278,-4.4317,-4.4722,-4.4735,-4.4681,-4.4681,-4.4681,-4.4518,-4.3945,-4.327,-4.2375,-4.1923,-4.1366,-4.0733,-4.0269,-4.0106,-3.9884,-3.9178,-3.8585,-3.7976,-3.7435,-3.6585,-3.5972,-3.5675,-3.549,-3.5428,-3.5428,-3.5428,-3.5428,-4.461,-4.461,-4.461,-4.461,-4.461,-4.461,-4.461,-4.461,-4.461,-4.461,-4.461,-4.461,-4.461,-4.461,-4.461,-4.461,-4.4964,-4.5865,-4.6542,-4.6757,-4.7989,-4.8095,-4.7749,-4.7435,-4.7031,-4.6403,-4.6623,-4.6166,-4.5566,-4.5427,-4.523,-4.4551,-4.4425,-4.4425,-4.4425,-4.4425,-4.4425,-4.4425,-4.4425,-4.4425,-4.4425,-4.4425,-4.4425,-4.4425,-4.4425,-4.4425,-4.4425,-4.4364,-4.4148,-4.3648,-4.3519,-4.3457,-4.3266,-4.3149,-4.29,-4.2935,-4.2873,-4.2776,-4.2728,-4.2631,-4.2338,-4.198,-4.1931,-4.1733,-4.1411,-4.1311,-4.1311,-4.1311,-4.1311,-4.1311,-4.1311,-4.1311,-4.1311,-4.1311,-4.1311,-4.1311,-4.1311,-4.1311,-4.1625,-4.1899,-4.2069,-4.2304,-4.2644,-4.2905,-4.3258,-4.3585,-4.3742,-4.3977,-4.4315,-4.46,-4.4533,-4.4341,-4.4232,-4.3381,-4.2756,-4.2419,-4.1525,-4.0964,-4.0455,-3.9989,-3.9414,-3.9238,-3.9119,-3.8882,-3.8335,-3.7676,-3.7011,-3.6279,-3.5726,-3.5479,-3.5428,-3.5428,-3.5428,-3.5428,-3.5428,-4.461,-4.461,-4.461,-4.461,-4.461,-4.461,-4.461,-4.461,-4.461,-4.461,-4.461,-4.461,-4.461,-4.461,-4.461,-4.461,-4.4895,-4.581,-4.6462,-4.6724,-4.7717,-4.7969,-4.7407,-4.6872,-4.6285,-4.6002,-4.6047,-4.5732,-4.5032,-4.5092,-4.5,-4.4504,-4.4425,-4.4425,-4.4425,-4.4425,-4.4425,-4.4425,-4.4425,-4.4425,-4.4425,-4.4317,-4.4317,-4.4317,-4.427,-4.427,-4.4317,-4.4317,-4.4148,-4.3648,-4.3245,-4.2811,-4.2568,-4.2631,-4.2741,-4.2693,-4.2449,-4.2239,-4.2177,-4.1845,-4.161,-4.1474,-4.1461,-4.1448,-4.1311,-4.1311,-4.1311,-4.1311,-4.1311,-4.1311,-4.1311,-4.1311,-4.1311,-4.1311,-4.1311,-4.1311,-4.1311,-4.1324,-4.135,-4.1546,-4.1585,-4.1664,-4.2043,-4.2369,-4.2657,-4.301,-4.331,-4.344,-4.3606,-4.3927,-4.4116,-4.3894,-4.356,-4.2488,-4.1353,-4.1124,-4.0675,-4.0106,-3.9708,-3.9403,-3.8882,-3.8585,-3.8347,-3.8107,-3.7796,-3.7253,-3.6585,-3.5911,-3.5603,-3.5428,-3.5428,-3.5428,-3.5428,-3.5428,-3.5428,-4.461,-4.461,-4.461,-4.461,-4.461,-4.461,-4.461,-4.461,-4.461,-4.461,-4.461,-4.461,-4.461,-4.461,-4.461,-4.461,-4.4826,-4.5175,-4.5727,-4.6204,-4.6709,-4.6907,-4.6579,-4.6136,-4.5551,-4.517,-4.5201,-4.5201,-4.449,-4.4723,-4.4723,-4.4504,-4.4425,-4.4425,-4.4425,-4.4425,-4.4425,-4.4425,-4.4425,-4.4411,-4.4364,-4.4148,-4.4007,-4.3974,-4.3751,-4.3655,-4.3608,-4.3608,-4.3355,-4.2895,-4.2617,-4.2226,-4.1944,-4.1895,-4.2105,-4.2056,-4.1858,-4.1696,-4.1696,-4.1411,-4.1311,-4.1311,-4.1311,-4.1311,-4.1311,-4.1311,-4.1311,-4.1311,-4.1311,-4.1311,-4.1311,-4.1311,-4.1311,-4.1311,-4.1311,-4.1311,-4.1311,-4.1311,-4.1311,-4.1311,-4.1389,-4.1494,-4.1559,-4.1847,-4.2056,-4.2396,-4.2814,-4.2853,-4.2861,-4.3059,-4.3278,-4.274,-4.2302,-4.1696,-4.0675,-4.0327,-4.0165,-3.9591,-3.9131,-3.8823,-3.8466,-3.8167,-3.7687,-3.7264,-3.6961,-3.6707,-3.6412,-3.586,-3.5613,-3.5428,-3.5428,-3.5428,-3.5428,-3.5428,-3.5428,-4.461,-4.461,-4.461,-4.461,-4.461,-4.461,-4.461,-4.461,-4.461,-4.461,-4.461,-4.461,-4.461,-4.461,-4.4572,-4.4564,-4.4442,-4.4507,-4.4956,-4.5361,-4.5711,-4.5669,-4.5737,-4.5504,-4.5276,-4.5,-4.4597,-4.4425,-4.4411,-4.4457,-4.4411,-4.4425,-4.4425,-4.4425,-4.4425,-4.4425,-4.4425,-4.4425,-4.4411,-4.4364,-4.4162,-4.3865,-4.3566,-4.3471,-4.3115,-4.2935,-4.3032,-4.3032,-4.2728,-4.2373,-4.2128,-4.1881,-4.1411,-4.1311,-4.1311,-4.1311,-4.1311,-4.1311,-4.1311,-4.1311,-4.1311,-4.1311,-4.1311,-4.1311,-4.1311,-4.1311,-4.1311,-4.1311,-4.1311,-4.1311,-4.1311,-4.1311,-4.1311,-4.1311,-4.1311,-4.1311,-4.1311,-4.1311,-4.1311,-4.1311,-4.1311,-4.13,-4.1391,-4.1417,-4.1602,-4.1376,-4.1776,-4.1616,-4.1592,-4.1863,-4.1885,-4.131,-4.0865,-4.065,-4.0106,-3.9826,-3.965,-3.9485,-3.8942,-3.8574,-3.8216,-3.7867,-3.7264,-3.6534,-3.629,-3.6106,-3.5993,-3.587,-3.5613,-3.5428,-3.5428,-3.5428,-3.5428,-3.5428,-3.5428,-4.461,-4.461,-4.461,-4.461,-4.461,-4.461,-4.461,-4.461,-4.461,-4.461,-4.461,-4.461,-4.461,-4.461,-4.461,-4.4266,-4.4046,-4.4203,-4.4456,-4.4628,-4.4977,-4.542,-4.6049,-4.5747,-4.5324,-4.4986,-4.4597,-4.4457,-4.4425,-4.4425,-4.4425,-4.4425,-4.4425,-4.4425,-4.4425,-4.4425,-4.4425,-4.4425,-4.4425,-4.4209,-4.3851,-4.3648,-4.3328,-4.3101,-4.2887,-4.2741,-4.2693,-4.2693,-4.2498,-4.2141,-4.2079,-4.1782,-4.1411,-4.1311,-4.1311,-4.1311,-4.1311,-4.1311,-4.1311,-4.1311,-4.1311,-4.1311,-4.1311,-4.1311,-4.1311,-4.1311,-4.1311,-4.1311,-4.1311,-4.1311,-4.1311,-4.1311,-4.1311,-4.1311,-4.1311,-4.1311,-4.1311,-4.1311,-4.1311,-4.1311,-4.1311,-4.1211,-4.12,-4.1187,-4.1162,-4.0837,-4.0618,-4.0415,-4.0227,-4.0367,-4.0508,-3.9958,-3.991,-3.9709,-3.9768,-3.9381,-3.9238,-3.919,-3.8823,-3.8335,-3.7736,-3.7203,-3.6524,-3.5983,-3.5737,-3.5675,-3.5675,-3.5552,-3.5428,-3.5428,-3.5428,-3.5428,-3.5428,-3.5428,-3.5428,-4.461,-4.461,-4.461,-4.461,-4.461,-4.461,-4.461,-4.461,-4.461,-4.461,-4.461,-4.461,-4.461,-4.461,-4.461,-4.4212,-4.3744,-4.3574,-4.3507,-4.3382,-4.3575,-4.3962,-4.4502,-4.4533,-4.4496,-4.4791,-4.4597,-4.4411,-4.4425,-4.4425,-4.4425,-4.4425,-4.4425,-4.4425,-4.4425,-4.4425,-4.4425,-4.4425,-4.4364,-4.4303,-4.396,-4.3533,-4.3101,-4.2873,-4.2338,-4.2092,-4.2056,-4.2007,-4.1908,-4.1647,-4.166,-4.1547,-4.1361,-4.1311,-4.1311,-4.1311,-4.1311,-4.1311,-4.1311,-4.1311,-4.1311,-4.1311,-4.1311,-4.1311,-4.1311,-4.1311,-4.1311,-4.1311,-4.1311,-4.1311,-4.1311,-4.1311,-4.1311,-4.1311,-4.1311,-4.1311,-4.1311,-4.1311,-4.1311,-4.1311,-4.1261,-4.1097,-4.0896,-4.0593,-4.0427,-4.0095,-3.9667,-3.9204,-3.8747,-3.8387,-3.8611,-3.8725,-3.8815,-3.8989,-3.9127,-3.9103,-3.8944,-3.8871,-3.8645,-3.8047,-3.7143,-3.6473,-3.5983,-3.5675,-3.5552,-3.549,-3.5428,-3.5428,-3.5428,-3.5428,-3.5428,-3.5428,-3.5428,-3.5428,-3.5428,-4.461,-4.461,-4.461,-4.461,-4.461,-4.461,-4.461,-4.461,-4.461,-4.461,-4.461,-4.461,-4.461,-4.461,-4.4534,-4.4135,-4.3314,-4.286,-4.2536,-4.2238,-4.2034,-4.2437,-4.3215,-4.3445,-4.381,-4.4186,-4.4387,-4.4397,-4.4425,-4.4425,-4.4425,-4.4425,-4.4425,-4.4425,-4.4425,-4.4425,-4.4425,-4.4425,-4.4425,-4.4223,-4.3846,-4.3259,-4.2776,-4.2351,-4.1809,-4.1311,-4.1311,-4.1361,-4.1361,-4.1361,-4.1361,-4.1361,-4.1311,-4.1311,-4.1311,-4.1311,-4.1311,-4.1311,-4.1311,-4.1311,-4.1311,-4.1311,-4.1311,-4.1311,-4.1311,-4.1311,-4.1311,-4.1311,-4.1311,-4.1311,-4.1311,-4.1311,-4.1311,-4.1311,-4.1311,-4.1311,-4.1311,-4.1311,-4.1311,-4.1311,-4.1161,-4.0795,-4.0478,-4.0006,-3.9647,-3.9376,-3.8844,-3.8149,-3.7619,-3.7141,-3.7347,-3.7823,-3.817,-3.8436,-3.8711,-3.8755,-3.8619,-3.841,-3.8182,-3.7687,-3.6778,-3.6228,-3.5788,-3.5603,-3.5428,-3.5428,-3.5428,-3.5428,-3.5428,-3.5428,-3.5428,-3.5428,-3.5428,-3.5428,-3.5428,-4.461,-4.461,-4.461,-4.461,-4.461,-4.461,-4.461,-4.461,-4.461,-4.461,-4.461,-4.461,-4.461,-4.4572,-4.4404,-4.3849,-4.271,-4.2629,-4.2214,-4.1838,-4.1685,-4.201,-4.2601,-4.3048,-4.3427,-4.3638,-4.3891,-4.4172,-4.4326,-4.4088,-4.4256,-4.4411,-4.434,-4.4383,-4.4425,-4.4425,-4.4425,-4.4425,-4.4425,-4.394,-4.3465,-4.2935,-4.2498,-4.171,-4.1411,-4.1311,-4.1311,-4.1311,-4.1311,-4.1311,-4.1311,-4.1311,-4.1311,-4.1311,-4.1311,-4.1311,-4.1311,-4.1311,-4.1311,-4.1311,-4.1311,-4.1311,-4.1311,-4.1311,-4.1311,-4.1311,-4.1311,-4.1311,-4.1311,-4.1311,-4.1311,-4.1311,-4.1311,-4.1311,-4.1311,-4.1311,-4.1311,-4.1311,-4.1311,-4.1311,-4.0997,-4.0478,-3.9737,-3.9156,-3.8792,-3.853,-3.8056,-3.7364,-3.7106,-3.6752,-3.6916,-3.724,-3.7608,-3.7976,-3.8366,-3.8317,-3.8058,-3.7692,-3.7407,-3.7034,-3.6462,-3.5972,-3.5603,-3.5541,-3.5428,-3.5428,-3.5428,-3.5428,-3.5428,-3.5428,-3.5428,-3.5428,-3.5428,-3.5428,-3.5428,-4.461,-4.461,-4.461,-4.461,-4.461,-4.461,-4.461,-4.461,-4.461,-4.461,-4.4572,-4.461,-4.461,-4.4496,-4.4058,-4.3482,-4.267,-4.2603,-4.1944,-4.1497,-4.1468,-4.178,-4.2144,-4.2275,-4.2528,-4.2907,-4.3216,-4.3287,-4.3245,-4.3413,-4.3301,-4.3427,-4.3975,-4.4355,-4.4425,-4.4247,-4.4289,-4.4364,-4.4317,-4.3988,-4.3485,-4.297,-4.2533,-4.1881,-4.1411,-4.1311,-4.1311,-4.1311,-4.1311,-4.1311,-4.1311,-4.1311,-4.1311,-4.1311,-4.1311,-4.1311,-4.1311,-4.1311,-4.1311,-4.1311,-4.1311,-4.1311,-4.1311,-4.1311,-4.1311,-4.1311,-4.1311,-4.1311,-4.1311,-4.1311,-4.1311,-4.1311,-4.1311,-4.1311,-4.1311,-4.1311,-4.1261,-4.1211,-4.0997,-4.0846,-4.0377,-3.9853,-3.9,-3.8202,-3.7885,-3.7631,-3.7108,-3.67,-3.6521,-3.6415,-3.661,-3.6638,-3.6981,-3.7064,-3.7372,-3.7392,-3.7338,-3.7004,-3.6643,-3.6371,-3.6021,-3.5788,-3.5479,-3.5428,-3.5428,-3.5428,-3.5428,-3.5428,-3.5428,-3.5428,-3.5428,-3.5428,-3.5428,-3.5428,-3.5294,-4.461,-4.461,-4.461,-4.461,-4.461,-4.461,-4.461,-4.461,-4.461,-4.4458,-4.4305,-4.4289,-4.4174,-4.3903,-4.3536,-4.2941,-4.2441,-4.2211,-4.159,-4.1227,-4.1156,-4.1355,-4.1394,-4.1615,-4.198,-4.2275,-4.2542,-4.2654,-4.2756,-4.2612,-4.2683,-4.2964,-4.3357,-4.3648,-4.3543,-4.3686,-4.3779,-4.3899,-4.3893,-4.3675,-4.3136,-4.2811,-4.215,-4.1594,-4.1133,-4.0984,-4.0971,-4.0971,-4.1128,-4.1232,-4.1311,-4.1311,-4.1311,-4.1311,-4.1311,-4.1311,-4.1311,-4.1311,-4.1311,-4.1311,-4.1311,-4.1311,-4.1311,-4.1311,-4.1311,-4.1311,-4.1311,-4.1311,-4.1311,-4.1311,-4.1311,-4.1311,-4.1311,-4.1311,-4.1311,-4.1261,-4.111,-4.0997,-4.0643,-4.0326,-3.975,-3.9169,-3.8372,-3.7524,-3.7203,-3.7,-3.6785,-3.6472,-3.6452,-3.6323,-3.6335,-3.6351,-3.6401,-3.634,-3.6263,-3.6327,-3.6382,-3.6421,-3.6093,-3.59,-3.561,-3.5468,-3.5428,-3.5428,-3.5428,-3.5428,-3.5428,-3.5428,-3.5428,-3.5428,-3.5428,-3.5428,-3.5428,-3.5366,-3.5046,-4.461,-4.461,-4.461,-4.461,-4.461,-4.461,-4.461,-4.461,-4.4572,-4.4305,-4.3864,-4.3825,-4.3497,-4.3086,-4.2991,-4.2522,-4.2087,-4.1854,-4.1395,-4.0944,-4.1001,-4.0872,-4.0926,-4.125,-4.1502,-4.1755,-4.1994,-4.2247,-4.2402,-4.2261,-4.2345,-4.2211,-4.2189,-4.2349,-4.1915,-4.2021,-4.2406,-4.2848,-4.2882,-4.2573,-4.2194,-4.2008,-4.1462,-4.0798,-4.0497,-4.0448,-4.0448,-4.0448,-4.0657,-4.105,-4.1141,-4.1193,-4.1298,-4.1311,-4.1311,-4.1311,-4.1311,-4.1311,-4.1311,-4.1311,-4.1311,-4.1311,-4.1311,-4.1311,-4.1311,-4.1311,-4.1311,-4.1311,-4.1311,-4.1311,-4.1311,-4.1311,-4.1311,-4.1311,-4.1311,-4.1261,-4.1097,-4.0694,-4.0338,-3.9698,-3.9117,-3.8477,-3.7684,-3.6947,-3.658,-3.6363,-3.632,-3.6266,-3.6266,-3.6266,-3.6266,-3.6027,-3.591,-3.558,-3.5479,-3.5384,-3.5457,-3.5553,-3.5614,-3.5441,-3.5456,-3.5438,-3.5428,-3.5428,-3.5428,-3.5428,-3.5428,-3.5428,-3.5428,-3.5428,-3.5428,-3.5428,-3.5428,-3.517,-3.4673,-4.461,-4.461,-4.461,-4.461,-4.461,-4.461,-4.461,-4.461,-4.4572,-4.4458,-4.4305,-4.4266,-4.4174,-4.3771,-4.2966,-4.2482,-4.2278,-4.1771,-4.1367,-4.0816,-4.1071,-4.0986,-4.0957,-4.0912,-4.1053,-4.1067,-4.1306,-4.1432,-4.1278,-4.1417,-4.1157,-4.0882,-4.0718,-4.0727,-4.1489,-4.1823,-4.1937,-4.1719,-4.1652,-4.1477,-4.1042,-4.096,-4.0627,-3.9899,-3.9873,-3.9873,-3.9873,-3.9873,-4.0161,-4.0644,-4.0723,-4.088,-4.1154,-4.1259,-4.1285,-4.1298,-4.1311,-4.1311,-4.1311,-4.1311,-4.1311,-4.1311,-4.1311,-4.1311,-4.1311,-4.1311,-4.1311,-4.1311,-4.1311,-4.1311,-4.1311,-4.1311,-4.1311,-4.1311,-4.1311,-4.1311,-4.111,-4.0542,-3.9968,-3.9156,-3.8465,-3.7684,-3.6893,-3.6731,-3.6417,-3.6266,-3.6266,-3.6266,-3.6266,-3.6211,-3.6157,-3.5763,-3.5489,-3.4991,-3.4675,-3.4674,-3.4707,-3.4808,-3.5074,-3.5155,-3.5231,-3.5387,-3.5428,-3.5428,-3.5428,-3.5428,-3.5428,-3.5428,-3.5428,-3.5428,-3.5242,-3.4922,-3.4673,-3.435,-3.3912,-4.461,-4.461,-4.461,-4.461,-4.461,-4.461,-4.461,-4.461,-4.4572,-4.4396,-4.4035,-4.4112,-4.3903,-4.3418,-4.2951,-4.2603,-4.2522,-4.1964,-4.1619,-4.1071,-4.1156,-4.1029,-4.0787,-4.0702,-4.0786,-4.0702,-4.0702,-4.0758,-4.0814,-4.0558,-4.0296,-3.9799,-3.9172,-3.9649,-4.0386,-4.0507,-4.0721,-4.0663,-4.0777,-4.0467,-4.0264,-4.0116,-3.9868,-3.9459,-3.9285,-3.9298,-3.9298,-3.9377,-3.9547,-3.9952,-4.0226,-4.0422,-4.0827,-4.1023,-4.1115,-4.1219,-4.1311,-4.1311,-4.1311,-4.1311,-4.1311,-4.1311,-4.1311,-4.1311,-4.1311,-4.1311,-4.1311,-4.1311,-4.1311,-4.1311,-4.1311,-4.1311,-4.1311,-4.1311,-4.1311,-4.1311,-4.0997,-4.0427,-3.9492,-3.8687,-3.7737,-3.6947,-3.6472,-3.6417,-3.632,-3.6266,-3.6266,-3.6266,-3.6211,-3.6102,-3.5938,-3.5543,-3.5002,-3.4455,-3.4111,-3.4004,-3.4001,-3.4108,-3.4476,-3.4973,-3.52,-3.5428,-3.5428,-3.5428,-3.5428,-3.5428,-3.5428,-3.5366,-3.517,-3.4922,-3.4735,-3.436,-3.3985,-3.3597,-3.3219,-4.461,-4.461,-4.461,-4.461,-4.461,-4.461,-4.461,-4.461,-4.461,-4.3957,-4.289,-4.3512,-4.322,-4.2211,-4.2304,-4.2467,-4.236,-4.1854,-4.1577,-4.1367,-4.1029,-4.083,-4.0759,-4.0702,-4.0702,-4.0702,-4.0702,-4.0702,-4.0645,-4.017,-3.9733,-3.938,-3.9083,-3.911,-3.9066,-3.9163,-3.9455,-3.9667,-3.9666,-3.9465,-3.9357,-3.9393,-3.9144,-3.8841,-3.8697,-3.8697,-3.8697,-3.8736,-3.905,-3.9364,-3.9599,-3.9952,-4.0239,-4.0422,-4.0801,-4.1128,-4.1298,-4.1311,-4.1311,-4.1311,-4.1311,-4.1311,-4.1311,-4.1311,-4.1311,-4.1311,-4.1311,-4.1311,-4.1311,-4.1311,-4.1311,-4.1311,-4.1311,-4.1311,-4.1311,-4.1097,-4.0833,-4.016,-3.9169,-3.8214,-3.7173,-3.6483,-3.6375,-3.6266,-3.6266,-3.6266,-3.6266,-3.6102,-3.6048,-3.5719,-3.5543,-3.5157,-3.4624,-3.3883,-3.3642,-3.3691,-3.4024,-3.4318,-3.4621,-3.5066,-3.5273,-3.5428,-3.5428,-3.5428,-3.5428,-3.5294,-3.4984,-3.4859,-3.4735,-3.4485,-3.3912,-3.3471,-3.2965,-3.3029,-3.2648,-4.461,-4.461,-4.461,-4.461,-4.461,-4.461,-4.461,-4.461,-4.4572,-4.4058,-4.3339,-4.3512,-4.3126,-4.236,-4.2087,-4.2032,-4.1757,-4.1353,-4.1071,-4.0915,-4.0873,-4.0744,-4.0702,-4.0702,-4.0702,-4.0702,-4.0702,-4.0702,-4.053,-4.0009,-3.9526,-3.9305,-3.8737,-3.8512,-3.8442,-3.8287,-3.8477,-3.8635,-3.8587,-3.86,-3.8527,-3.854,-3.8344,-3.8266,-3.8214,-3.8214,-3.8214,-3.82,-3.8501,-3.8854,-3.8958,-3.9351,-4.0344,-4.0435,-4.0684,-4.1219,-4.1311,-4.1311,-4.1311,-4.1311,-4.1311,-4.1311,-4.1311,-4.1311,-4.1311,-4.1311,-4.1311,-4.1311,-4.1311,-4.1311,-4.1311,-4.1311,-4.1311,-4.1311,-4.1211,-4.0896,-4.0478,-3.9583,-3.8635,-3.7684,-3.67,-3.6429,-3.632,-3.6266,-3.6266,-3.6266,-3.6211,-3.6048,-3.5763,-3.5488,-3.5046,-3.4714,-3.4296,-3.3646,-3.366,-3.3782,-3.4181,-3.4567,-3.4859,-3.5148,-3.5314,-3.5428,-3.5428,-3.5366,-3.5232,-3.4797,-3.4298,-3.4173,-3.3975,-3.3335,-3.2829,-3.232,-3.201,-3.2074,-3.1809,-4.461,-4.461,-4.461,-4.461,-4.461,-4.461,-4.461,-4.461,-4.461,-4.4228,-4.3669,-4.3903,-4.3615,-4.3101,-4.2941,-4.282,-4.2511,-4.1964,-4.1506,-4.1198,-4.0859,-4.0744,-4.0702,-4.0744,-4.0702,-4.0702,-4.0702,-4.0702,-4.0443,-3.9821,-3.9247,-3.8948,-3.822,-3.8161,-3.8129,-3.8064,-3.7972,-3.8011,-3.7952,-3.79,-3.79,-3.79,-3.79,-3.79,-3.79,-3.79,-3.79,-3.79,-3.8109,-3.8344,-3.8383,-3.8932,-4.0004,-4.0461,-4.0827,-4.1298,-4.1311,-4.1311,-4.1311,-4.1311,-4.1311,-4.1311,-4.1311,-4.1311,-4.1311,-4.1311,-4.1311,-4.1311,-4.1311,-4.1311,-4.1311,-4.1311,-4.1311,-4.1311,-4.0946,-4.0593,-3.9801,-3.8961,-3.8068,-3.7215,-3.6688,-3.6429,-3.6266,-3.6266,-3.6266,-3.6266,-3.6211,-3.5982,-3.5598,-3.5146,-3.4658,-3.4166,-3.3884,-3.3524,-3.3678,-3.3896,-3.4401,-3.4724,-3.5045,-3.5283,-3.5397,-3.5428,-3.5428,-3.5232,-3.4984,-3.4485,-3.3912,-3.3408,-3.3019,-3.232,-3.1671,-3.1295,-3.1046,-3.1111,-3.0593,-4.4402,-4.4387,-4.4533,-4.4486,-4.4495,-4.4564,-4.461,-4.461,-4.461,-4.4212,-4.3786,-4.4228,-4.3981,-4.3379,-4.3497,-4.3497,-4.3046,-4.2467,-4.2073,-4.1729,-4.1381,-4.11,-4.0944,-4.083,-4.0873,-4.0787,-4.0616,-4.0443,-4.027,-3.9659,-3.8904,-3.8602,-3.8116,-3.7992,-3.7992,-3.7946,-3.79,-3.79,-3.79,-3.79,-3.79,-3.79,-3.79,-3.79,-3.79,-3.79,-3.79,-3.79,-3.79,-3.7913,-3.807,-3.8553,-3.9586,-4.0657,-4.1128,-4.1298,-4.1311,-4.1311,-4.1311,-4.1311,-4.1311,-4.1311,-4.1311,-4.1311,-4.1311,-4.1311,-4.1311,-4.1311,-4.1311,-4.1311,-4.1311,-4.1261,-4.1261,-4.0959,-4.0593,-3.9955,-3.9052,-3.8214,-3.7322,-3.6688,-3.6526,-3.6266,-3.6266,-3.6266,-3.6266,-3.6266,-3.6211,-3.5993,-3.5378,-3.4869,-3.4401,-3.3816,-3.3648,-3.3538,-3.3807,-3.4093,-3.4579,-3.4962,-3.5242,-3.5355,-3.5407,-3.5428,-3.5428,-3.517,-3.4859,-3.4163,-3.3534,-3.2829,-3.2001,-3.1102,-3.0529,-3.0204,-3.0148,-3.0278,-3.0018,-4.3079,-4.314,-4.3602,-4.3855,-4.3917,-4.4409,-4.4579,-4.461,-4.461,-4.4197,-4.3708,-4.3732,-4.3536,-4.3126,-4.3205,-4.3126,-4.2831,-4.2831,-4.2548,-4.2278,-4.1949,-4.1464,-4.1437,-4.1198,-4.1086,-4.0688,-4.0386,-4.0053,-3.9747,-3.9216,-3.8724,-3.8557,-3.8116,-3.79,-3.79,-3.79,-3.79,-3.79,-3.79,-3.79,-3.79,-3.79,-3.79,-3.79,-3.79,-3.79,-3.79,-3.79,-3.79,-3.79,-3.79,-3.8527,-3.956,-4.0671,-4.1206,-4.1311,-4.1246,-4.1246,-4.1311,-4.1311,-4.1311,-4.1311,-4.1311,-4.1311,-4.1311,-4.1311,-4.1311,-4.1311,-4.1311,-4.1311,-4.1211,-4.1161,-4.101,-4.0593,-4.007,-3.9221,-3.8319,-3.7483,-3.658,-3.6429,-3.632,-3.6266,-3.6266,-3.6266,-3.6266,-3.6266,-3.6266,-3.5982,-3.5102,-3.4491,-3.4175,-3.3763,-3.3555,-3.3589,-3.3945,-3.4331,-3.4838,-3.5097,-3.5335,-3.5407,-3.5428,-3.5428,-3.5366,-3.5046,-3.4673,-3.3849,-3.2829,-3.1809,-3.0917,-3.0139,-2.9887,-2.9691,-2.9626,-2.9691,-2.9569,-4.2602,-4.2663,-4.2987,-4.314,-4.3254,-4.3556,-4.3848,-4.4132,-4.4163,-4.4143,-4.4004,-4.3747,-4.3379,-4.3046,-4.3061,-4.2603,-4.2522,-4.2845,-4.2278,-4.199,-4.2155,-4.1673,-4.1521,-4.1283,-4.1029,-4.0602,-4.0213,-3.9821,-3.9438,-3.8962,-3.8602,-3.8512,-3.8161,-3.79,-3.79,-3.79,-3.79,-3.79,-3.79,-3.79,-3.79,-3.79,-3.79,-3.79,-3.79,-3.79,-3.79,-3.79,-3.79,-3.8018,-3.8135,-3.8436,-3.9233,-3.9965,-4.0579,-4.0814,-4.0919,-4.1036,-4.1193,-4.1272,-4.1285,-4.1298,-4.1311,-4.1311,-4.1311,-4.1311,-4.1311,-4.1311,-4.1311,-4.1311,-4.0744,-4.0605,-4.0173,-3.9698,-3.8961,-3.8108,-3.7471,-3.6785,-3.6375,-3.6375,-3.6266,-3.6266,-3.6266,-3.6266,-3.6211,-3.5817,-3.5872,-3.5444,-3.4658,-3.4285,-3.399,-3.3794,-3.3711,-3.3903,-3.438,-3.4724,-3.5117,-3.5324,-3.5418,-3.5428,-3.5428,-3.5428,-3.5304,-3.4984,-3.4288,-3.3209,-3.2192,-3.1175,-3.0343,-2.97,-2.9504,-2.9373,-2.9307,-2.9307,-2.9307,-4.2294,-4.234,-4.2448,-4.2479,-4.2509,-4.2602,-4.2956,-4.3424,-4.3485,-4.3855,-4.4227,-4.3667,-4.3563,-4.3708,-4.3684,-4.2875,-4.2659,-4.3379,-4.2603,-4.1784,-4.1825,-4.1548,-4.1142,-4.073,-4.0559,-4.0257,-3.9865,-3.9733,-3.9513,-3.8872,-3.8389,-3.8376,-3.8207,-3.79,-3.79,-3.79,-3.79,-3.79,-3.79,-3.79,-3.79,-3.79,-3.79,-3.79,-3.79,-3.79,-3.79,-3.79,-3.79,-3.8083,-3.8331,-3.8619,-3.8932,-3.9494,-3.9873,-4.0226,-4.0331,-4.0605,-4.0945,-4.1076,-4.118,-4.1272,-4.1298,-4.1311,-4.1311,-4.1261,-4.1261,-4.111,-4.111,-4.0846,-4.0338,-3.9865,-3.9376,-3.8752,-3.795,-3.7257,-3.6731,-3.632,-3.632,-3.6266,-3.6266,-3.6266,-3.6266,-3.6266,-3.5927,-3.5543,-3.5046,-3.4502,-3.4129,-3.4129,-3.4051,-3.4044,-3.4053,-3.437,-3.4754,-3.5014,-3.5324,-3.5366,-3.5428,-3.5428,-3.5428,-3.5428,-3.5232,-3.4735,-3.3975,-3.2765,-3.168,-3.0593,-2.9887,-2.9307,-2.9307,-2.9307,-2.9307,-2.9307,-2.9307,-4.0889,-4.0935,-4.154,-4.1786,-4.1878,-4.2355,-4.2679,-4.2756,-4.2802,-4.3156,-4.3536,-4.3236,-4.3319,-4.4404,-4.4419,-4.3786,-4.2981,-4.3825,-4.3457,-4.2563,-4.2412,-4.1838,-4.1156,-4.0674,-4.0112,-3.9689,-3.9305,-3.8962,-3.9038,-3.848,-3.8037,-3.807,-3.8024,-3.79,-3.79,-3.79,-3.79,-3.79,-3.79,-3.79,-3.79,-3.79,-3.79,-3.79,-3.79,-3.79,-3.79,-3.79,-3.79,-3.8057,-3.8331,-3.8566,-3.8789,-3.9076,-3.9455,-3.9651,-3.9743,-4.0069,-4.0396,-4.0657,-4.0814,-4.1167,-4.1206,-4.1311,-4.1261,-4.1174,-4.0959,-4.0427,-4.0326,-4.0173,-3.9698,-3.9221,-3.8687,-3.7897,-3.7108,-3.6785,-3.6363,-3.632,-3.6266,-3.6266,-3.6266,-3.6266,-3.6157,-3.5982,-3.5598,-3.5157,-3.4769,-3.4233,-3.3724,-3.3851,-3.4007,-3.4156,-3.4297,-3.4567,-3.4826,-3.5117,-3.5387,-3.5418,-3.5366,-3.5242,-3.5242,-3.5366,-3.5108,-3.4225,-3.3325,-3.2183,-3.1102,-3.0269,-2.9757,-2.9307,-2.9307,-2.9307,-2.9307,-2.9307,-2.9307]}]]